[[{"header":{"parameterUnit":"m.s-1","parameterCategory":1,"la1":30.6,"la2":29.2853,"lo1":-89.7004,"lo2":-87.6739,"dy":0.0162,"dx":0.0183,"nx":112,"ny":82,"refTime":"2023-05-24T00:00:00:Z","depth":0,"parameterNumber":2,"parameterNumberName":"U-component_of_WINDS"},"data":[0.0,0.0,0.0,0.0,0.0,0.0,0.0,0.0,0.0,0.0,0.0,0.0,0.0,0.0,0.0,0.0,0.0,0.0,0.0,0.0,0.0,0.0,0.0,0.0,0.0,0.0,0.0,0.0,0.0,0.0,0.0,0.0,0.0,0.0,0.0,0.0,0.0,0.0,0.0,0.0,0.0,0.0,0.0,0.0,0.0,0.0,0.0,0.0,0.0,0.0,0.0,0.0,0.0,0.0,0.0,0.0,0.0,0.0,0.0,0.0,0.0,0.0,0.0,0.0,0.0,0.0,0.0,0.0,0.0,0.0,0.0,0.0,0.0,0.0,0.0,0.0,0.0,0.0,0.0,0.0,0.0,0.0,0.0,0.0,0.0,0.0,0.0,0.0,0.0,0.0,1.72,1.86,1.9584,2.0635,2.1732,2.1692,2.1496,2.1246,0.0,0.0,0.0,0.0,0.0,0.0,0.0,0.0,0.0,0.0,0.0,0.0,0.0,0.0,0.0,0.0,0.0,0.0,0.0,0.0,0.0,0.0,0.0,0.0,0.0,0.0,0.0,0.0,0.0,0.0,0.0,0.0,0.0,0.0,0.0,0.0,0.0,0.0,0.0,0.0,0.0,0.0,0.0,0.0,0.0,0.0,0.0,0.0,0.0,0.0,0.0,0.0,0.0,0.0,0.0,0.0,0.0,0.0,0.0,0.0,0.0,0.0,0.0,0.0,0.0,0.0,0.0,0.0,0.0,0.0,0.0,0.0,0.0,0.0,0.0,0.0,0.0,0.0,0.0,0.0,0.0,0.0,0.0,0.0,0.0,0.0,0.0,0.0,0.0,0.0,0.0,0.0,0.0,0.0,0.0,0.0,0.0,0.0,0.0,0.0,0.0,0.0,0.0,0.0,1.7361,1.8414,2.0515,2.1875,2.196,2.1194,2.1396,2.2982,0.0,0.0,0.0,0.0,0.0,0.0,0.0,0.0,0.0,0.0,0.0,0.0,0.0,0.0,0.0,0.0,0.0,0.0,0.0,0.0,0.0,0.0,0.0,0.0,0.0,0.0,0.0,0.0,0.0,0.0,0.0,0.0,0.0,0.0,0.0,0.0,0.0,0.0,0.0,0.0,0.0,0.0,0.0,0.0,0.0,0.0,0.0,0.0,0.0,0.0,0.0,0.0,0.0,0.0,0.0,0.0,0.0,0.0,0.0,0.0,0.0,0.0,0.0,0.0,0.0,0.0,0.0,0.0,0.0,0.0,0.0,0.0,0.0,0.0,0.0,0.0,0.0,0.0,0.0,0.0,0.0,0.0,0.0,0.0,0.0,0.0,0.0,0.0,0.0,0.0,0.0,0.0,0.0,0.0,0.0,0.0,0.0,0.0,0.0,0.0,0.0,0.0,0.0,1.7075,1.7634,1.8412,1.9819,2.0585,2.0329,1.9466,1.9806,2.1902,2.1535,0.0,0.0,0.0,0.0,0.0,0.0,0.0,0.0,0.0,0.0,0.0,0.0,0.0,0.0,0.0,0.0,0.0,0.0,0.0,0.0,0.0,0.0,0.0,0.0,0.0,0.0,0.0,0.0,0.0,0.0,0.0,0.0,0.0,0.0,0.0,0.0,0.0,0.0,0.0,0.0,0.0,0.0,0.0,0.0,0.0,0.0,0.0,0.0,0.0,0.0,0.0,0.0,0.0,0.0,0.0,0.0,0.0,0.0,0.0,0.0,0.0,0.0,0.0,0.0,0.0,0.0,0.0,0.0,0.0,0.0,0.0,0.0,0.0,0.0,0.0,0.0,0.0,0.0,0.0,0.0,0.0,0.0,0.0,0.0,0.0,0.0,0.0,0.0,0.0,0.0,0.0,0.0,0.0,0.0,0.0,0.0,0.0,0.0,0.0,0.0,0.0,0.0,1.7221,1.7862,1.8517,1.908,1.9267,1.8916,1.8103,1.8513,2.066,1.9973,0.0,0.0,0.0,0.0,0.0,0.0,0.0,0.0,0.0,0.0,0.0,0.0,0.0,0.0,0.0,0.0,0.0,0.0,0.0,0.0,0.0,0.0,0.0,0.0,0.0,0.0,0.0,0.0,0.0,0.0,0.0,0.0,0.0,0.0,0.0,0.0,0.0,0.0,0.0,0.0,0.0,0.0,0.0,0.0,0.0,0.0,0.0,0.0,0.0,0.0,0.0,0.0,0.0,0.0,0.0,0.0,0.0,0.0,0.0,0.0,0.0,0.0,0.0,0.0,0.0,0.0,0.0,0.0,0.0,0.0,0.0,0.0,0.0,0.0,0.0,0.0,0.0,0.0,0.0,0.0,0.0,0.0,0.0,0.0,0.0,0.0,0.0,0.0,0.0,0.0,0.0,0.0,0.0,0.0,0.0,0.0,0.0,0.0,0.0,0.0,0.0,0.0,1.7221,1.7916,1.877,1.9185,1.9267,1.8916,1.8103,1.8513,2.066,1.9973,0.0,0.0,0.0,0.0,0.0,0.0,0.0,0.0,0.0,0.0,0.0,0.0,0.0,0.0,0.0,0.0,0.0,0.0,0.0,0.0,0.0,0.0,0.0,0.0,0.0,0.0,0.0,0.0,0.0,0.0,0.0,0.0,0.0,0.0,0.0,0.0,0.0,0.0,0.0,0.0,0.0,0.0,0.0,0.0,0.0,0.0,0.0,0.0,0.0,0.0,0.0,0.0,0.0,0.0,0.0,0.0,0.0,0.0,0.0,0.0,0.0,0.0,0.0,0.0,0.0,0.0,0.0,0.0,0.0,0.0,0.0,0.0,0.0,0.0,0.0,0.0,0.0,0.0,0.0,0.0,0.0,0.0,0.0,0.0,0.0,0.0,0.0,0.0,0.0,0.0,0.0,0.0,0.0,0.0,0.0,0.0,0.0,0.0,0.0,0.0,0.0,0.0,1.7474,1.8023,0.0,1.9334,1.9201,1.8691,1.7996,1.8107,1.9296,0.0,0.0,0.0,0.0,0.0,0.0,0.0,0.0,0.0,0.0,0.0,0.0,0.0,0.0,0.0,0.0,0.0,0.0,0.0,0.0,0.0,0.0,0.0,0.0,0.0,0.0,0.0,0.0,0.0,0.0,0.0,0.0,0.0,0.0,0.0,0.0,0.0,0.0,0.0,0.0,0.0,0.0,0.0,0.0,0.0,0.0,0.0,0.0,0.0,0.0,0.0,0.0,0.0,0.0,0.0,0.0,0.0,0.0,0.0,0.0,0.0,0.0,0.0,0.0,0.0,0.0,0.0,0.0,0.0,0.0,0.0,0.0,0.0,0.0,0.0,0.0,0.0,0.0,0.0,0.0,0.0,0.0,0.0,0.0,0.0,0.0,0.0,0.0,0.0,0.0,0.0,0.0,0.0,0.0,0.0,0.0,0.0,0.0,0.0,0.0,0.0,0.0,1.7404,1.7555,1.8036,0.0,1.9348,1.912,1.8397,1.7903,1.7972,1.8902,0.0,0.0,0.0,0.0,0.0,0.0,0.0,0.0,0.0,0.0,0.0,0.0,0.0,0.0,0.0,0.0,0.0,0.0,0.0,0.0,0.0,0.0,0.0,0.0,0.0,0.0,0.0,0.0,0.0,0.0,0.0,0.0,0.0,0.0,0.0,0.0,0.0,0.0,0.0,0.0,0.0,0.0,0.0,0.0,0.0,0.0,0.0,0.0,0.0,0.0,0.0,0.0,0.0,0.0,0.0,0.0,0.0,0.0,0.0,0.0,0.0,0.0,0.0,0.0,0.0,0.0,0.0,0.0,0.0,0.0,0.0,0.0,0.0,0.0,0.0,0.0,0.0,0.0,0.0,0.0,0.0,0.0,0.0,0.0,0.0,0.0,0.0,0.0,0.0,0.0,0.0,0.0,0.0,0.0,0.0,0.0,0.0,0.0,0.0,0.0,0.0,0.0,1.7085,1.7421,1.7929,1.8796,1.9185,1.9027,1.809,1.7756,1.8258,0.0,0.0,0.0,0.0,0.0,0.0,0.0,0.0,0.0,0.0,0.0,0.0,0.0,0.0,0.0,0.0,0.0,0.0,0.0,0.0,0.0,0.0,0.0,0.0,0.0,0.0,0.0,0.0,0.0,0.0,0.0,0.0,0.0,0.0,0.0,0.0,0.0,0.0,0.0,0.0,0.0,0.0,0.0,0.0,0.0,0.0,0.0,0.0,0.0,0.0,0.0,0.0,0.0,0.0,0.0,0.0,0.0,0.0,0.0,0.0,0.0,0.0,0.0,0.0,0.0,0.0,0.0,0.0,0.0,0.0,0.0,0.0,0.0,0.0,0.0,0.0,0.0,0.0,0.0,0.0,0.0,0.0,0.0,0.0,0.0,0.0,0.0,0.0,0.0,0.0,0.0,0.0,0.0,0.0,0.0,0.0,0.0,0.0,0.0,0.0,0.0,0.0,0.0,1.7085,1.7421,1.7929,1.8796,1.9185,1.912,1.841,1.7876,1.7972,1.8868,0.0,0.0,0.0,0.0,0.0,0.0,0.0,0.0,0.0,0.0,0.0,0.0,0.0,0.0,0.0,0.0,0.0,0.0,0.0,0.0,0.0,0.0,0.0,0.0,0.0,0.0,0.0,0.0,0.0,0.0,0.0,0.0,0.0,0.0,0.0,0.0,0.0,0.0,0.0,0.0,0.0,0.0,0.0,0.0,0.0,0.0,0.0,0.0,0.0,0.0,0.0,0.0,0.0,0.0,0.0,0.0,0.0,0.0,0.0,0.0,0.0,0.0,0.0,0.0,0.0,0.0,0.0,0.0,0.0,0.0,0.0,0.0,0.0,0.0,0.0,0.0,0.0,0.0,0.0,0.0,0.0,0.0,0.0,0.0,0.0,0.0,0.0,0.0,0.0,0.0,0.0,0.0,0.0,0.0,0.0,0.0,0.0,0.0,0.0,0.0,0.0,0.0,1.6899,1.7354,1.7889,1.8664,1.9011,1.8958,1.8343,1.7862,1.7858,1.8454,0.0,0.0,0.0,0.0,0.0,0.0,0.0,0.0,0.0,0.0,0.0,0.0,0.0,0.0,0.0,0.0,0.0,0.0,0.0,0.0,0.0,0.0,0.0,0.0,0.0,0.0,0.0,0.0,0.0,0.0,0.0,0.0,0.0,0.0,0.0,0.0,0.0,0.0,0.0,0.0,0.0,0.0,0.0,0.0,0.0,0.0,0.0,0.0,0.0,0.0,0.0,0.0,0.0,0.0,0.0,0.0,0.0,0.0,0.0,0.0,0.0,0.0,0.0,0.0,0.0,0.0,0.0,0.0,0.0,0.0,0.0,0.0,0.0,0.0,0.0,0.0,0.0,0.0,0.0,0.0,0.0,0.0,0.0,0.0,0.0,0.0,0.0,0.0,0.0,0.0,0.0,0.0,0.0,0.0,0.0,0.0,0.0,0.0,0.0,0.0,0.0,0.0,1.666,1.726,1.7849,1.8464,1.8784,1.8703,1.8116,1.7796,1.79,1.8523,0.0,0.0,0.0,0.0,0.0,0.0,0.0,0.0,0.0,0.0,0.0,0.0,0.0,0.0,0.0,0.0,0.0,0.0,0.0,0.0,0.0,0.0,0.0,0.0,0.0,0.0,0.0,0.0,0.0,0.0,0.0,0.0,0.0,0.0,0.0,0.0,0.0,0.0,0.0,0.0,0.0,0.0,0.0,0.0,0.0,0.0,0.0,0.0,0.0,0.0,0.0,0.0,0.0,0.0,0.0,0.0,0.0,0.0,0.0,0.0,2.2305,0.0,0.0,0.0,0.0,0.0,0.0,0.0,0.0,0.0,0.0,0.0,0.0,0.0,0.0,0.0,0.0,0.0,0.0,0.0,0.0,0.0,0.0,0.0,0.0,0.0,0.0,0.0,0.0,0.0,0.0,0.0,0.0,0.0,0.0,0.0,0.0,0.0,0.0,0.0,0.0,0.0,1.6979,1.7394,1.7903,1.8744,1.9092,1.9067,1.845,1.8103,1.819,1.8863,1.8829,0.0,0.0,0.0,0.0,0.0,0.0,0.0,0.0,0.0,0.0,0.0,0.0,0.0,0.0,0.0,0.0,0.0,0.0,0.0,0.0,0.0,0.0,0.0,0.0,0.0,0.0,0.0,0.0,0.0,0.0,0.0,0.0,0.0,0.0,0.0,0.0,0.0,0.0,0.0,0.0,0.0,0.0,0.0,0.0,0.0,0.0,0.0,0.0,0.0,0.0,0.0,0.0,0.0,0.0,0.0,0.0,0.0,0.0,0.0,0.0,2.3242,0.0,0.0,0.0,0.0,0.0,0.0,0.0,0.0,0.0,0.0,0.0,0.0,0.0,0.0,0.0,0.0,0.0,0.0,0.0,0.0,0.0,0.0,0.0,0.0,0.0,0.0,0.0,0.0,0.0,0.0,0.0,0.0,0.0,0.0,0.0,0.0,0.0,0.0,0.0,0.0,1.7274,1.7622,1.809,1.881,1.9065,1.8971,1.8531,1.8183,1.8103,1.8302,1.8596,0.0,0.0,0.0,0.0,0.0,0.0,0.0,0.0,0.0,0.0,0.0,0.0,0.0,0.0,0.0,0.0,0.0,0.0,0.0,0.0,0.0,0.0,0.0,0.0,0.0,0.0,0.0,0.0,0.0,0.0,0.0,0.0,0.0,0.0,0.0,0.0,0.0,0.0,0.0,0.0,0.0,0.0,0.0,0.0,0.0,0.0,0.0,0.0,0.0,0.0,0.0,0.0,0.0,2.5102,2.5605,2.5903,2.5043,2.4506,2.4186,2.3844,2.3565,2.3373,2.3522,0.0,0.0,0.0,0.0,0.0,0.0,0.0,0.0,0.0,0.0,0.0,0.0,0.0,0.0,0.0,0.0,0.0,0.0,0.0,0.0,0.0,0.0,0.0,0.0,1.7577,1.7014,1.7548,0.0,0.0,0.0,0.0,0.0,0.0,0.0,0.0,0.0,0.0,0.0,1.7542,1.7862,1.8235,1.8931,1.8998,1.8878,1.8597,1.8263,1.7969,1.7689,1.8353,1.8858,0.0,0.0,0.0,0.0,0.0,0.0,0.0,0.0,0.0,0.0,0.0,0.0,0.0,0.0,0.0,0.0,0.0,0.0,0.0,0.0,0.0,0.0,0.0,0.0,0.0,0.0,0.0,0.0,0.0,0.0,0.0,0.0,1.958,2.0331,0.0,0.0,0.0,0.0,0.0,0.0,0.0,0.0,0.0,0.0,0.0,0.0,0.0,2.3753,2.5245,2.5289,2.5718,2.6582,2.6674,2.6797,2.6779,2.5522,2.5147,2.5387,2.3901,0.0,2.1687,2.2463,0.0,0.0,0.0,0.0,0.0,0.0,0.0,0.0,0.0,0.0,0.0,0.0,0.0,0.0,0.0,0.0,0.0,0.0,0.0,0.0,0.0,0.0,1.7032,1.7587,1.7592,1.7501,0.0,1.7194,1.6779,1.6618,1.6393,0.0,0.0,0.0,0.0,0.0,0.0,0.0,1.7809,1.7982,1.8343,1.9254,1.9334,1.9185,1.8891,1.8597,1.8303,1.7982,1.7848,1.8312,1.9465,2.0582,0.0,0.0,0.0,0.0,0.0,0.0,0.0,0.0,0.0,0.0,0.0,0.0,0.0,0.0,0.0,0.0,0.0,0.0,0.0,0.0,0.0,0.0,0.0,0.0,0.0,0.0,0.0,0.0,0.0,2.0836,2.0603,2.0252,2.0879,2.1133,0.0,0.0,0.0,0.0,0.0,0.0,0.0,0.0,0.0,2.457,2.4867,2.5449,2.642,2.5949,2.6011,2.6596,2.6356,2.6208,2.6169,2.5142,2.4645,2.4554,2.314,2.193,2.1013,2.1859,2.1603,2.0688,0.0,0.0,0.0,0.0,2.0368,2.0443,1.9915,1.9818,1.9932,1.9865,0.0,0.0,0.0,0.0,0.0,0.0,0.0,0.0,0.0,0.0,1.8063,1.8518,1.8612,1.8652,1.8798,1.837,1.7756,0.0,1.6739,1.6513,1.6513,0.0,0.0,0.0,0.0,1.7341,1.817,1.8584,1.8998,1.9546,1.9613,1.9492,1.9199,1.8905,1.8516,1.8022,1.7876,1.8379,1.9565,2.0737,2.1884,0.0,0.0,0.0,0.0,0.0,0.0,0.0,0.0,0.0,0.0,0.0,0.0,0.0,0.0,0.0,0.0,0.0,0.0,0.0,0.0,0.0,0.0,0.0,0.0,0.0,0.0,0.0,0.0,2.1542,2.144,2.0213,2.1348,2.1816,0.0,0.0,0.0,0.0,0.0,0.0,2.3705,2.4434,2.5121,2.585,2.6288,2.6619,2.6795,2.6135,2.6035,2.6435,2.6167,2.6026,2.5997,2.5063,2.447,2.4119,2.2709,2.1724,2.1177,2.1739,2.1442,2.0674,2.0449,2.0187,1.9959,2.0157,2.0416,2.0584,1.9898,1.9767,1.9883,1.9594,1.8706,1.7833,1.8184,0.0,0.0,0.0,0.0,1.7903,1.8263,1.8691,1.9132,1.9506,1.9586,1.9653,1.9867,1.9506,1.8838,0.0,1.7301,1.6995,1.6941,0.0,0.0,0.0,0.0,1.7916,1.8517,1.908,1.9508,1.9773,1.98,1.972,1.9522,1.9132,1.8703,1.8276,1.8089,1.8532,1.9684,2.0995,2.218,2.3152,0.0,0.0,0.0,0.0,0.0,0.0,0.0,0.0,0.0,0.0,0.0,0.0,0.0,0.0,0.0,0.0,0.0,0.0,0.0,0.0,0.0,0.0,0.0,0.0,0.0,0.0,0.0,0.0,0.0,2.0664,2.2031,0.0,0.0,0.0,0.0,2.2964,2.418,2.5098,2.5562,2.6797,2.7138,2.6302,2.6668,2.6655,2.6253,2.621,2.6423,2.6864,2.7098,2.7214,2.7165,2.584,2.5223,2.5126,2.3205,2.2378,2.2304,2.2145,2.0872,1.9093,1.9977,1.9589,1.859,1.8603,1.8792,1.9021,1.8978,1.8976,1.907,1.9607,1.9551,1.9227,1.8934,1.8653,0.0,0.0,1.8424,1.8584,1.9187,1.9348,1.9522,2.0024,2.0157,2.0157,2.0184,1.9973,1.9573,0.0,1.8343,1.7862,1.7582,0.0,1.7568,1.7582,1.7796,1.8209,1.8796,1.9172,1.9508,1.9773,1.98,1.9786,1.9773,1.9252,1.889,1.885,1.8329,1.8616,2.0026,2.1123,2.2324,2.364,2.4982,0.0,0.0,0.0,0.0,0.0,0.0,0.0,0.0,0.0,0.0,0.0,0.0,0.0,0.0,0.0,0.0,0.0,0.0,0.0,0.0,0.0,0.0,0.0,0.0,0.0,0.0,0.0,0.0,2.2697,2.4414,0.0,2.4192,2.4391,2.4742,2.5195,2.4876,2.5069,2.6031,2.5894,2.6004,2.654,2.6865,2.7084,2.7214,2.6377,2.6019,2.619,2.5403,2.5048,2.5014,2.4308,2.4004,2.3956,2.3106,2.2592,2.2378,2.2334,2.152,2.0311,2.026,1.9981,1.9639,1.9826,2.008,2.0361,2.0548,2.0646,2.0552,1.9973,1.9479,1.9025,1.8731,1.8704,1.8811,1.9027,1.9319,1.9706,2.0137,2.0347,2.0535,2.0717,2.0802,2.0802,2.0802,2.0575,2.0338,2.0094,1.9426,1.8865,1.8772,1.8759,1.8759,1.8759,1.8985,1.9252,1.9466,1.9907,2.0284,2.0378,2.0391,2.0281,2.0064,1.972,1.9252,1.8677,1.845,1.8767,1.9743,2.0153,2.1529,2.4036,2.43,2.4773,0.0,0.0,0.0,0.0,0.0,0.0,0.0,0.0,0.0,0.0,0.0,0.0,0.0,0.0,0.0,0.0,0.0,0.0,0.0,0.0,0.0,0.0,0.0,0.0,0.0,0.0,2.4394,2.4261,2.6133,2.7109,2.6225,2.5881,2.5932,2.6525,2.5557,2.5394,2.6387,2.6114,2.6087,2.6402,2.6699,2.6731,2.6439,2.5569,2.5074,2.4939,2.4282,2.3897,2.3803,2.3674,2.3585,2.3607,2.3335,2.3094,2.2873,2.2873,2.2472,2.1758,2.1096,2.0828,2.0842,2.0967,2.1162,2.143,2.1662,2.1729,2.1582,2.0712,2.0054,1.9626,1.9426,1.9506,1.9706,1.9893,2.0307,2.0722,2.0953,2.1189,2.1403,2.1403,2.1403,2.1403,2.1403,2.1176,2.1007,2.1007,2.0298,1.9626,1.9562,1.9629,1.9626,1.9562,1.976,1.9947,1.9947,2.0374,2.0712,2.0712,2.0588,2.0441,2.0224,1.988,1.9359,1.8677,1.8544,1.8877,1.9743,1.9766,2.1209,2.4234,2.4649,2.5264,2.6147,0.0,0.0,0.0,0.0,0.0,0.0,0.0,0.0,0.0,0.0,0.0,0.0,0.0,0.0,0.0,0.0,0.0,0.0,0.0,0.0,0.0,0.0,0.0,2.1993,2.4157,2.562,2.5278,2.7115,2.804,2.7169,2.633,2.6135,2.6871,2.6349,2.6211,2.6646,2.7685,2.7492,2.5815,2.6146,2.5532,2.383,2.383,2.3647,2.3345,2.3941,2.4075,2.3843,2.4075,2.4209,2.4195,2.3937,2.3803,2.3803,2.3803,2.3594,2.3212,2.2365,2.205,2.201,2.1729,2.181,2.205,2.2024,2.1991,2.197,2.1689,2.1395,2.1122,2.1122,2.1122,2.1122,2.1109,2.1355,2.1582,2.1582,2.1796,2.1991,2.1991,2.1991,2.1991,2.1991,2.1796,2.1596,2.1596,2.0869,2.0157,1.9893,2.008,2.013,1.988,2.005,0.0,2.0224,2.0508,2.0712,2.0712,2.0414,2.021,2.0197,1.9706,1.9281,1.893,1.8664,1.8988,2.0006,2.0044,2.1359,2.4125,2.6015,2.6955,2.6935,0.0,0.0,0.0,0.0,0.0,0.0,0.0,0.0,0.0,0.0,0.0,0.0,0.0,0.0,0.0,0.0,0.0,0.0,0.0,0.0,0.0,0.0,2.3711,2.3711,2.5703,2.7467,2.8269,2.9687,3.0132,2.8921,2.8829,2.8382,2.7267,2.6368,2.5905,2.6029,2.5609,2.5143,2.4657,2.4946,2.4857,2.4396,2.4396,2.4319,2.4239,2.4399,2.4439,2.4396,2.4262,2.4209,2.4195,2.3937,2.3803,2.3803,2.3803,2.3594,2.3265,2.306,2.2819,2.2639,2.2559,2.2586,2.2599,2.2171,2.1991,2.201,2.193,2.1703,2.1462,2.1462,2.1462,2.1422,2.1162,2.1355,2.1582,2.1582,2.1796,2.1991,2.1991,2.1991,2.1991,2.1991,2.1924,2.1903,2.1903,2.167,2.1336,2.0842,2.0815,2.0842,2.0762,2.0815,0.0,2.0837,2.0935,2.0909,2.0726,2.0632,2.0468,2.0224,1.9893,1.9559,1.9294,1.8971,1.8832,1.8947,1.8933,1.9764,2.1511,2.436,2.5687,0.0,0.0,0.0,0.0,0.0,0.0,0.0,0.0,0.0,0.0,0.0,0.0,0.0,0.0,0.0,0.0,0.0,0.0,0.0,0.0,0.0,0.0,2.4277,2.5547,2.6445,2.7702,2.8914,3.0009,3.0456,3.0493,3.0,2.871,2.7605,2.6967,2.5702,2.5022,2.5115,2.4656,2.4382,2.4382,2.4519,2.4599,2.4599,2.4599,2.4532,2.4412,2.4546,2.4532,2.4412,2.4409,2.4382,2.4382,2.4209,2.4142,2.4142,2.4142,2.3955,0.0,0.0,0.0,0.0,0.0,2.2672,2.2632,2.2285,2.2164,2.2164,2.2164,2.201,2.177,2.177,2.1689,2.1569,2.1496,2.1636,2.1796,2.1917,2.2171,2.2385,2.2385,2.2385,2.2385,2.2385,2.2258,2.2164,2.2164,2.2071,0.0,2.1537,2.1376,2.1256,2.1122,2.1109,2.1109,2.1109,2.1109,2.1042,2.0869,2.0779,2.0601,2.0428,2.004,0.0,0.0,0.0,1.8823,1.8677,1.9264,0.0,0.0,0.0,2.4931,2.536,0.0,0.0,0.0,2.707,2.707,0.0,0.0,0.0,0.0,0.0,0.0,0.0,0.0,0.0,0.0,0.0,0.0,0.0,0.0,0.0,0.0,2.5605,2.7467,2.9461,2.9872,3.0263,3.1016,3.0221,2.9771,3.028,2.7114,2.5301,2.6002,2.4636,2.3888,2.4142,0.0,0.0,0.0,0.0,2.4599,2.4599,2.4599,2.4466,2.4249,2.4479,2.4466,2.4262,2.4479,2.4599,2.4599,2.4599,2.4599,2.4599,2.4599,2.4426,2.4142,2.3594,2.3193,2.292,2.2579,2.2472,2.2458,2.2398,0.0,0.0,2.2425,2.2271,2.2031,2.2031,2.189,2.1729,2.1957,2.2004,2.2098,2.2352,2.2645,2.2893,2.2893,2.2893,2.2893,2.2893,2.2659,2.2472,2.2472,2.2258,2.2104,2.2044,2.1823,2.1542,2.1243,2.1203,2.1203,2.1203,2.1176,2.1149,2.1109,0.0,0.0,2.0712,2.0174,1.976,1.9562,1.9212,1.8983,1.8943,2.023,2.1034,2.1358,2.2833,2.4278,2.5634,2.5852,2.66,2.7887,2.7441,2.7637,0.0,0.0,0.0,0.0,0.0,0.0,0.0,0.0,0.0,0.0,0.0,0.0,0.0,0.0,0.0,2.6079,2.7832,2.9383,3.0469,3.1523,3.2226,3.2402,3.1015,2.9676,2.8754,2.6927,2.5271,2.3996,2.3846,2.383,2.3884,2.4128,2.4289,2.4289,2.4479,2.4599,2.4599,2.4599,2.4572,2.4519,0.0,0.0,2.4519,2.4572,2.4599,2.4599,2.4599,2.4599,2.4599,2.4599,2.4426,2.4168,2.3821,2.35,2.3193,2.292,2.2813,2.2739,2.2498,2.2385,2.2425,2.2733,2.2579,2.2338,2.2338,2.2298,0.0,2.2031,2.2151,2.2352,2.2405,2.2645,2.2893,2.2893,2.2893,2.2893,2.2893,2.2853,2.2813,2.2813,2.276,2.2653,2.2378,2.2098,2.1884,2.183,2.1817,2.1817,2.1817,2.1649,2.1408,2.1136,2.0855,2.0712,2.0712,2.0347,2.0227,2.0445,1.992,1.9519,1.9321,1.9583,1.9754,1.9809,2.148,2.2479,2.2795,2.4261,2.5129,2.5428,2.7547,2.8606,0.0,0.0,0.0,0.0,0.0,0.0,0.0,0.0,0.0,0.0,0.0,2.3743,0.0,0.0,2.5977,2.7669,2.9043,3.0302,3.1397,3.1363,3.1326,3.1471,3.0151,2.8653,2.7243,2.55,2.4198,2.3598,2.3554,2.3621,2.3803,2.395,2.3981,2.3981,2.4128,2.4275,2.4386,2.4386,2.4452,2.4599,2.4599,2.4599,2.4599,2.4599,2.4599,2.4599,2.4599,2.4599,2.4599,2.4599,2.4519,2.4409,2.4262,2.3928,2.3514,2.3207,2.31,2.3046,2.2739,2.2645,2.2672,2.2853,2.2873,2.2846,2.2686,2.2645,2.2605,2.2492,2.2418,2.2458,2.2605,2.2786,2.2893,2.2893,2.2893,2.2893,2.2893,2.2893,2.2893,2.2893,2.2893,2.2853,2.2672,2.2559,2.2358,2.2064,2.1991,2.1991,2.1991,2.189,2.1743,2.1563,2.1315,2.1141,2.1141,2.0708,2.0454,2.0454,2.0187,1.9947,1.9813,1.9653,1.9653,1.98,2.0512,2.1334,2.2245,2.3177,2.3975,2.472,2.6359,2.7104,0.0,0.0,0.0,0.0,0.0,0.0,0.0,0.0,2.4857,2.497,2.5248,2.5717,2.6509,2.7043,2.7786,2.9074,2.9716,3.0449,3.1568,3.034,2.9265,2.9115,2.8156,2.7042,2.5922,2.398,2.3041,2.3589,2.3367,2.334,2.3616,2.3683,2.375,2.3803,2.3803,2.3941,2.4289,2.4235,2.4342,2.4599,2.4599,2.4599,2.4599,2.4599,2.4599,2.4599,2.4599,2.4599,2.4599,2.4599,2.4599,2.4599,2.4599,2.4356,2.3901,2.3607,2.3385,2.3252,2.3046,2.2947,2.2893,2.2893,2.3033,2.3193,2.2974,2.2893,2.2893,2.2893,2.2719,2.2565,2.284,2.2893,2.2893,2.2893,2.2893,2.2893,2.2893,2.2893,2.2893,2.2893,2.2893,2.2893,2.2893,2.2893,2.2733,2.2265,2.2151,2.2151,2.2151,2.2111,2.2071,2.2071,2.1796,2.1569,2.1502,2.106,2.0628,2.0304,2.029,2.0264,2.021,1.9983,2.0,2.0197,2.0067,2.0697,2.2168,2.2196,2.2842,2.4004,2.4661,2.5087,2.2523,2.305,2.4009,2.4492,2.4649,2.5148,0.0,0.0,2.5872,2.6859,2.6928,2.6949,2.7465,2.8185,2.9113,3.0449,3.0077,2.967,2.9921,2.8786,2.7261,2.5445,2.509,2.5063,2.5213,2.3532,2.2605,2.2974,2.2974,2.296,2.3,2.322,2.35,2.3803,2.3803,2.4035,2.4546,2.4329,2.4342,2.4599,2.4599,2.4599,2.4599,2.4599,2.4599,2.4599,2.4599,2.4599,2.4599,2.4599,2.4599,2.4599,2.4599,2.4559,2.4466,2.4209,2.3781,2.3292,2.3252,2.31,2.2893,2.2893,2.292,2.2947,2.2907,2.2893,2.2893,2.2893,2.288,2.2853,2.2893,2.2893,2.2893,2.2893,2.2893,2.2893,2.2893,2.2893,2.2893,2.2893,2.2893,2.2893,2.2893,2.2893,2.288,2.2813,2.28,2.28,2.28,2.2539,2.2378,2.2378,2.1917,2.1475,2.1189,2.1096,2.0935,2.0641,2.0628,2.0508,2.021,2.017,2.017,2.0197,2.0454,2.068,2.0906,2.1132,2.1348,2.1523,2.3065,2.4345,2.5234,2.5273,0.0,0.0,2.629,2.6783,2.72,2.7317,2.7454,2.7849,2.8232,2.8633,2.909,2.9648,3.0332,0.0,3.0137,2.9377,2.9656,2.7372,2.5279,2.426,2.3186,2.2831,2.3472,2.2691,2.2365,2.2853,2.2699,2.2686,2.288,2.3027,2.3113,2.3268,2.342,2.3714,2.4128,2.4182,2.4342,2.4599,2.4599,2.4599,2.4599,2.4599,2.4599,2.4599,2.4599,2.4599,2.4599,2.4599,2.4492,2.4382,2.4382,2.4289,2.4115,2.3995,2.3794,2.3541,2.318,2.3,2.2893,2.2893,2.3014,2.31,2.2947,2.3027,2.31,2.2947,2.2893,2.2893,2.2893,2.2893,2.2893,2.2893,2.2893,2.2893,2.2893,2.2893,2.2893,2.2893,2.2893,2.2893,2.2893,2.2893,2.2893,2.2893,2.2893,2.2893,2.2893,2.2786,2.2605,2.2432,2.2205,2.1871,2.1435,2.1395,2.1274,2.0949,2.0922,2.0869,2.0717,2.0575,2.0575,2.0704,2.0695,2.0793,2.0922,2.1056,2.1109,2.1109,2.1821,2.2381,2.6374,0.0,0.0,2.6452,2.7348,2.8117,2.75,2.8112,2.8828,2.8815,2.9442,3.0048,3.0332,3.0664,3.0869,3.086,2.9446,2.8298,2.8206,2.5392,2.3247,2.2988,2.1707,2.1176,2.1944,2.1937,2.2144,2.2733,2.2539,2.2552,2.288,2.2893,2.2934,2.3027,2.3207,2.3514,2.3924,2.4102,2.4342,2.4599,2.4599,2.4559,2.4479,2.4479,2.4519,2.4599,2.4519,2.4519,2.4586,2.4426,2.4329,2.4195,2.4115,2.3955,2.379,2.371,2.3647,2.3581,2.314,2.2974,2.2893,2.2893,2.302,2.3153,2.296,2.3054,2.3153,2.296,2.2893,2.2893,2.2893,2.2893,2.2893,2.2893,2.2893,2.2893,2.2893,2.2893,2.2893,2.2893,2.2893,2.2893,2.2893,2.2893,2.2893,2.2893,2.2893,2.2893,2.2893,2.2893,2.2786,2.2458,2.2385,2.2218,2.1743,2.1703,2.1582,2.1256,2.1229,2.1189,2.1109,2.0909,2.0895,2.1109,2.0909,2.0895,2.1109,2.1109,2.1109,2.1109,2.1109,2.1109,2.4374,0.0,2.7282,2.6033,2.7135,2.845,2.8298,2.8941,2.9665,3.0059,3.0527,3.0859,3.0859,3.0879,3.0497,2.9361,2.7672,2.6001,2.4558,2.2553,2.1078,2.0815,2.0458,2.0464,0.0,2.1435,2.1836,2.2358,2.2418,2.2552,2.288,2.2893,2.3041,2.3265,2.3292,2.3607,2.4182,2.4195,2.4342,2.4599,2.4599,2.4452,2.4222,2.4222,2.4332,2.4586,2.4342,2.4382,2.4559,2.4035,2.3955,2.4168,2.3888,2.3817,2.3777,2.3447,2.3305,2.3305,2.3278,2.3113,2.2893,2.2893,2.2907,2.2907,2.2893,2.2907,2.2907,2.2893,2.2893,2.2893,2.2893,2.2893,2.2893,2.2893,2.2893,2.2893,2.2893,2.2893,2.2893,2.2893,2.2893,2.2893,2.2893,2.2893,2.2893,2.2893,2.2893,2.2893,2.2893,2.2893,2.2786,2.2458,2.2385,2.2298,2.1991,2.201,2.1877,2.1582,2.1569,2.1435,2.1122,2.1096,2.1096,2.1109,2.1096,2.1096,2.1109,2.1109,2.1109,2.1109,2.1109,2.1109,2.5681,0.0,2.7859,2.8309,2.8825,2.9362,2.9889,3.0234,3.041,3.0234,2.9863,2.9492,2.9219,2.916,2.8874,2.7944,2.6581,2.5328,2.4324,2.2413,2.0922,2.0441,2.0468,0.0,0.0,0.0,0.0,2.2071,2.2124,2.2258,2.2552,2.2786,2.2947,2.302,2.322,2.3385,2.3585,2.3821,2.4062,2.4342,2.4342,2.4195,2.3915,2.3915,2.3968,2.4062,2.3955,2.3968,2.4048,2.3884,2.3714,2.3572,2.3514,2.3354,2.3188,2.3094,2.302,2.302,2.302,2.2987,2.2893,2.2893,2.2893,2.2893,2.2893,2.2893,2.2893,2.2893,2.2893,2.2893,2.2893,2.2893,2.2893,2.2893,2.2893,2.2893,2.2893,2.2893,2.2893,2.2893,2.2893,2.2893,2.2893,2.3033,2.3166,2.3166,2.2993,2.2893,2.2893,2.2893,2.2853,2.2726,2.2712,2.2592,2.2298,2.2271,2.2071,2.1609,2.1582,2.1448,2.1122,2.1109,2.1109,2.1109,2.1109,2.1109,2.1109,2.1109,2.1109,2.1109,2.1109,2.1109,2.6411,2.7699,2.8921,2.9728,3.0231,3.0634,3.1016,3.0996,3.0664,2.9902,2.918,2.8516,2.7949,2.747,2.6985,2.6316,2.4799,2.3614,2.3322,2.1659,2.0468,2.0401,2.0468,2.0414,0.0,0.0,0.0,2.1617,2.1871,2.2111,2.2405,2.2733,2.2893,2.2893,2.3166,2.3292,2.3292,2.3621,2.3897,2.4048,2.3941,2.3848,2.3803,2.3696,2.371,2.3803,2.3661,2.371,2.379,2.3576,2.3407,2.3278,2.3207,2.3033,2.2893,2.2893,2.2893,2.2893,2.2893,2.2893,2.2893,2.2893,2.2893,2.2893,2.2893,2.2893,2.2893,2.2893,2.2893,2.2893,2.2893,2.2893,2.2893,2.2893,2.2893,2.2893,2.2893,2.2893,2.2893,2.2893,2.2987,2.3033,2.3033,2.3193,2.3252,2.318,2.3027,2.2893,2.2893,2.2893,2.2893,2.2893,2.2893,2.2813,2.2592,2.2579,2.2365,2.193,2.189,2.1683,2.1315,2.1269,2.1216,2.1109,2.1109,2.1109,2.1109,2.1109,2.1109,2.1109,2.1109,2.1109,2.6572,2.8444,3.0411,3.0333,3.126,3.2042,3.1582,3.1133,3.043,2.9121,2.8476,2.7871,0.0,0.0,2.4949,2.4464,2.2478,2.1116,2.1525,2.0361,1.9789,0.0,0.0,0.0,0.0,0.0,0.0,2.1082,0.0,2.2111,2.2378,2.2733,2.2893,2.2893,2.3153,2.3265,2.3265,2.3594,2.3777,2.375,2.3447,2.3474,2.375,2.3434,2.346,2.375,2.342,2.346,2.371,2.3134,2.3033,2.3238,2.3014,2.2893,2.2893,2.2893,2.2893,2.2893,2.2893,2.2893,2.2893,2.2893,2.2893,2.2893,2.2893,2.2893,2.2893,2.2893,2.2893,2.2893,2.2893,2.2893,2.2893,2.2893,2.2893,2.2893,2.2893,2.2893,2.2893,2.2893,2.3113,2.3305,2.3332,2.3319,2.3247,2.3014,2.2947,2.2934,2.2893,2.2893,2.2893,2.2893,2.2893,2.2893,2.2893,2.2893,2.2773,2.2432,2.2385,2.2164,2.1636,2.1609,2.1462,2.1136,2.1136,2.1122,2.1109,2.1109,2.1109,2.1109,2.1109,2.1109,2.7861,2.9478,3.0932,3.1534,3.168,3.1582,3.1152,3.0215,2.9141,2.821,2.69,2.5479,0.0,0.0,0.0,2.1665,2.1803,0.0,2.1303,2.0894,0.0,2.0712,0.0,2.0508,2.033,2.0548,0.0,0.0,2.1657,2.2017,2.2084,2.2612,2.2893,2.2893,2.2974,2.3014,2.3014,2.3287,2.3327,2.3134,2.326,2.3247,2.3121,2.3054,2.3054,2.3121,2.3054,2.3054,2.3121,2.296,2.2947,2.3014,2.2934,2.2893,2.2893,2.2893,2.2893,2.2893,2.2893,2.2893,2.2893,2.2893,2.2893,2.2893,2.2893,2.2893,2.2893,2.2893,2.2893,2.2893,2.2893,2.2893,2.2893,2.2893,2.2893,2.2893,2.2893,2.2893,2.2893,2.2893,2.3113,2.3425,2.3901,2.3794,2.3701,2.3848,2.371,2.3415,2.296,2.2893,2.2893,2.2893,2.2893,2.2893,2.2893,2.2893,2.2773,2.2432,2.2385,2.2258,2.193,2.1903,2.177,2.1475,2.1475,2.1368,2.1109,2.1109,2.1109,2.1109,2.1109,2.1109,2.9062,3.0586,3.1797,3.212,3.2022,3.1543,3.0576,2.9453,2.8242,2.6842,2.5198,0.0,2.2262,2.1527,0.0,0.0,0.0,0.0,2.1213,2.0859,2.0615,0.0,2.0869,0.0,2.0597,2.0762,2.0935,0.0,2.1657,2.2044,2.2164,2.2653,2.2893,2.2893,2.2893,2.2893,2.2893,2.3033,2.3033,2.2893,2.3046,2.3067,2.2893,2.2893,2.2893,2.2893,0.0,2.2893,2.2893,2.2893,2.2893,2.2893,2.2893,2.2893,2.2893,2.2893,2.2893,2.2893,2.2893,2.2893,2.2893,2.2893,2.2893,2.2893,2.2893,2.2893,2.2893,2.2893,2.2893,2.2893,2.2893,2.2893,2.2893,2.2893,2.3,2.3073,2.3073,2.3201,2.3295,2.3295,2.35,2.3781,2.3981,2.391,2.3857,2.3995,2.3768,2.3447,2.3113,2.3073,2.3073,2.3073,2.3073,2.3073,2.3073,2.3073,2.2939,2.2632,2.2619,2.2485,2.2191,2.2178,2.2044,2.1783,2.1649,2.1502,2.1309,2.1176,2.1109,2.1109,2.1109,2.1109,3.0137,3.1523,3.2617,3.2296,3.2022,3.1436,2.9794,2.8555,2.7207,2.5239,0.0,2.2267,2.1159,1.9562,1.8834,2.0212,0.0,1.8632,2.1118,2.0577,2.0214,2.1015,2.1109,2.1109,2.1109,2.1109,2.1122,2.1162,2.167,2.2098,2.2352,2.2706,2.2893,2.2893,2.2893,2.2893,2.2893,2.2893,2.2893,2.2893,2.2893,2.2893,2.2893,2.2893,2.2893,2.2893,2.2893,2.2893,2.2893,2.2893,2.2893,2.2893,2.2893,2.2893,2.2893,2.2893,2.2893,2.2893,2.2893,2.2893,2.2893,2.2893,2.2893,2.2893,2.2893,2.2893,2.2893,2.2893,2.2893,2.2893,2.2893,2.2893,2.2893,2.2893,2.31,2.3292,2.3292,2.3554,2.3817,2.3857,2.4035,2.4142,2.3928,2.3884,2.3884,2.391,2.3634,2.3412,2.3412,2.3372,2.3332,2.3292,2.3332,2.338,2.338,2.3319,2.3233,2.3027,2.2934,2.28,2.2518,2.2498,2.2338,2.2044,2.1823,2.1689,2.1649,2.1341,2.1162,2.1162,2.1122,2.1109,3.1055,3.1777,3.2296,3.2218,3.1123,2.9774,2.8777,2.6738,0.0,0.0,2.295,2.1845,1.9645,1.9641,1.9666,1.8654,0.0,0.0,0.0,0.0,2.0668,0.0,0.0,0.0,0.0,0.0,0.0,0.0,2.1823,2.2004,2.2058,2.2599,2.2893,2.2893,2.2893,2.2893,2.2893,2.2893,2.2893,2.2893,2.2893,2.2893,2.2893,2.2893,2.2893,2.2893,2.2893,0.0,2.2893,2.2893,2.2893,2.2893,2.2893,2.2893,2.2893,2.2893,2.2893,2.2893,2.2893,2.2893,2.2893,2.2893,2.2893,2.2893,2.2893,2.2893,2.2893,2.2893,2.2893,2.2893,2.2893,2.2893,2.2893,2.2893,2.31,2.3292,2.3292,2.3554,2.3884,2.4075,2.4168,2.4262,2.4412,2.4289,2.4209,2.4412,2.4235,2.4048,2.4048,2.3848,2.3607,2.3319,2.3554,2.3688,2.3688,2.3474,2.3407,2.3629,2.3174,2.2953,2.3132,2.2926,2.2645,2.2352,2.2298,2.2151,2.1943,2.1649,2.1502,2.1502,2.1229,2.1109,3.1348,3.1836,3.2101,3.1651,3.0351,2.8828,2.7305,0.0,0.0,0.0,2.1174,2.0101,1.8516,0.0,0.0,1.7644,0.0,0.0,0.0,0.0,0.0,0.0,0.0,0.0,0.0,0.0,2.1162,2.1341,2.1622,2.193,2.2191,2.2653,2.2893,2.2893,2.2893,2.2893,2.2893,2.2893,2.2893,2.2893,2.2893,2.2893,2.2893,2.2893,2.2893,2.2893,2.2893,2.2893,2.2893,2.2893,2.2893,2.2893,2.2893,2.2893,2.2893,2.2893,2.2893,2.2893,2.2893,2.2893,2.2893,2.2893,2.2893,2.2893,2.2893,2.2893,2.2893,2.2893,2.3014,2.3073,2.2934,2.2979,2.306,2.2934,2.3255,2.3594,2.3754,2.4008,2.4222,2.4209,2.4329,2.4386,2.4372,2.4302,2.4302,2.4559,2.4359,2.4209,2.4209,2.4209,2.4102,2.3808,2.3915,2.3995,2.3995,2.3861,2.3781,2.3803,2.3354,2.3166,2.3278,2.3033,2.2827,2.2645,2.2498,2.2352,2.2205,2.1957,2.181,2.181,2.163,2.1563,3.1269,3.1699,3.1846,3.0957,2.9609,2.7981,2.601,2.4453,0.0,0.0,1.995,1.9012,1.7994,0.0,1.6881,0.0,1.7274,1.7916,0.0,0.0,0.0,0.0,0.0,0.0,0.0,0.0,0.0,2.1109,2.1422,2.1836,2.2392,2.2645,2.2827,2.2893,2.2893,2.2893,2.2893,2.2893,2.2893,2.2893,2.2893,2.2893,2.2893,2.2893,2.2893,2.2893,2.2893,2.2893,2.2893,2.2893,2.2893,2.2893,2.2893,2.2893,2.2893,2.2893,2.2893,2.2893,2.2893,2.2893,2.2893,2.2893,2.2893,2.2893,2.2893,2.2893,2.2893,2.2893,2.3086,2.3238,2.3033,2.314,2.3252,2.3134,2.3509,2.3941,2.4235,2.4422,2.4452,2.4329,2.4399,2.4452,2.4329,2.4302,2.4369,2.4559,2.4399,2.4302,2.4302,2.4452,2.4519,2.4315,2.4302,2.4302,2.4302,2.4235,2.4128,2.3968,2.3567,2.3345,2.3479,2.3166,2.3,2.3,2.2739,2.2545,2.2512,2.2218,2.2084,2.2071,2.2017,2.1991,3.082,3.125,3.1367,3.0488,2.8711,2.6836,2.5473,0.0,0.0,2.0819,2.0816,2.0404,1.85,1.8384,1.8164,0.0,1.6767,1.7301,0.0,0.0,0.0,0.0,0.0,0.0,0.0,2.1109,0.0,2.1109,2.1422,2.1836,2.2392,2.2445,2.2579,2.2893,2.2893,2.2893,2.2893,2.2893,2.2893,2.2893,2.2893,2.2893,2.2893,2.2893,2.2893,2.2893,2.2893,2.2893,0.0,2.2893,2.2893,2.2893,2.2893,2.2893,2.2893,2.2893,2.2893,2.2893,2.2893,2.2893,2.2893,2.2893,2.2893,2.2893,2.2893,2.2893,2.2893,2.2893,2.3086,2.3278,2.3252,2.3265,2.338,2.3669,2.3928,2.4249,2.4492,2.4372,2.4315,2.4519,2.4409,2.4315,2.4519,2.4559,2.4572,2.4599,2.4572,2.4559,2.4559,2.4586,2.4586,2.4559,2.4559,2.4559,2.4559,2.4356,2.4302,2.4506,2.3745,2.3532,2.4102,2.3581,2.3252,2.3252,2.3225,2.31,2.2853,2.2525,2.2345,2.2378,2.2111,2.1991,2.9766,3.0605,3.0937,3.0067,2.8223,2.6289,2.498,0.0,2.1164,2.0097,2.0012,1.9794,1.8752,1.81,1.7629,1.7342,1.6649,1.6567,1.7702,0.0,0.0,0.0,0.0,0.0,0.0,0.0,2.1109,2.1109,2.1216,2.1537,2.2124,2.2325,2.2472,2.2592,2.28,2.2813,2.2592,2.2813,2.2893,2.2893,2.2893,2.2893,2.2893,2.2893,2.2893,2.2893,2.2893,2.2893,0.0,2.2893,2.2893,2.2893,2.2893,2.2893,2.2893,2.2893,2.3014,2.3113,2.296,2.3014,2.3113,2.296,2.2893,2.2893,2.2893,2.2993,2.314,2.314,2.3487,2.3808,2.3634,2.3594,2.3621,2.3777,2.3995,2.4235,2.4356,2.4386,2.4466,2.4572,2.4506,2.4466,2.4572,2.4599,2.4599,2.4599,2.4599,2.4599,2.4599,2.4599,2.4599,2.4599,2.4599,2.4599,2.4599,2.4492,2.4479,2.4586,2.4106,2.3875,2.3977,2.3714,2.342,2.306,2.3233,2.318,2.2893,2.2773,2.2686,2.2719,2.2599,2.2546,2.8406,2.9551,3.0137,2.9403,2.7676,2.5859,0.0,0.0,2.0931,1.9955,1.9756,1.9627,1.922,1.8169,1.7432,1.7656,1.6622,1.6088,1.6926,1.7367,0.0,0.0,0.0,2.017,0.0,2.1002,2.1109,2.1109,2.1109,2.1363,2.1984,2.2098,2.2245,2.2371,2.2539,2.2532,2.2298,2.2579,2.276,2.276,2.2853,2.2893,2.2893,2.2893,2.2893,2.2893,2.2893,2.2893,0.0,2.2893,2.2893,2.2893,2.2893,2.2893,2.2893,2.2893,2.306,2.3265,2.3073,2.3207,2.342,2.3241,2.3108,2.3027,2.3027,2.3153,2.3292,2.3292,2.3719,2.4155,2.3991,2.3968,2.4008,2.395,2.4115,2.4329,2.4329,2.4386,2.4492,2.4586,2.4532,2.4492,2.4586,2.4599,2.4599,2.4599,2.4599,2.4599,2.4599,2.4599,2.4599,2.4599,2.4599,2.4599,2.4599,2.4599,2.4599,2.4599,2.4369,2.4155,2.4035,2.3941,2.3736,2.3308,2.3474,2.3394,2.3027,2.3027,2.2987,2.2893,2.2893,2.2893,2.668,2.7942,2.882,2.8418,2.6986,2.5367,0.0,0.0,2.1093,2.0664,2.0586,2.0465,2.0069,1.8986,1.8079,1.7764,1.6622,1.6008,1.662,1.7208,0.0,0.0,0.0,1.9599,2.0157,2.0744,2.1109,2.1109,2.1109,0.0,2.1984,2.1743,2.185,2.2371,2.2151,2.2024,2.1991,2.2271,2.2418,2.2432,2.276,2.2893,2.2893,2.2893,2.2893,2.2893,2.2893,2.2893,0.0,2.2893,2.2893,2.2893,2.2893,2.2893,2.2893,2.2893,2.306,2.3292,2.3292,2.3514,2.3803,2.3803,2.3567,2.3292,2.3292,2.3292,2.3292,2.3292,2.3719,2.4209,2.4195,2.4372,2.4519,2.4262,2.4386,2.4599,2.4599,2.4372,2.4289,2.4546,2.4409,2.4302,2.4546,2.4599,2.4599,2.4599,2.4599,2.4599,2.4599,2.4599,2.4599,2.4599,2.4599,2.4599,2.4599,2.4599,2.4599,2.4599,2.4369,2.4329,2.4572,2.4356,2.4195,2.4195,2.4195,2.3915,2.3292,2.3292,2.3166,2.2893,2.2893,2.2893,2.4046,2.5098,2.5742,2.5312,2.4375,2.3359,2.2678,2.1602,2.0762,2.0625,2.0605,2.0742,2.1226,1.96,1.8349,1.8858,1.7156,1.5941,0.0,0.0,0.0,0.0,1.984,2.0628,0.0,0.0,2.1109,2.1109,2.1109,2.1283,2.1703,2.1448,2.1523,2.2111,2.2031,2.193,2.1729,2.2178,2.2311,2.2124,2.2653,2.2786,2.2565,2.28,2.2893,2.2893,2.2893,2.2893,2.2893,2.2893,2.2893,2.2893,2.2893,2.2893,2.2893,2.2893,2.3228,2.3607,2.3394,2.3647,2.4035,2.387,2.3567,2.3292,2.3292,2.3474,2.3714,2.4079,2.4319,2.4466,2.4466,2.4532,2.4572,2.4479,2.4532,2.4599,2.4599,2.4532,2.4492,2.4586,2.4519,2.4492,2.4586,2.4599,2.4599,2.4599,2.4599,2.4599,2.4599,2.4599,2.4599,2.4599,2.4599,2.4599,2.4599,2.4599,2.4599,2.4599,2.4519,2.4412,2.4342,2.4399,2.4315,2.3915,2.4102,2.4022,2.3634,2.342,2.3273,2.318,2.3,2.3014,0.0,2.2951,2.361,2.3379,2.2793,0.0,0.0,2.1114,2.0605,2.0605,2.0605,2.0879,2.1739,1.9872,1.848,1.9358,1.7413,1.5915,0.0,0.0,0.0,0.0,0.0,0.0,0.0,2.0975,2.1109,2.1109,2.1109,2.1243,2.1569,2.1269,2.1323,2.1836,2.1743,2.1563,2.1422,2.1964,2.2111,2.1863,2.2559,2.2712,2.2398,2.276,2.2893,2.2893,2.2893,2.2893,0.0,2.2893,2.2893,2.2893,2.2893,2.2893,2.2893,2.2893,2.3281,2.3777,2.3554,2.3875,2.4315,2.4022,2.3741,2.3487,2.3487,2.3621,2.3888,2.4439,2.4599,2.4599,2.4599,2.4599,2.4599,2.4599,2.4599,2.4599,2.4599,2.4599,2.4599,2.4599,2.4599,2.4599,2.4599,2.4599,2.4599,2.4599,2.4599,2.4599,2.4599,2.4599,2.4599,2.4599,2.4599,2.4599,2.4599,2.4599,2.4599,2.4599,2.4599,2.4519,2.4369,2.4506,2.4426,2.4102,2.4275,2.4222,2.3928,2.3634,2.3487,2.3487,2.3335,2.3247,0.0,2.127,2.2166,0.0,0.0,0.0,0.0,0.0,0.0,2.0605,2.0605,2.0879,2.1739,1.9936,1.8611,1.9494,1.7553,0.0,0.0,1.7191,0.0,0.0,1.9947,0.0,2.021,2.0731,2.1109,2.1109,2.1109,2.1229,2.1542,2.1256,2.1229,2.1542,2.1256,2.1109,2.1109,2.167,2.1836,2.1569,2.2439,2.2672,2.2392,2.2746,2.2893,0.0,2.2893,2.2893,2.2893,2.2893,2.2893,2.2893,2.2893,2.2893,2.2893,2.2893,2.3281,2.3803,2.3803,2.4155,2.4546,2.4275,2.3981,2.3777,2.3803,2.3817,2.395,2.4439,2.4599,2.4599,2.4599,2.4599,2.4599,2.4599,2.4599,2.4599,2.4599,2.4599,2.4599,2.4599,2.4599,2.4599,2.4599,2.4599,2.4599,2.4599,2.4599,2.4599,2.4599,2.4599,2.4599,2.4599,2.4599,2.4599,2.4599,2.4599,2.4599,2.4599,2.4599,2.4599,2.4599,2.4599,2.4599,2.4599,2.4599,2.4452,2.4209,2.3928,2.3843,2.383,2.3817,2.3634,1.7927,0.0,1.9062,1.9062,1.922,1.9435,0.0,0.0,0.0,0.0,0.0,2.0879,2.1739,2.0631,1.985,2.0735,0.0,0.0,0.0,0.0,0.0,1.9947,2.0517,2.0691,2.025,2.0731,2.1109,2.1109,2.1109,2.1136,2.1203,2.1149,2.1149,2.1216,2.1149,2.1109,2.1109,2.1502,2.1542,2.1229,2.2098,2.2365,2.2111,2.2653,2.2893,2.2893,2.2893,2.2893,2.2893,2.2893,2.2893,2.2893,2.2893,2.2893,2.2893,2.2893,2.3281,2.3803,2.3803,2.4155,2.4519,2.4035,2.3674,2.3474,2.3736,2.3928,2.4182,2.4492,2.4599,2.4599,2.4599,2.4599,2.4599,2.4599,2.4599,2.4599,2.4599,2.4599,2.4599,2.4599,2.4599,2.4599,2.4599,2.4599,2.4599,2.4599,2.4599,2.4599,2.4599,2.4599,2.4599,2.4599,2.4599,2.4599,2.4599,2.4599,2.4599,2.4599,2.4599,2.4599,2.4599,2.4599,2.4599,2.4599,2.4599,2.4452,2.4209,2.4142,2.4102,2.4102,2.391,2.3848,1.7266,1.7832,1.8283,1.8283,1.8596,1.9025,1.9473,0.0,0.0,0.0,0.0,2.0879,2.1739,2.0421,0.0,0.0,1.8787,0.0,0.0,0.0,0.0,2.0104,2.0477,2.0664,0.0,2.0922,2.1109,2.1109,2.1109,2.1109,2.1109,2.1109,2.1109,2.1109,2.1109,2.1109,2.1109,2.1435,2.1502,2.1355,2.1924,2.2205,2.2191,2.2512,2.276,2.2893,2.2893,2.2893,2.2893,2.2893,2.2893,2.2893,2.2893,2.2893,2.2893,2.2893,2.3201,2.3581,2.3763,2.3981,2.4168,2.3714,2.3554,2.3554,2.3728,2.4062,2.4399,2.4559,2.4599,2.4599,2.4599,2.4599,2.4599,2.4599,2.4599,2.4599,2.4599,2.4599,2.4599,2.4599,2.4599,2.4599,2.4599,2.4599,2.4599,2.4599,2.4599,2.4653,2.4823,2.4679,2.4653,2.4823,2.4679,2.4599,2.4599,2.4599,2.4599,2.4599,2.4599,2.4599,2.4599,2.4599,2.4599,2.4599,2.4599,2.4519,2.4359,2.4359,2.4359,2.4396,2.4235,2.4182,1.7168,1.7932,1.8598,1.8598,1.8947,1.9413,1.9824,0.0,0.0,0.0,0.0,0.0,0.0,2.0117,0.0,0.0,0.0,0.0,0.0,1.8343,1.9078,2.0077,2.0277,0.0,2.0904,2.1056,2.1109,2.1109,2.1109,2.1109,2.1109,2.1109,2.1109,2.1109,2.1109,2.1109,2.1109,2.1395,2.1515,2.1529,2.181,2.2071,2.2352,2.2392,2.2579,2.2893,2.2893,0.0,2.2893,2.2893,2.2893,2.2893,2.2893,2.2893,2.2893,2.2893,2.306,2.3332,2.3661,2.3777,2.3696,2.3372,2.346,2.3683,2.3777,2.4115,2.4479,2.4572,2.4599,2.4599,2.4599,2.4599,2.4599,2.4599,2.4599,2.4599,2.4599,2.4599,2.4599,2.4599,2.4599,2.4599,2.4599,2.4599,2.4599,2.4599,2.4639,2.4796,2.505,2.4903,2.4863,2.5117,2.4877,2.4679,2.4733,2.4693,2.4666,2.4666,2.4626,2.4599,2.4599,2.4599,2.4599,2.4599,2.4599,2.4599,2.4599,2.4599,2.4599,2.4599,2.4599,2.4466,1.6703,1.7681,1.8598,1.8598,1.8947,1.9413,1.9824,0.0,0.0,0.0,0.0,0.0,0.0,2.1121,2.1725,0.0,0.0,1.9821,0.0,0.0,1.976,2.0157,0.0,2.0815,2.0384,2.0784,2.1109,2.1109,2.1109,2.1109,2.1109,2.1109,2.1109,2.1109,2.1109,2.1109,2.1109,2.1149,2.1176,2.1176,2.1515,2.181,2.2058,2.2311,2.2579,2.2893,0.0,2.2893,2.2893,2.2893,2.2893,2.2893,2.2893,2.2893,2.2893,2.2893,2.306,2.3332,2.3661,2.3607,2.338,2.3305,2.318,2.3134,2.3656,2.387,2.4008,2.4466,2.4599,2.4599,2.4599,2.4599,2.4599,2.4599,2.4599,2.4599,2.4599,2.4599,2.4599,2.4599,2.4599,2.4599,2.4599,2.4599,2.4599,2.4599,2.485,2.5024,2.5077,2.5251,2.5398,2.5438,2.5184,2.5117,2.5358,2.5157,2.501,2.501,2.4783,2.4599,2.4599,2.4599,2.4599,2.4599,2.4599,2.4599,2.4599,2.4599,2.4599,2.4599,2.4599,2.4572,1.6648,1.7642,1.8656,1.8908,1.9298,1.9668,0.0,0.0,0.0,0.0,0.0,0.0,0.0,0.0,2.0606,1.9498,0.0,2.0142,1.9066,1.9308,1.9733,0.0,0.0,2.0624,2.0664,2.0949,2.1109,2.1109,2.1109,2.1109,2.1109,2.1109,2.1109,2.1109,2.1109,2.1109,2.1109,2.1109,2.1189,2.1381,2.1355,2.163,2.2218,2.2191,2.2432,2.2893,0.0,2.2893,2.2893,2.2893,2.2893,2.2893,2.2893,2.2893,2.2893,2.2893,2.306,2.3292,2.3322,2.33,2.3265,2.3126,2.3241,2.3442,2.3723,2.3995,2.4289,2.4519,2.4599,2.4599,2.4599,2.4599,2.4599,2.4599,2.4599,2.4599,2.4599,2.4599,2.4599,2.4599,2.477,2.4823,2.4626,2.4733,2.4877,2.4877,2.4997,2.5235,2.5543,2.5531,2.5518,2.5518,2.5251,2.513,2.5264,2.5157,2.5115,2.5115,2.4796,2.4599,2.4599,2.4599,2.4599,2.4599,2.4599,2.4599,2.4599,2.4599,2.4599,2.4599,2.4599,2.4599,1.6668,1.7564,1.8576,1.9023,0.0,0.0,0.0,0.0,0.0,0.0,0.0,0.0,0.0,2.0865,0.0,1.8717,1.9576,2.0082,1.9157,1.9415,1.9896,2.0344,2.041,2.0584,2.1069,2.1109,2.1109,2.1109,2.1109,2.1109,2.1109,2.1109,2.1109,2.1109,2.1109,2.1109,2.1109,2.1109,2.1229,2.1475,2.1216,2.1496,2.2205,2.1991,2.2198,2.2693,2.276,2.276,2.2706,2.284,2.2853,2.28,2.2867,2.2893,2.2893,2.2893,2.3041,2.318,2.2974,2.302,2.3193,2.3033,2.3322,2.3688,2.387,2.4182,2.4519,2.4586,2.4599,2.4599,2.4599,2.4599,2.4599,2.4599,2.4599,2.4599,2.4599,2.4599,2.4599,2.4599,2.4877,2.501,2.4746,2.4983,2.5184,2.5184,2.5275,2.5489,2.5931,2.5812,2.5718,2.5718,2.5451,2.5329,2.5329,2.5329,2.5288,2.5184,2.4903,2.4679,2.4599,2.4666,2.4666,2.4599,2.4599,2.4599,2.4599,2.4599,2.4599,2.4599,2.4599,2.4599,1.6605,1.7366,1.8147,1.8557,1.9279,0.0,2.0917,2.1425,0.0,2.1857,0.0,0.0,0.0,2.0572,2.0565,2.1302,2.0993,2.0658,2.0544,0.0,2.0695,2.1002,2.1042,2.1056,2.1109,2.1109,2.1109,2.1109,2.1109,2.1109,2.1109,2.1109,2.1109,2.1109,2.1109,2.1109,2.1109,2.1109,2.1122,2.1149,2.1122,2.1283,2.1649,2.1622,2.1783,2.2091,2.2338,2.2298,2.2131,2.2666,2.2733,2.2472,2.2786,2.2893,2.2893,2.2893,2.2907,2.292,2.2907,2.2907,2.2974,2.3207,2.3292,2.3425,2.4008,2.4195,2.4289,2.4519,2.4599,2.4599,2.4599,2.4599,2.4599,2.4599,2.4599,2.4599,2.4599,2.4599,2.4599,2.4599,2.4877,2.5077,2.5088,2.5291,2.5478,2.5478,2.5757,2.5944,2.5998,2.6212,2.6333,2.6333,2.6105,2.5931,2.5931,2.5931,2.581,2.5504,2.5211,2.493,2.4613,2.4903,2.4917,2.4599,2.4599,2.4599,2.4599,2.4599,2.4599,2.4599,2.4599,2.4599,1.7012,1.7737,1.8479,1.8908,1.9454,0.0,0.0,2.1757,2.2344,2.2638,2.3381,0.0,0.0,0.0,2.0921,2.0845,2.0571,2.0372,2.0395,2.0722,2.0989,2.1096,2.1109,2.1109,2.1109,2.1109,2.1109,2.1109,2.1109,2.1109,2.1109,2.1109,2.1109,2.1109,2.1109,2.1109,2.1109,2.1109,2.1109,2.1109,2.1109,2.1269,2.1582,2.1582,2.1743,2.2024,2.2098,2.2084,2.2017,2.2418,2.2512,2.2411,2.2786,2.2893,2.2893,2.2893,2.2893,2.2893,2.2893,2.2893,2.292,2.3027,2.33,2.3647,2.3861,2.4182,2.4452,2.4572,2.4599,2.4599,2.4599,2.4599,2.4599,2.4599,2.4599,2.4599,2.4599,2.4746,2.4863,2.4639,2.517,2.5543,2.5144,2.5516,2.5824,2.5824,2.5931,2.6065,2.6238,2.6319,2.6253,2.5879,2.5745,2.5758,2.5984,2.5998,2.5864,2.5531,2.5411,2.5224,2.493,2.5024,2.5024,2.4917,2.4693,2.4693,2.4917,2.4693,2.4693,2.4903,2.4679,2.4599,1.7266,1.7991,1.8715,1.918,0.0,0.0,2.1522,2.2381,2.3047,2.3499,2.4023,2.4206,2.3634,0.0,0.0,0.0,2.0457,2.013,2.0317,2.0722,2.1002,2.1096,2.1109,2.1109,2.1109,2.1109,2.1109,2.1109,2.1109,2.1109,2.1109,2.1109,2.1109,2.1109,2.1109,2.1109,2.1109,2.1109,2.1109,2.1109,2.1109,2.1216,2.1448,2.1448,2.1555,2.171,2.1836,2.179,2.1737,2.2124,2.2285,2.2311,2.2605,2.276,2.276,2.2867,2.2893,2.2893,2.2893,2.2893,2.292,2.3014,2.3388,2.383,2.391,2.4249,2.4599,2.4599,2.4599,2.4599,2.4599,2.4599,2.4599,2.4599,2.4599,2.4599,2.4599,2.4796,2.4903,2.4796,2.5344,2.5757,2.5449,2.581,2.6131,2.6131,2.6131,2.6198,2.636,2.6386,2.6239,2.5838,2.5785,2.5879,2.6118,2.6131,2.6011,2.5678,2.5745,2.5571,2.5141,2.5302,2.5302,2.5077,2.4877,2.4877,2.5115,2.4746,2.4783,2.5077,2.477,2.4599,1.7282,1.7991,1.8715,0.0,0.0,0.0,2.2732,2.3454,2.3906,2.4313,2.441,2.4528,2.5024,2.3019,0.0,2.2182,2.09,2.0,2.0619,2.0699,2.0775,2.1069,2.1109,2.1109,2.1109,2.1109,2.1109,2.1096,2.1096,2.1109,2.1109,2.1109,2.1109,2.1109,2.1109,2.1109,2.1109,2.1109,2.1109,2.1109,2.1109,2.1109,2.1109,2.1109,2.1109,2.1122,2.1448,2.1422,2.1149,2.1737,2.1991,2.2017,2.2311,2.2385,2.2458,2.2786,2.2893,2.2893,2.2893,2.2893,2.2947,2.322,2.3527,2.3857,2.4115,2.4396,2.4599,2.4599,2.4599,2.4599,2.4599,2.4599,2.4599,2.4599,2.4599,2.4599,2.4599,2.4599,2.4693,2.5024,2.5317,2.5611,2.5944,2.6238,2.6386,2.6386,2.6386,2.6386,2.6386,2.6386,2.6386,2.6386,2.6386,2.6386,2.6386,2.6386,2.6305,2.6011,2.6265,2.5999,2.5117,2.569,2.5717,2.5128,2.5115,2.5115,2.5077,2.4746,2.4759,2.5115,2.4783,2.4599,1.7715,1.8205,0.0,1.9532,0.0,0.0,0.0,2.322,0.0,0.0,2.4495,2.4244,2.5727,2.3066,0.0,2.2236,2.0956,1.9867,2.004,2.0241,2.0468,2.0775,2.0802,2.0802,2.0802,2.0802,2.0722,2.0477,2.0695,2.0802,2.0802,2.1002,2.1109,2.1109,2.1109,2.1109,2.1109,2.1109,2.1109,2.1109,2.1109,2.1109,2.1109,2.1109,2.1109,2.1109,2.1203,2.1189,2.1136,2.1555,2.1957,2.2298,2.2392,2.2552,2.2773,2.2867,2.2893,2.2893,2.2893,2.2893,2.2907,2.3,2.3207,2.3474,2.3532,2.3941,2.4329,2.4329,2.4439,2.4599,2.4599,2.4599,2.4599,2.4599,2.4599,2.4599,2.4599,2.4796,2.497,2.5064,2.5529,2.5891,2.5984,2.6238,2.6386,2.6386,2.6386,2.6386,2.6386,2.6252,2.6198,2.6373,2.6238,2.6212,2.6373,2.6386,2.6305,2.6011,2.6265,2.6186,2.5757,2.5904,2.581,2.5384,2.5184,2.5184,2.5384,2.4839,2.4853,2.5371,2.4826,2.4599,1.7835,1.842,0.0,1.9727,2.0625,2.1699,2.3064,0.0,0.0,0.0,2.5743,2.5125,2.5868,2.3361,0.0,2.1771,2.0615,1.9666,1.9786,1.9947,2.0174,2.0468,2.0494,2.0494,2.0494,2.0494,2.0428,2.0224,2.0508,2.0628,2.0508,2.0882,2.1056,2.0935,2.1042,2.1109,2.1109,2.1109,2.1109,2.1109,2.1109,2.1109,2.1109,2.1109,2.1109,2.1109,2.1109,2.1109,2.1122,2.1328,2.1577,2.1924,2.2151,2.2352,2.2572,2.2813,2.2893,2.2893,2.2893,2.2893,2.2893,2.2893,2.3073,2.3292,2.3292,2.3741,2.4209,2.4209,2.4372,2.4599,2.4599,2.4599,2.4599,2.4599,2.4599,2.4599,2.4599,2.4783,2.497,2.5211,2.5531,2.5891,2.6131,2.6279,2.6386,2.6386,2.6386,2.6386,2.6386,2.6279,2.6238,2.6373,2.6279,2.6238,2.6373,2.6386,2.6319,2.6185,2.6293,2.6306,2.6172,2.6172,2.6024,2.5692,2.5398,2.5398,2.5692,2.5104,2.505,2.5504,2.5037,2.4719,1.7776,0.0,0.0,1.9863,2.1327,0.0,2.3711,2.5219,2.6724,2.7832,0.0,2.6614,2.5645,2.3788,2.2084,2.112,2.0074,1.9495,1.972,1.976,1.9867,2.013,2.0157,2.0157,2.0157,2.0157,2.0157,2.013,2.0428,2.0481,2.0184,2.0748,2.0949,2.0712,2.0935,2.1082,2.1109,2.1056,2.1056,2.1109,2.1082,2.1082,2.1109,2.1109,2.1109,2.1109,2.1109,2.1109,2.1109,2.1109,2.1122,2.1203,2.1737,2.1977,2.2084,2.2653,2.288,2.2893,2.2893,2.2893,2.2893,2.2893,2.306,2.3252,2.3252,2.3701,2.4168,2.4168,2.4359,2.4599,2.4599,2.4599,2.4599,2.4599,2.4599,2.4599,2.4599,2.4599,2.4759,2.5358,2.5491,2.5692,2.6253,2.6373,2.6386,2.6386,2.6386,2.6386,2.6386,2.6386,2.6386,2.6386,2.6386,2.6386,2.6386,2.6386,2.6386,2.6386,2.6386,2.6386,2.6386,2.6386,2.6253,2.5998,2.5665,2.5665,2.5998,2.5409,2.5224,2.5504,2.5211,2.4917,1.7932,1.8633,0.0,0.0,2.2227,2.4141,2.4691,2.5649,2.6367,2.6284,2.6291,2.6234,2.5983,2.3668,2.1729,2.1494,2.03,1.9415,1.9481,1.9495,1.9602,1.9853,1.9893,1.9893,1.9893,1.9893,1.98,1.9602,1.9826,1.996,1.9893,2.0454,2.0766,2.0712,2.0766,2.0882,2.1109,2.0624,2.0624,2.1109,2.0882,2.0895,2.1109,2.1109,2.1109,2.1109,2.1109,2.1109,2.1109,2.1109,2.1243,2.1502,2.1622,2.1924,2.2338,2.2472,2.2659,2.2893,2.2893,2.2893,2.2893,2.2893,2.2947,2.3,2.3,2.3415,2.3897,2.3897,2.4235,2.4599,2.4599,2.4599,2.4599,2.4599,2.4599,2.4599,2.4599,2.4599,2.4706,2.5104,2.5358,2.5625,2.6024,2.6279,2.6386,2.6386,2.6386,2.6386,2.6386,2.6386,2.6386,2.6386,2.6386,2.6386,2.6386,2.6386,2.6386,2.6386,2.6386,2.6386,2.6386,2.6386,2.6253,2.5998,2.5665,2.5665,2.5998,2.5409,2.5224,2.5504,2.5211,2.4917,1.7949,0.0,0.0,2.1153,0.0,2.4238,2.4668,2.5449,2.6016,2.5757,2.6327,2.6439,2.4971,2.4204,2.3067,2.0902,2.0472,2.0199,1.9504,1.9401,1.9455,1.9573,1.9629,1.9629,1.9629,1.9629,1.9562,1.9401,1.9639,1.9733,1.9629,2.0147,2.0401,2.0254,2.0388,2.0535,2.0664,2.0521,2.0521,2.0664,2.0828,2.0962,2.1109,2.1109,2.1109,2.1109,2.1109,2.1109,2.1109,2.1109,2.1203,2.1381,2.1529,2.177,2.2031,2.2311,2.2512,2.2672,2.2853,2.2893,2.2893,2.2893,2.2893,2.2893,2.2893,2.3228,2.3594,2.3763,2.4088,2.4426,2.4559,2.4599,2.4599,2.4599,2.4599,2.4599,2.4599,2.4599,2.4693,2.5024,2.5317,2.5611,2.5944,2.6238,2.6386,2.6386,2.6386,2.6386,2.6386,2.6386,2.6386,2.6386,2.6386,2.6386,2.6386,2.6386,2.6386,2.6386,2.6386,2.6386,2.6386,2.6386,2.6319,2.6198,2.5732,2.5665,2.5998,2.5504,2.5371,2.5518,2.5504,2.5344,1.7944,0.0,1.9902,2.1992,2.3105,0.0,2.4219,2.4957,2.5601,2.5601,2.6641,2.6657,2.3671,2.4642,2.4429,2.0043,2.053,2.1001,1.962,1.9401,1.9401,1.9401,1.9401,1.9401,1.9401,1.9401,1.9401,1.9401,1.9615,1.9626,1.9415,1.9867,2.0024,1.9813,2.004,2.0157,2.0197,2.0374,2.0374,2.021,2.0744,2.1029,2.1042,2.1082,2.1109,2.1109,2.1109,2.1109,2.1109,2.1109,2.1109,2.1136,2.1408,2.1542,2.1649,2.2151,2.2378,2.2458,2.2786,2.2893,2.2893,2.2893,2.2893,2.2893,2.2893,2.3086,2.3345,2.3621,2.3941,2.4262,2.4466,2.4559,2.4599,2.4599,2.4599,2.4599,2.4599,2.4599,2.4679,2.4957,2.5277,2.5611,2.5944,2.6238,2.6386,2.6386,2.6386,2.6386,2.6386,2.6386,2.6386,2.6386,2.6386,2.6386,2.6386,2.6386,2.6386,2.6386,2.6386,2.6386,2.6386,2.6386,2.6386,2.6386,2.5865,2.5732,2.6078,2.5732,2.5585,2.5598,2.5877,2.5837,0.0,0.0,2.0235,0.0,2.2891,2.3381,0.0,0.0,2.518,0.0,2.6191,2.6222,2.3294,2.3981,2.3667,1.9625,2.009,2.0626,1.955,1.9401,1.9401,1.9401,1.9401,1.9401,1.9401,1.9401,1.9401,1.9401,1.9428,1.9441,1.9401,1.9679,1.984,1.98,1.984,1.9943,2.0197,1.9773,1.9773,2.021,2.0575,2.0766,2.0766,2.0989,2.1109,2.1109,2.1109,2.1109,2.1109,2.1109,2.1109,2.1109,2.1149,2.1323,2.1622,2.1957,2.2205,2.2458,2.2786,2.2893,2.2893,2.2893,2.2893,2.2893,2.2893,2.3086,2.3305,2.3345,2.3781,2.4209,2.4249,2.4412,2.4599,2.4599,2.4599,2.4599,2.4599,2.4599,2.4613,2.4653,2.5144,2.5611,2.5944,2.6238,2.6386,2.6386,2.6386,2.6386,2.6386,2.6386,2.6386,2.6386,2.6386,2.6386,2.6386,2.6386,2.6386,2.6386,2.6386,2.6386,2.6386,2.6386,2.6386,2.6386,2.6105,2.6078,2.6333,2.6078,2.5931,2.5931,2.5971,2.5837,1.8699,1.9297,2.0196,0.0,2.2305,2.2852,2.3027,0.0,2.4437,2.4648,2.4731,2.4277,2.2656,2.3774,2.3542,1.9362,2.0481,2.1273,1.9379,1.8985,1.9027,1.9361,1.9225,1.9185,1.9388,1.9401,1.9401,1.9401,1.9401,1.9401,1.9401,1.9522,1.9589,1.9589,1.9589,1.9626,1.9746,1.9653,1.9813,2.0197,2.033,2.0508,2.0712,2.0975,2.1109,2.1109,2.1109,2.1109,2.1109,2.1109,2.1109,2.1109,2.1109,2.1189,2.1368,2.1662,2.185,2.1977,2.2305,2.2472,2.2619,2.2619,2.276,2.2893,2.2893,2.2987,2.31,2.3273,2.3634,2.3995,2.4155,2.4386,2.4599,2.4599,2.4599,2.4599,2.4599,2.4599,2.4693,2.5026,2.5211,2.5464,2.6092,2.6212,2.6238,2.636,2.6386,2.6386,2.6386,2.6386,2.6386,2.6386,2.6386,2.6386,2.6386,2.6386,2.6386,2.6386,2.6386,2.6386,2.6386,2.6386,2.6386,2.6386,2.6145,2.5971,2.5892,2.5772,2.5705,2.5718,2.5917,2.6011,0.0,0.0,1.9981,2.0976,2.1698,2.2225,0.0,0.0,2.375,0.0,2.3264,2.2264,2.1884,2.3375,2.3392,1.9533,2.0952,2.1786,1.9612,1.8901,1.8731,1.9134,1.9078,1.9092,1.9267,1.9348,1.9401,1.9401,1.9401,1.9401,1.9401,1.9401,1.9401,1.9401,1.9401,1.9401,1.9401,1.9615,1.98,2.0013,2.0064,2.025,2.0575,2.0869,2.1042,2.1109,2.1109,2.1109,2.1109,2.1109,2.1109,2.1109,2.1109,2.1109,2.1149,2.1475,2.1582,2.1622,2.1917,2.2124,2.2325,2.2392,2.2565,2.28,2.288,2.2893,2.2947,2.314,2.342,2.3728,2.4022,2.4302,2.4506,2.4586,2.4599,2.4599,2.4599,2.4599,2.4746,2.5304,2.5291,2.5424,2.6159,2.6198,2.6185,2.636,2.6386,2.6386,2.6386,2.6386,2.6386,2.6386,2.6386,2.6386,2.6386,2.6386,2.6386,2.6386,2.6386,2.6386,2.6386,2.6386,2.6386,2.6386,2.6212,2.5957,2.5625,2.5625,2.5625,2.5625,2.5971,2.6225,0.0,1.9315,0.0,2.0898,2.1229,0.0,0.0,0.0,2.3342,2.3753,2.217,2.0791,2.1024,2.2552,2.2958,2.0434,2.1207,2.1739,2.0584,1.9542,1.8811,1.8571,1.904,1.9267,1.8971,1.9199,1.9401,1.9401,1.9401,1.9401,1.9401,1.9401,1.9401,1.9401,1.9401,1.9401,1.9401,1.9415,1.9428,1.9441,1.9693,1.9973,2.0237,2.0561,2.0855,2.1109,2.1109,2.1109,2.1109,2.1109,2.1109,2.1109,2.1109,2.1109,2.1149,2.1475,2.1582,2.1622,2.1917,2.1991,2.2058,2.2325,2.2398,2.2498,2.2813,2.2893,2.2893,2.292,2.3113,2.3385,2.3714,2.4008,2.4289,2.4532,2.4599,2.4599,2.4599,2.4599,2.4693,2.5037,2.5304,2.5598,2.5957,2.6238,2.6373,2.6386,2.6386,2.6386,2.6386,2.6386,2.6386,2.6386,2.6386,2.6386,2.6386,2.6386,2.6386,2.6386,2.6386,2.6386,2.6386,2.6386,2.6386,2.6386,2.6373,2.6265,2.5971,2.5971,2.5971,2.5984,2.6265,2.6373,0.0,0.0,0.0,2.0625,2.0996,2.1366,2.1973,2.2441,2.2949,2.3652,2.2502,2.1491,2.1826,2.2021,2.1603,2.0033,2.0933,2.1457,2.0389,1.8981,1.817,1.8464,1.8504,1.8557,1.8637,1.8918,1.9078,1.9078,1.9294,1.9308,1.9092,1.9294,1.9308,1.9092,1.9294,1.9401,1.9401,1.9401,1.9401,1.9401,1.9666,1.9853,1.9973,2.0454,2.0628,2.053,2.0949,2.1109,2.1109,2.1109,2.1109,2.1109,2.1109,2.1109,2.1122,2.1229,2.1269,2.1283,2.139,2.155,2.1783,2.2044,2.2271,2.2472,2.2813,2.2893,2.2893,2.2893,2.3255,2.3634,2.3777,2.4128,2.4466,2.4572,2.4599,2.4599,2.4599,2.4783,2.501,2.5304,2.5438,2.5665,2.6185,2.6198,2.6212,2.636,2.6386,2.6386,2.6386,2.6386,2.6386,2.6386,2.6386,2.6386,2.6386,2.6386,2.6386,2.6386,2.6386,2.6386,2.6386,2.6386,2.6386,2.6386,2.6026,2.5865,2.5998,2.5758,2.5772,2.5998,2.5865,2.6026,1.9708,0.0,0.0,0.0,0.0,2.1268,2.1581,0.0,2.2654,2.3242,2.2434,2.1751,2.2123,2.18,2.1307,2.0818,2.115,2.1264,2.0706,1.8962,1.7849,1.8143,1.8196,1.8209,1.833,1.8611,1.8784,1.8784,1.8958,1.8985,1.8784,1.9052,1.9132,1.8903,1.9118,1.9225,1.9225,1.9348,1.9401,1.9401,1.9589,1.9706,1.9813,2.0201,2.0334,2.0224,2.0748,2.0962,2.0975,2.1069,2.1109,2.1109,2.1109,2.1109,2.1109,2.1109,2.1109,2.1109,2.1109,2.1243,2.1489,2.1783,2.2031,2.2325,2.2653,2.2813,2.2893,2.2893,2.3188,2.3522,2.3594,2.4048,2.4479,2.4572,2.4599,2.4599,2.4599,2.4759,2.5024,2.5304,2.5371,2.5558,2.6146,2.6118,2.6091,2.6346,2.6386,2.6386,2.6386,2.6386,2.6386,2.6386,2.6386,2.6386,2.6386,2.6386,2.6386,2.6386,2.6386,2.6386,2.6386,2.6386,2.6386,2.6386,2.6012,2.5905,2.6145,2.5705,2.5665,2.5998,2.5852,2.6012,0.0,0.0,0.0,0.0,0.0,0.0,2.121,0.0,2.2479,2.2498,2.1901,2.145,2.1774,2.1938,2.226,2.2901,2.1884,2.1139,2.1602,1.9582,1.7943,1.7622,1.8157,1.8371,1.8009,1.8303,1.8477,1.8477,1.849,1.849,1.8477,1.8744,1.8876,1.8876,1.889,1.889,1.889,1.9225,1.9401,1.9401,1.9401,1.9548,1.9786,1.98,1.9947,2.0197,2.0535,2.0699,2.0712,2.0989,2.1109,2.1109,2.1109,2.1109,2.1109,2.1109,2.1109,2.1109,2.1109,2.1109,2.1162,2.1489,2.1783,2.2044,2.2338,2.2619,2.2893,2.2893,2.2907,2.2987,2.3238,2.3781,2.4275,2.4532,2.4599,2.4599,2.4599,2.4599,2.4693,2.5024,2.5128,2.5315,2.5891,2.5998,2.6091,2.6346,2.6386,2.6386,2.6386,2.6386,2.6386,2.6386,2.6386,2.6386,2.6386,2.6386,2.6386,2.6386,2.6386,2.6386,2.6386,2.6386,2.6386,2.6386,2.6386,2.6386,2.6386,2.5812,2.5678,2.6011,2.6305,2.6386,2.0483,0.0,0.0,0.0,0.0,0.0,0.0,0.0,2.2227,2.281,2.2763,2.2618,2.2729,2.277,2.2965,2.3477,2.1978,2.0826,2.1147,1.9852,1.8565,1.77,1.8601,1.8883,1.7822,1.7956,1.8143,0.0,1.837,1.8397,1.8156,1.8223,1.8356,1.8597,1.8783,1.889,1.889,1.9225,1.9401,1.9401,1.9401,1.9441,1.9522,1.9706,1.9733,1.9639,2.0391,2.0548,2.0401,2.0895,2.1109,2.1109,2.1109,2.1109,2.1109,2.1109,2.1109,2.1109,2.1109,2.1109,2.1162,2.1489,2.1783,2.2044,2.2338,2.2619,2.2893,2.2893,2.302,2.3313,2.3834,2.4088,2.4275,2.4532,2.4599,2.4599,2.4599,2.4599,2.4693,2.5024,2.5251,2.5518,2.5931,2.5998,2.6091,2.6346,2.6386,2.6386,2.6386,2.6386,2.6386,2.6386,2.6386,2.6386,2.6386,2.6386,2.6386,2.6386,2.6386,2.6386,2.6386,2.6386,2.6386,2.6386,2.6225,2.6225,2.6386,2.6051,2.6024,2.6266,2.636,2.6386,0.0,0.0,0.0,0.0,0.0,0.0,2.1739,2.2031,2.2285,0.0,2.2984,2.3101,2.3101,2.3101,2.3201,2.3454,2.2044,2.1045,2.1521,2.0508,1.952,1.9067,1.9095,1.8946,1.8485,1.7978,1.7702,1.7809,1.8009,1.809,1.7995,1.7902,1.7969,1.8263,1.8436,1.8529,1.8529,1.8971,1.9185,1.9185,1.9334,1.9401,1.9401,1.9575,1.9562,1.9428,2.007,2.0214,2.0064,2.0681,2.1002,2.1109,2.1109,2.1109,2.1109,2.1109,2.1109,2.1109,2.1109,2.1109,2.1136,2.1341,2.1676,2.2017,2.2191,2.2572,2.2893,2.2893,2.2993,2.3247,2.3714,2.3928,2.4102,2.4382,2.4519,2.4599,2.4599,2.4599,2.4653,2.4863,2.5037,2.5237,2.5583,2.573,2.5904,2.6198,2.6319,2.6386,2.6386,2.6386,2.6386,2.6386,2.6386,2.6386,2.6386,2.6386,2.6386,2.6386,2.6386,2.6386,2.6386,2.6386,2.6386,2.6386,2.6265,2.6265,2.6386,2.6131,2.6078,2.6238,2.6079,2.6092,0.0,0.0,0.0,0.0,0.0,0.0,2.1855,2.2246,2.2498,0.0,2.2849,2.3101,2.3101,2.3101,2.3101,2.3101,2.2186,2.1708,2.2236,2.1309,2.0676,2.0901,1.9742,1.9128,1.9642,1.8446,1.7647,1.7697,1.762,1.7662,1.7956,1.7729,1.7716,1.7956,1.7969,1.7995,1.7995,1.8609,1.889,1.8903,1.9225,1.9401,1.9401,1.9401,1.9401,1.9415,1.9679,1.98,1.984,2.0441,2.0828,2.1069,2.1096,2.1109,2.1109,2.1109,2.1109,2.1109,2.1109,2.1109,2.1109,2.1149,2.151,2.1984,2.2017,2.2425,2.2853,2.288,2.2893,2.2974,2.3247,2.3527,2.3794,2.4088,2.4356,2.4519,2.4546,2.4559,2.4559,2.4586,2.4599,2.4693,2.5024,2.5291,2.5571,2.5944,2.6212,2.636,2.6386,2.6386,2.6386,2.6386,2.6386,2.6386,2.6386,2.6386,2.6386,2.6386,2.6386,2.6386,2.6386,2.6386,2.6386,2.6386,2.6386,2.6386,2.6386,2.6131,2.5998,2.5984,2.5882,2.5895,0.0,0.0,0.0,0.0,0.0,0.0,2.2305,2.244,2.2596,0.0,2.3042,2.3101,2.3101,2.3101,2.3101,2.3101,2.2906,2.2529,2.201,2.1787,2.1397,2.0611,2.1172,2.1261,2.0329,2.0243,1.9704,1.8417,1.7675,1.7394,1.7662,1.7635,1.7609,1.7675,1.7889,1.7995,1.7995,1.8609,1.889,1.8903,1.9225,1.9401,1.9401,1.9401,1.9401,1.9415,1.9679,1.98,1.984,2.0441,2.0739,2.0788,2.1015,2.1109,2.1109,2.1109,2.1109,2.1109,2.1109,2.1109,2.1149,2.1422,2.1582,2.1756,2.2191,2.2418,2.2552,2.2827,2.2893,2.2974,2.3247,2.3332,2.3487,2.3781,2.3937,2.4008,2.4235,2.4289,2.4356,2.4559,2.4599,2.4693,2.5024,2.513,2.5382,2.5917,2.6038,2.6172,2.636,2.6386,2.6386,2.6386,2.6386,2.6386,2.6386,2.6386,2.6386,2.6386,2.6386,2.6386,2.6386,2.6386,2.6386,2.6386,2.6386,2.6386,2.6386,2.6131,2.5998,2.6023,2.7254,2.7169,0.0,0.0,0.0,2.3084,0.0,0.0,0.0,2.2635,2.2615,2.3003,2.3101,2.3101,2.3101,2.3101,2.3101,2.3101,2.3101,2.294,2.2528,2.2501,2.2448,2.2126,2.1954,2.1735,2.1438,2.081,1.9918,1.8607,1.8243,1.7888,1.7433,1.7528,1.7608,1.7608,1.7729,1.7782,1.7782,1.8236,1.8529,1.8704,1.9011,1.9254,1.9401,1.9401,1.9401,1.9401,1.9548,1.9615,1.9626,2.0214,2.0454,2.0494,2.0935,2.1109,2.1109,2.1109,2.1109,2.1109,2.1109,2.1109,2.1136,2.1315,2.1462,2.1662,2.2071,2.2405,2.2672,2.2853,2.2893,2.2934,2.306,2.3207,2.3332,2.3514,2.3661,2.3884,2.4142,2.4209,2.4289,2.4546,2.4599,2.4653,2.4836,2.4983,2.5262,2.5665,2.5904,2.6105,2.636,2.6386,2.6386,2.6386,2.6386,2.6386,2.6386,2.6386,2.6386,2.6386,2.6386,2.6386,2.6386,2.6386,2.6386,2.6386,2.6386,2.6319,2.6212,2.6856,2.7201,2.7225,2.8932,2.9226,0.0,0.0,0.0,0.0,0.0,2.3966,0.0,0.0,0.0,2.3088,2.3101,2.3101,2.3101,2.3101,2.3101,2.3101,0.0,0.0,0.0,2.3101,0.0,2.3633,2.2459,2.1888,2.2477,2.1252,2.009,1.931,1.9353,1.8842,1.752,1.7717,1.775,1.7528,1.7582,1.7608,1.7608,1.7862,1.8169,1.849,1.8756,1.9078,1.9401,1.9401,1.9401,1.9401,1.9401,1.9401,1.9441,2.0,2.0197,2.0264,2.0851,2.1109,2.1109,2.1109,2.1109,2.1109,2.1109,2.1109,2.1122,2.1176,2.139,2.1703,2.1877,2.2345,2.2813,2.2813,2.2853,2.2893,2.2893,2.3046,2.3233,2.3233,2.342,2.3723,2.4048,2.4115,2.4222,2.4532,2.4599,2.4599,2.4599,2.4836,2.509,2.5384,2.5638,2.5931,2.6186,2.6266,2.6306,2.6306,2.636,2.6386,2.6386,2.6386,2.6386,2.6386,2.6386,2.6386,2.6386,2.6386,2.6386,2.6386,2.6768,2.6881,2.6649,2.8655,2.9166,2.8335,3.0466,3.1217,0.0,0.0,0.0,0.0,2.6205,0.0,0.0,0.0,2.4277,2.3299,0.0,2.3101,2.3101,0.0,0.0,0.0,0.0,0.0,2.3101,2.3101,2.312,2.3159,2.3011,2.2923,2.2997,2.2566,2.2197,2.1972,2.1331,2.0178,1.8459,1.8653,1.836,1.7272,1.7474,1.7608,1.7608,1.7862,1.8169,1.849,1.8756,1.9078,1.9401,1.9401,1.9401,1.9401,1.9401,1.9401,1.9441,2.0,2.0197,2.0264,2.0851,2.1109,2.1109,2.1109,2.1109,2.1109,2.1109,2.1109,2.1149,2.1448,2.1729,2.193,2.1703,2.2037,2.2472,2.2472,2.2659,2.2893,2.2893,2.292,2.2947,2.2947,2.2974,2.3161,2.3736,2.3857,2.3981,2.4492,2.4599,2.4599,2.4599,2.4626,2.4783,2.509,2.5195,2.5277,2.5571,2.5838,2.6051,2.6051,2.6279,2.6386,2.6386,2.6386,2.6386,2.6386,2.6386,2.6386,2.6386,2.6386,2.6386,2.6386,2.814,2.9046,2.9001,3.2471,3.2027,2.8029,3.1377,3.2383,0.0,0.0,0.0,0.0,0.0,0.0,2.5901,0.0,2.5651,0.0,0.0,0.0,0.0,0.0,0.0,0.0,2.3539,0.0,0.0,0.0,2.3101,2.3101,0.0,0.0,2.3101,2.3201,2.286,2.1848,2.1843,2.0845,1.8387,1.8716,1.8455,1.7257,1.7461,1.7608,1.7608,1.7862,1.8169,1.849,1.8756,1.9078,1.9401,1.9401,1.9401,1.9401,1.9401,1.9495,1.9653,2.0037,2.0304,2.0535,2.0949,2.1109,2.1109,2.1109,2.1109,2.1109,2.1109,2.1109,2.1136,2.1256,2.1529,2.1743,2.1622,2.1951,2.2385,2.2385,2.2632,2.2893,2.2893,2.2893,2.2893,2.2893,2.2893,2.3364,2.5058,2.4557,2.43,2.5951,2.5382,2.4599,2.4599,2.4599,2.4693,2.5037,2.5115,2.5184,2.5478,2.5772,2.5998,2.5998,2.6252,2.6886,2.8036,2.7083,2.6886,2.8076,2.7044,2.6925,2.8115,2.8154,2.8725,2.9913,3.0785,3.1001,3.0573,3.3208,3.33,3.1021,3.3915,3.496,2.9189,0.0,0.0,0.0,0.0,0.0,0.0,0.0,0.0,0.0,0.0,0.0,0.0,0.0,2.5273,0.0,0.0,2.3562,0.0,2.3299,0.0,0.0,0.0,0.0,0.0,2.4102,2.3817,2.2121,2.2796,2.2037,1.913,1.9228,1.8814,1.7606,1.759,1.7608,1.7608,1.7782,1.8116,1.849,1.8704,1.8998,1.9401,1.9401,1.9401,1.9401,1.9401,1.9562,1.9826,2.0077,2.0401,2.0739,2.1002,2.1109,2.1109,2.1109,2.1109,2.1109,2.1109,2.1109,2.1109,2.1109,2.1256,2.1462,2.1462,2.183,2.2298,2.2298,2.2565,2.2893,2.2893,2.2893,2.303,2.3495,2.3631,2.416,2.6111,2.5468,2.4951,2.6409,2.5566,2.4599,2.4599,2.4599,2.4679,2.493,2.4957,2.5224,2.5941,2.6305,2.6756,2.7387,2.7234,2.7898,3.0091,2.788,2.7199,2.9121,2.7994,2.8072,2.9992,3.02,3.0977,3.2467,3.302,3.3001,3.234,3.4162,3.4746,3.4205,3.5782,3.6597,0.0,0.0,0.0,2.9463,0.0,0.0,0.0,0.0,2.7743,0.0,0.0,0.0,0.0,2.6483,0.0,0.0,0.0,0.0,0.0,0.0,0.0,0.0,0.0,0.0,0.0,2.5547,2.5605,0.0,2.489,2.4307,2.1347,2.0661,1.978,1.8498,1.7906,1.7608,1.7608,1.7622,1.7903,1.849,1.8504,1.8811,1.9401,1.9401,1.9401,1.9401,1.9401,1.9562,1.9826,2.0077,2.0401,2.0739,2.1002,2.1109,2.1109,2.1109,2.1109,2.1109,2.1109,2.1109,2.1109,2.1109,2.1122,2.1122,2.1122,2.1537,2.2004,2.2004,2.2452,2.2893,2.2893,2.2893,2.3324,2.5012,2.5416,2.5595,2.625,2.6349,2.5993,2.4906,2.4636,2.4599,2.4599,2.4599,2.4599,2.4613,2.4613,2.5299,2.7172,2.7673,2.871,3.0962,2.9705,2.9717,3.2206,2.8725,2.7102,2.8733,2.9115,3.0015,3.1656,3.2156,3.2429,3.2505,3.4414,3.5187,3.4792,3.6411,3.7,3.6571,3.6196,3.6269,0.0,0.0,2.6356,2.8207,0.0,0.0,0.0,0.0,0.0,0.0,0.0,0.0,0.0,0.0,0.0,0.0,0.0,0.0,0.0,0.0,0.0,0.0,0.0,0.0,0.0,0.0,0.0,2.3848,2.4199,2.3519,2.1405,2.1303,2.0457,1.8567,1.851,1.8224,1.7608,1.801,1.829,1.849,1.892,1.9201,1.9401,1.9401,1.9401,1.9401,1.9602,1.9813,2.0077,2.0401,2.0695,2.0975,2.1069,2.1109,2.1109,2.1109,2.1109,2.1109,2.1109,2.1109,2.1299,2.2404,2.1996,2.1299,2.2435,2.2396,2.1991,2.1991,2.2439,2.3167,2.4317,2.4622,2.508,2.6839,2.7271,2.7463,2.8116,2.7274,2.6417,2.6518,2.6539,2.6539,2.6539,2.7548,2.7945,2.6721,2.6539,2.7215,2.9115,2.9633,3.0106,3.0911,3.0877,3.1673,3.3881,3.2838,3.1135,2.9047,2.9971,3.1007,3.1907,3.3309,3.4837,3.6516,3.7198,3.732,3.6865,3.7432,3.75,3.709,3.6934,3.6953,2.5776,2.5357,0.0,2.7075,2.6994,0.0,2.8791,0.0,0.0,0.0,0.0,0.0,0.0,0.0,0.0,0.0,0.0,0.0,0.0,2.586,0.0,0.0,0.0,0.0,0.0,0.0,2.459,2.3848,2.3926,2.3413,2.2006,2.1835,2.1,1.9213,1.9045,1.8605,1.7742,1.813,1.8437,1.8651,1.9025,1.9294,1.9401,1.9401,1.9401,1.9415,1.9679,1.993,2.0224,2.0548,2.0842,2.1109,2.1109,2.1109,2.1109,2.1109,2.1109,2.1204,2.179,2.201,2.2247,2.3931,2.3714,2.3031,2.4147,2.4149,2.3891,2.4174,2.4505,2.5105,2.6531,2.6659,2.6906,2.8689,2.9115,2.9286,2.98,2.9086,2.8347,2.8297,2.8408,2.8485,2.8485,2.9508,2.9884,2.8701,2.8485,2.9186,3.1104,3.152,3.1974,3.2789,3.2752,3.3012,3.3955,3.4694,3.3957,3.1286,3.2126,3.3125,3.4075,3.5449,3.7178,3.9258,3.8845,3.8594,3.8633,3.8128,3.7715,3.7305,3.7305,3.7383]},{"header":{"parameterUnit":"m.s-1","parameterCategory":1,"la1":30.6,"la2":29.2853,"lo1":-89.7004,"lo2":-87.6739,"dy":0.0162,"dx":0.0183,"nx":112,"ny":82,"refTime":"2023-05-24T00:00:00:Z","depth":0,"parameterNumber":3,"parameterNumberName":"V-component_of_WINDS"},"data":[0.0,0.0,0.0,0.0,0.0,0.0,0.0,0.0,0.0,0.0,0.0,0.0,0.0,0.0,0.0,0.0,0.0,0.0,0.0,0.0,0.0,0.0,0.0,0.0,0.0,0.0,0.0,0.0,0.0,0.0,0.0,0.0,0.0,0.0,0.0,0.0,0.0,0.0,0.0,0.0,0.0,0.0,0.0,0.0,0.0,0.0,0.0,0.0,0.0,0.0,0.0,0.0,0.0,0.0,0.0,0.0,0.0,0.0,0.0,0.0,0.0,0.0,0.0,0.0,0.0,0.0,0.0,0.0,0.0,0.0,0.0,0.0,0.0,0.0,0.0,0.0,0.0,0.0,0.0,0.0,0.0,0.0,0.0,0.0,0.0,0.0,0.0,0.0,0.0,0.0,4.2174,4.6622,5.1353,5.367,5.2305,5.173,4.9733,4.5693,0.0,0.0,0.0,0.0,0.0,0.0,0.0,0.0,0.0,0.0,0.0,0.0,0.0,0.0,0.0,0.0,0.0,0.0,0.0,0.0,0.0,0.0,0.0,0.0,0.0,0.0,0.0,0.0,0.0,0.0,0.0,0.0,0.0,0.0,0.0,0.0,0.0,0.0,0.0,0.0,0.0,0.0,0.0,0.0,0.0,0.0,0.0,0.0,0.0,0.0,0.0,0.0,0.0,0.0,0.0,0.0,0.0,0.0,0.0,0.0,0.0,0.0,0.0,0.0,0.0,0.0,0.0,0.0,0.0,0.0,0.0,0.0,0.0,0.0,0.0,0.0,0.0,0.0,0.0,0.0,0.0,0.0,0.0,0.0,0.0,0.0,0.0,0.0,0.0,0.0,0.0,0.0,0.0,0.0,0.0,0.0,0.0,0.0,0.0,0.0,0.0,0.0,0.0,0.0,4.3584,4.9498,5.2081,5.3303,5.3099,5.0541,4.7985,4.572,0.0,0.0,0.0,0.0,0.0,0.0,0.0,0.0,0.0,0.0,0.0,0.0,0.0,0.0,0.0,0.0,0.0,0.0,0.0,0.0,0.0,0.0,0.0,0.0,0.0,0.0,0.0,0.0,0.0,0.0,0.0,0.0,0.0,0.0,0.0,0.0,0.0,0.0,0.0,0.0,0.0,0.0,0.0,0.0,0.0,0.0,0.0,0.0,0.0,0.0,0.0,0.0,0.0,0.0,0.0,0.0,0.0,0.0,0.0,0.0,0.0,0.0,0.0,0.0,0.0,0.0,0.0,0.0,0.0,0.0,0.0,0.0,0.0,0.0,0.0,0.0,0.0,0.0,0.0,0.0,0.0,0.0,0.0,0.0,0.0,0.0,0.0,0.0,0.0,0.0,0.0,0.0,0.0,0.0,0.0,0.0,0.0,0.0,0.0,0.0,0.0,0.0,0.0,4.4409,4.662,5.0415,5.2225,5.3019,5.2615,4.9975,4.7522,4.5598,4.391,0.0,0.0,0.0,0.0,0.0,0.0,0.0,0.0,0.0,0.0,0.0,0.0,0.0,0.0,0.0,0.0,0.0,0.0,0.0,0.0,0.0,0.0,0.0,0.0,0.0,0.0,0.0,0.0,0.0,0.0,0.0,0.0,0.0,0.0,0.0,0.0,0.0,0.0,0.0,0.0,0.0,0.0,0.0,0.0,0.0,0.0,0.0,0.0,0.0,0.0,0.0,0.0,0.0,0.0,0.0,0.0,0.0,0.0,0.0,0.0,0.0,0.0,0.0,0.0,0.0,0.0,0.0,0.0,0.0,0.0,0.0,0.0,0.0,0.0,0.0,0.0,0.0,0.0,0.0,0.0,0.0,0.0,0.0,0.0,0.0,0.0,0.0,0.0,0.0,0.0,0.0,0.0,0.0,0.0,0.0,0.0,0.0,0.0,0.0,0.0,0.0,0.0,4.7315,4.8994,5.0875,5.2333,5.2847,5.206,4.9738,4.7454,4.5532,4.314,0.0,0.0,0.0,0.0,0.0,0.0,0.0,0.0,0.0,0.0,0.0,0.0,0.0,0.0,0.0,0.0,0.0,0.0,0.0,0.0,0.0,0.0,0.0,0.0,0.0,0.0,0.0,0.0,0.0,0.0,0.0,0.0,0.0,0.0,0.0,0.0,0.0,0.0,0.0,0.0,0.0,0.0,0.0,0.0,0.0,0.0,0.0,0.0,0.0,0.0,0.0,0.0,0.0,0.0,0.0,0.0,0.0,0.0,0.0,0.0,0.0,0.0,0.0,0.0,0.0,0.0,0.0,0.0,0.0,0.0,0.0,0.0,0.0,0.0,0.0,0.0,0.0,0.0,0.0,0.0,0.0,0.0,0.0,0.0,0.0,0.0,0.0,0.0,0.0,0.0,0.0,0.0,0.0,0.0,0.0,0.0,0.0,0.0,0.0,0.0,0.0,0.0,4.7315,4.9224,5.1657,5.2711,5.2847,5.206,4.9738,4.7454,4.5532,4.314,0.0,0.0,0.0,0.0,0.0,0.0,0.0,0.0,0.0,0.0,0.0,0.0,0.0,0.0,0.0,0.0,0.0,0.0,0.0,0.0,0.0,0.0,0.0,0.0,0.0,0.0,0.0,0.0,0.0,0.0,0.0,0.0,0.0,0.0,0.0,0.0,0.0,0.0,0.0,0.0,0.0,0.0,0.0,0.0,0.0,0.0,0.0,0.0,0.0,0.0,0.0,0.0,0.0,0.0,0.0,0.0,0.0,0.0,0.0,0.0,0.0,0.0,0.0,0.0,0.0,0.0,0.0,0.0,0.0,0.0,0.0,0.0,0.0,0.0,0.0,0.0,0.0,0.0,0.0,0.0,0.0,0.0,0.0,0.0,0.0,0.0,0.0,0.0,0.0,0.0,0.0,0.0,0.0,0.0,0.0,0.0,0.0,0.0,0.0,0.0,0.0,0.0,4.7929,4.9434,0.0,5.3031,5.2664,5.1353,4.9444,4.7401,4.5321,0.0,0.0,0.0,0.0,0.0,0.0,0.0,0.0,0.0,0.0,0.0,0.0,0.0,0.0,0.0,0.0,0.0,0.0,0.0,0.0,0.0,0.0,0.0,0.0,0.0,0.0,0.0,0.0,0.0,0.0,0.0,0.0,0.0,0.0,0.0,0.0,0.0,0.0,0.0,0.0,0.0,0.0,0.0,0.0,0.0,0.0,0.0,0.0,0.0,0.0,0.0,0.0,0.0,0.0,0.0,0.0,0.0,0.0,0.0,0.0,0.0,0.0,0.0,0.0,0.0,0.0,0.0,0.0,0.0,0.0,0.0,0.0,0.0,0.0,0.0,0.0,0.0,0.0,0.0,0.0,0.0,0.0,0.0,0.0,0.0,0.0,0.0,0.0,0.0,0.0,0.0,0.0,0.0,0.0,0.0,0.0,0.0,0.0,0.0,0.0,0.0,0.0,4.7414,4.815,4.9471,0.0,5.3067,5.2443,5.0545,4.9104,4.7202,4.4597,0.0,0.0,0.0,0.0,0.0,0.0,0.0,0.0,0.0,0.0,0.0,0.0,0.0,0.0,0.0,0.0,0.0,0.0,0.0,0.0,0.0,0.0,0.0,0.0,0.0,0.0,0.0,0.0,0.0,0.0,0.0,0.0,0.0,0.0,0.0,0.0,0.0,0.0,0.0,0.0,0.0,0.0,0.0,0.0,0.0,0.0,0.0,0.0,0.0,0.0,0.0,0.0,0.0,0.0,0.0,0.0,0.0,0.0,0.0,0.0,0.0,0.0,0.0,0.0,0.0,0.0,0.0,0.0,0.0,0.0,0.0,0.0,0.0,0.0,0.0,0.0,0.0,0.0,0.0,0.0,0.0,0.0,0.0,0.0,0.0,0.0,0.0,0.0,0.0,0.0,0.0,0.0,0.0,0.0,0.0,0.0,0.0,0.0,0.0,0.0,0.0,0.0,4.6782,4.7783,4.926,5.173,5.2711,5.2186,4.9701,4.8783,4.6799,0.0,0.0,0.0,0.0,0.0,0.0,0.0,0.0,0.0,0.0,0.0,0.0,0.0,0.0,0.0,0.0,0.0,0.0,0.0,0.0,0.0,0.0,0.0,0.0,0.0,0.0,0.0,0.0,0.0,0.0,0.0,0.0,0.0,0.0,0.0,0.0,0.0,0.0,0.0,0.0,0.0,0.0,0.0,0.0,0.0,0.0,0.0,0.0,0.0,0.0,0.0,0.0,0.0,0.0,0.0,0.0,0.0,0.0,0.0,0.0,0.0,0.0,0.0,0.0,0.0,0.0,0.0,0.0,0.0,0.0,0.0,0.0,0.0,0.0,0.0,0.0,0.0,0.0,0.0,0.0,0.0,0.0,0.0,0.0,0.0,0.0,0.0,0.0,0.0,0.0,0.0,0.0,0.0,0.0,0.0,0.0,0.0,0.0,0.0,0.0,0.0,0.0,0.0,4.6782,4.7783,4.926,5.173,5.2711,5.2443,5.0582,4.9114,4.7202,4.4654,0.0,0.0,0.0,0.0,0.0,0.0,0.0,0.0,0.0,0.0,0.0,0.0,0.0,0.0,0.0,0.0,0.0,0.0,0.0,0.0,0.0,0.0,0.0,0.0,0.0,0.0,0.0,0.0,0.0,0.0,0.0,0.0,0.0,0.0,0.0,0.0,0.0,0.0,0.0,0.0,0.0,0.0,0.0,0.0,0.0,0.0,0.0,0.0,0.0,0.0,0.0,0.0,0.0,0.0,0.0,0.0,0.0,0.0,0.0,0.0,0.0,0.0,0.0,0.0,0.0,0.0,0.0,0.0,0.0,0.0,0.0,0.0,0.0,0.0,0.0,0.0,0.0,0.0,0.0,0.0,0.0,0.0,0.0,0.0,0.0,0.0,0.0,0.0,0.0,0.0,0.0,0.0,0.0,0.0,0.0,0.0,0.0,0.0,0.0,0.0,0.0,0.0,4.6351,4.7599,4.915,5.1279,5.2234,5.2087,5.0482,4.9077,4.737,4.5249,0.0,0.0,0.0,0.0,0.0,0.0,0.0,0.0,0.0,0.0,0.0,0.0,0.0,0.0,0.0,0.0,0.0,0.0,0.0,0.0,0.0,0.0,0.0,0.0,0.0,0.0,0.0,0.0,0.0,0.0,0.0,0.0,0.0,0.0,0.0,0.0,0.0,0.0,0.0,0.0,0.0,0.0,0.0,0.0,0.0,0.0,0.0,0.0,0.0,0.0,0.0,0.0,0.0,0.0,0.0,0.0,0.0,0.0,0.0,0.0,0.0,0.0,0.0,0.0,0.0,0.0,0.0,0.0,0.0,0.0,0.0,0.0,0.0,0.0,0.0,0.0,0.0,0.0,0.0,0.0,0.0,0.0,0.0,0.0,0.0,0.0,0.0,0.0,0.0,0.0,0.0,0.0,0.0,0.0,0.0,0.0,0.0,0.0,0.0,0.0,0.0,0.0,4.5773,4.7342,4.8957,5.0729,5.161,5.1473,4.9858,4.8893,4.748,4.5347,0.0,0.0,0.0,0.0,0.0,0.0,0.0,0.0,0.0,0.0,0.0,0.0,0.0,0.0,0.0,0.0,0.0,0.0,0.0,0.0,0.0,0.0,0.0,0.0,0.0,0.0,0.0,0.0,0.0,0.0,0.0,0.0,0.0,0.0,0.0,0.0,0.0,0.0,0.0,0.0,0.0,0.0,0.0,0.0,0.0,0.0,0.0,0.0,0.0,0.0,0.0,0.0,0.0,0.0,0.0,0.0,0.0,0.0,0.0,0.0,3.8633,0.0,0.0,0.0,0.0,0.0,0.0,0.0,0.0,0.0,0.0,0.0,0.0,0.0,0.0,0.0,0.0,0.0,0.0,0.0,0.0,0.0,0.0,0.0,0.0,0.0,0.0,0.0,0.0,0.0,0.0,0.0,0.0,0.0,0.0,0.0,0.0,0.0,0.0,0.0,0.0,0.0,4.6571,4.7709,4.9187,5.1499,5.2454,5.2297,5.0692,4.9738,4.8331,4.6179,4.5178,0.0,0.0,0.0,0.0,0.0,0.0,0.0,0.0,0.0,0.0,0.0,0.0,0.0,0.0,0.0,0.0,0.0,0.0,0.0,0.0,0.0,0.0,0.0,0.0,0.0,0.0,0.0,0.0,0.0,0.0,0.0,0.0,0.0,0.0,0.0,0.0,0.0,0.0,0.0,0.0,0.0,0.0,0.0,0.0,0.0,0.0,0.0,0.0,0.0,0.0,0.0,0.0,0.0,0.0,0.0,0.0,0.0,0.0,0.0,0.0,4.0257,0.0,0.0,0.0,0.0,0.0,0.0,0.0,0.0,0.0,0.0,0.0,0.0,0.0,0.0,0.0,0.0,0.0,0.0,0.0,0.0,0.0,0.0,0.0,0.0,0.0,0.0,0.0,0.0,0.0,0.0,0.0,0.0,0.0,0.0,0.0,0.0,0.0,0.0,0.0,0.0,4.7379,4.8416,4.9701,5.1767,5.238,5.2123,5.0912,5.0041,4.8905,4.7368,4.6245,0.0,0.0,0.0,0.0,0.0,0.0,0.0,0.0,0.0,0.0,0.0,0.0,0.0,0.0,0.0,0.0,0.0,0.0,0.0,0.0,0.0,0.0,0.0,0.0,0.0,0.0,0.0,0.0,0.0,0.0,0.0,0.0,0.0,0.0,0.0,0.0,0.0,0.0,0.0,0.0,0.0,0.0,0.0,0.0,0.0,0.0,0.0,0.0,0.0,0.0,0.0,0.0,0.0,4.3423,4.435,4.5035,4.7162,4.7838,4.7212,4.4259,4.2676,4.2112,4.1895,0.0,0.0,0.0,0.0,0.0,0.0,0.0,0.0,0.0,0.0,0.0,0.0,0.0,0.0,0.0,0.0,0.0,0.0,0.0,0.0,0.0,0.0,0.0,0.0,4.6015,4.581,4.4055,0.0,0.0,0.0,0.0,0.0,0.0,0.0,0.0,0.0,0.0,0.0,4.8196,4.916,5.0271,5.2013,5.2197,5.1867,5.1096,5.0261,4.9454,4.86,4.7348,4.6602,0.0,0.0,0.0,0.0,0.0,0.0,0.0,0.0,0.0,0.0,0.0,0.0,0.0,0.0,0.0,0.0,0.0,0.0,0.0,0.0,0.0,0.0,0.0,0.0,0.0,0.0,0.0,0.0,0.0,0.0,0.0,0.0,3.3575,3.5126,0.0,0.0,0.0,0.0,0.0,0.0,0.0,0.0,0.0,0.0,0.0,0.0,0.0,4.1089,4.3836,4.3856,4.4601,4.6041,4.6259,4.6413,4.6559,4.819,4.9221,4.9757,4.9969,0.0,4.5788,4.4626,0.0,0.0,0.0,0.0,0.0,0.0,0.0,0.0,0.0,0.0,0.0,0.0,0.0,0.0,0.0,0.0,0.0,0.0,0.0,0.0,0.0,0.0,4.6011,4.7513,4.7928,4.792,0.0,4.6451,4.548,4.5581,4.5039,0.0,0.0,0.0,0.0,0.0,0.0,0.0,4.893,4.949,5.0482,5.281,5.3031,5.2711,5.1903,5.1096,5.0288,4.949,4.8541,4.7783,4.7283,4.5824,0.0,0.0,0.0,0.0,0.0,0.0,0.0,0.0,0.0,0.0,0.0,0.0,0.0,0.0,0.0,0.0,0.0,0.0,0.0,0.0,0.0,0.0,0.0,0.0,0.0,0.0,0.0,0.0,0.0,3.2393,3.4331,3.4901,3.6118,3.6558,0.0,0.0,0.0,0.0,0.0,0.0,0.0,0.0,0.0,4.2557,4.3017,4.4079,4.5819,4.7116,4.8283,4.9432,5.1104,5.1925,5.1988,5.3918,5.479,5.4746,5.5951,5.4882,5.2009,4.8034,4.587,4.4875,0.0,0.0,0.0,0.0,4.4119,4.46,4.5394,4.599,4.6323,4.6097,0.0,0.0,0.0,0.0,0.0,0.0,0.0,0.0,0.0,0.0,4.9627,5.0792,5.1049,5.1159,5.1646,5.0472,4.8783,0.0,4.5911,4.5369,4.5369,0.0,0.0,0.0,0.0,4.7562,4.9921,5.1059,5.2197,5.3702,5.3885,5.3555,5.2747,5.194,5.0959,4.9684,4.9197,4.851,4.7453,4.644,4.5434,0.0,0.0,0.0,0.0,0.0,0.0,0.0,0.0,0.0,0.0,0.0,0.0,0.0,0.0,0.0,0.0,0.0,0.0,0.0,0.0,0.0,0.0,0.0,0.0,0.0,0.0,0.0,0.0,3.3611,3.5332,3.4834,3.6975,3.7787,0.0,0.0,0.0,0.0,0.0,0.0,4.1162,4.232,4.3952,4.6277,4.7062,4.8084,4.9414,5.1086,5.2361,5.3165,5.5638,5.678,5.688,5.8956,5.9627,5.9138,6.0236,5.9685,5.7597,5.1922,4.8947,4.7833,4.6268,4.5743,4.5971,4.6567,4.7306,4.8127,4.9173,4.9941,5.0315,4.9505,4.8971,4.8339,4.6534,0.0,0.0,0.0,0.0,4.9187,5.0178,5.1353,5.2564,5.3592,5.3812,5.3995,5.4583,5.3592,5.1756,0.0,4.7535,4.6774,4.6544,0.0,0.0,0.0,0.0,4.9224,5.0875,5.2333,5.3508,5.4326,5.4399,5.4179,5.3544,5.2564,5.1473,5.0298,4.9784,4.8995,4.7742,4.688,4.5855,4.4713,0.0,0.0,0.0,0.0,0.0,0.0,0.0,0.0,0.0,0.0,0.0,0.0,0.0,0.0,0.0,0.0,0.0,0.0,0.0,0.0,0.0,0.0,0.0,0.0,0.0,0.0,0.0,0.0,0.0,3.5701,3.8159,0.0,0.0,0.0,0.0,3.9876,4.188,4.347,4.433,4.6413,4.8645,5.1,5.1778,5.3536,5.646,5.661,5.707,5.7856,5.8781,5.9201,5.9266,6.0875,6.1556,6.1511,6.1552,6.1484,6.097,5.6309,5.3326,5.158,5.0152,4.9969,5.0474,5.0511,5.1024,5.1731,5.1789,5.1872,5.2129,5.3596,5.3534,5.2737,5.1846,5.1075,0.0,0.0,5.0618,5.1059,5.2627,5.3067,5.3544,5.5108,5.5475,5.5475,5.5548,5.4876,5.3775,0.0,5.0482,4.916,4.8306,0.0,4.8186,4.8223,4.8976,5.0115,5.173,5.2674,5.3508,5.4326,5.4399,5.4363,5.4326,5.2894,5.1987,5.1877,5.0445,4.9297,4.8572,4.7166,4.6089,4.5472,4.4838,0.0,0.0,0.0,0.0,0.0,0.0,0.0,0.0,0.0,0.0,0.0,0.0,0.0,0.0,0.0,0.0,0.0,0.0,0.0,0.0,0.0,0.0,0.0,0.0,0.0,0.0,0.0,0.0,3.9263,4.2286,0.0,4.2008,4.23,4.2909,4.3639,4.5343,4.7148,4.8893,5.1164,5.3464,5.5721,5.6561,5.7753,5.9287,6.0304,6.0927,6.1236,6.258,6.3185,6.3198,6.3222,6.3255,6.3231,6.2631,6.2071,6.1484,5.9835,5.7845,5.571,5.4188,5.3708,5.3959,5.4473,5.517,5.5941,5.6455,5.6627,5.637,5.4876,5.3518,5.227,5.1463,5.1389,5.1683,5.2186,5.3078,5.4142,5.5233,5.5904,5.6418,5.7017,5.7152,5.7152,5.7152,5.6528,5.5783,5.5207,5.3371,5.183,5.1489,5.1453,5.1453,5.1453,5.216,5.2894,5.3482,5.4693,5.5636,5.5893,5.593,5.5721,5.5218,5.4179,5.2894,5.1316,5.0692,4.9616,4.7886,4.7334,4.6767,4.6235,4.5522,4.4865,0.0,0.0,0.0,0.0,0.0,0.0,0.0,0.0,0.0,0.0,0.0,0.0,0.0,0.0,0.0,0.0,0.0,0.0,0.0,0.0,0.0,0.0,0.0,0.0,0.0,0.0,4.2252,4.1969,4.5263,4.6955,4.5481,4.6036,4.6902,4.7913,4.9889,5.185,5.3581,5.5922,5.7996,5.9738,6.0589,6.1385,6.2191,6.3187,6.3553,6.3312,6.4945,6.5545,6.5288,6.5044,6.491,6.4861,6.4004,6.3343,6.2842,6.2842,6.1741,5.988,5.796,5.7226,5.7262,5.7508,5.8143,5.8877,5.9416,5.96,5.9196,5.6811,5.5097,5.3922,5.3371,5.3592,5.4142,5.4656,5.5794,5.6932,5.7471,5.8217,5.8804,5.8804,5.8804,5.8804,5.8804,5.818,5.7618,5.7618,5.5673,5.3922,5.3654,5.3838,5.3922,5.3654,5.4289,5.4803,5.4803,5.5978,5.6811,5.6811,5.6565,5.6161,5.5658,5.462,5.3188,5.1316,5.0949,4.9908,4.7886,4.7793,4.7427,4.6616,4.6176,4.5754,4.5345,0.0,0.0,0.0,0.0,0.0,0.0,0.0,0.0,0.0,0.0,0.0,0.0,0.0,0.0,0.0,0.0,0.0,0.0,0.0,0.0,0.0,0.0,0.0,3.8046,4.1894,4.4432,4.3727,4.6906,4.8628,4.7236,4.9131,5.1086,5.2596,5.5552,5.7598,5.8301,6.0575,6.2203,6.3002,6.3711,6.4506,6.5362,6.5362,6.4971,6.4249,6.5778,6.6145,6.5398,6.6145,6.6512,6.6476,6.5655,6.5288,6.5288,6.5288,6.4824,6.3882,6.1447,6.0481,6.037,5.96,5.982,6.0481,6.0407,6.0419,6.026,5.949,5.8682,5.8033,5.8033,5.8033,5.8033,5.7997,5.8572,5.9196,5.9196,5.9783,6.0419,6.0419,6.0419,6.0419,6.0419,5.9783,5.9233,5.9233,5.7336,5.5475,5.4656,5.517,5.5401,5.462,5.5181,0.0,5.5658,5.6345,5.6811,5.6811,5.6088,5.5622,5.5585,5.4142,5.2884,5.2097,5.1279,5.0201,4.875,4.8692,4.8044,4.6716,4.6812,4.6864,4.683,0.0,0.0,0.0,0.0,0.0,0.0,0.0,0.0,0.0,0.0,0.0,0.0,0.0,0.0,0.0,0.0,0.0,0.0,0.0,0.0,0.0,0.0,4.1068,4.1068,4.4519,4.7515,4.8901,5.142,5.3326,5.4036,5.5233,5.6385,5.7408,5.9838,6.14,6.1601,6.3886,6.5287,6.5513,6.6281,6.6815,6.7026,6.7026,6.693,6.6709,6.715,6.726,6.7026,6.6659,6.6512,6.6476,6.5655,6.5288,6.5288,6.5288,6.4824,6.4029,6.3356,6.2695,6.2095,6.1875,6.1949,6.1985,6.0811,6.0419,6.037,6.015,5.9526,5.8866,5.8866,5.8866,5.8756,5.8143,5.8572,5.9196,5.9196,5.9783,6.0419,6.0419,6.0419,6.0419,6.0419,6.0236,6.0077,6.0077,5.9538,5.8621,5.7262,5.7189,5.7262,5.7042,5.7189,0.0,5.7347,5.7519,5.7446,5.6847,5.659,5.6235,5.5658,5.4656,5.3739,5.292,5.2123,5.1218,5.0258,5.0221,4.9774,4.8959,4.8526,4.8058,0.0,0.0,0.0,0.0,0.0,0.0,0.0,0.0,0.0,0.0,0.0,0.0,0.0,0.0,0.0,0.0,0.0,0.0,0.0,0.0,0.0,0.0,4.2049,4.4248,4.5805,4.7921,5.0017,5.1911,5.4174,5.6162,5.7707,5.862,5.9709,6.1197,6.2922,6.4035,6.4376,6.6056,6.699,6.699,6.748,6.77,6.77,6.77,6.7517,6.7187,6.7554,6.7517,6.7187,6.7063,6.699,6.699,6.6512,6.6329,6.6329,6.6329,6.5815,0.0,0.0,0.0,0.0,0.0,6.2291,6.2181,6.1227,6.0896,6.0896,6.0896,6.037,5.971,5.971,5.949,5.9159,5.9061,5.9343,5.9783,6.0114,6.0811,6.1398,6.1398,6.1398,6.1398,6.1398,6.1153,6.0896,6.0896,6.0639,0.0,5.9171,5.8731,5.84,5.8033,5.7997,5.7997,5.7997,5.7997,5.7813,5.7336,5.6994,5.6602,5.6124,5.506,0.0,0.0,0.0,5.1803,5.1316,5.1015,0.0,0.0,0.0,4.9463,4.8716,0.0,0.0,0.0,4.6887,4.6887,0.0,0.0,0.0,0.0,0.0,0.0,0.0,0.0,0.0,0.0,0.0,0.0,0.0,0.0,0.0,0.0,4.435,4.7515,5.0964,5.1674,5.2351,5.3721,5.5732,5.7649,5.9188,6.019,6.1651,6.3854,6.4811,6.5632,6.6329,0.0,0.0,0.0,0.0,6.77,6.77,6.77,6.7333,6.6623,6.737,6.7333,6.6659,6.737,6.77,6.77,6.77,6.77,6.77,6.77,6.7223,6.6329,6.4824,6.3723,6.2866,6.2034,6.1741,6.1704,6.1643,0.0,0.0,6.1716,6.119,6.0529,6.0529,6.004,5.96,6.0224,6.0456,6.0713,6.141,6.2218,6.2793,6.2793,6.2793,6.2793,6.2793,6.2254,6.1741,6.1741,6.1153,6.0627,6.0566,5.9857,5.9086,5.8364,5.8253,5.8253,5.8253,5.818,5.8107,5.7997,0.0,0.0,5.6811,5.5427,5.4289,5.3654,5.2784,5.2244,5.2134,5.1522,5.1495,5.2206,5.1663,5.1044,5.0377,5.0397,5.0094,4.9479,4.789,4.7868,0.0,0.0,0.0,0.0,0.0,0.0,0.0,0.0,0.0,0.0,0.0,0.0,0.0,0.0,0.0,4.5114,4.8206,5.0829,5.2773,5.46,5.5818,5.6122,5.7123,5.84,6.0031,6.147,6.2844,6.3967,6.4856,6.5362,6.5508,6.6292,6.6733,6.6733,6.737,6.77,6.77,6.77,6.7627,6.748,0.0,0.0,6.748,6.7627,6.77,6.77,6.77,6.77,6.77,6.77,6.7223,6.6402,6.5448,6.4567,6.3723,6.2866,6.2572,6.2475,6.1814,6.1606,6.1716,6.2352,6.2034,6.1374,6.1374,6.1263,0.0,6.0529,6.086,6.141,6.1557,6.2218,6.2793,6.2793,6.2793,6.2793,6.2793,6.2683,6.2572,6.2572,6.2426,6.2132,6.1484,6.0713,6.0126,5.9979,5.9942,5.9942,5.9942,5.938,5.8719,5.807,5.7299,5.6811,5.6811,5.5904,5.5574,5.6077,5.473,5.3628,5.2994,5.2814,5.2834,5.298,5.2916,5.2797,5.2661,5.2777,5.2758,5.2572,5.0472,4.9609,0.0,0.0,0.0,0.0,0.0,0.0,0.0,0.0,0.0,0.0,0.0,3.795,0.0,0.0,4.4993,4.7985,5.0304,5.2418,5.4312,5.586,5.6953,5.7364,5.8464,5.982,6.1459,6.2329,6.3348,6.4615,6.4714,6.4897,6.5288,6.5692,6.5888,6.5888,6.6292,6.6696,6.7113,6.7113,6.7297,6.77,6.77,6.77,6.77,6.77,6.77,6.77,6.77,6.77,6.77,6.77,6.748,6.7063,6.6659,6.5742,6.4604,6.3759,6.3466,6.3319,6.2475,6.2218,6.2291,6.2683,6.2842,6.2768,6.2328,6.2218,6.2108,6.1692,6.1594,6.1704,6.2108,6.2499,6.2793,6.2793,6.2793,6.2793,6.2793,6.2793,6.2793,6.2793,6.2793,6.2683,6.2291,6.1875,6.1325,6.0517,6.0419,6.0419,6.0419,6.004,5.9636,5.9245,5.8462,5.7985,5.7985,5.6895,5.6198,5.6198,5.5464,5.4803,5.4436,5.3995,5.3995,5.4399,5.4051,5.39,5.3953,5.4027,5.3849,5.3468,5.2723,5.2344,0.0,0.0,0.0,0.0,0.0,0.0,0.0,0.0,3.5049,3.7107,3.9679,4.1966,4.3312,4.5681,4.8188,5.0421,5.2124,5.3819,5.5655,5.6688,5.7514,5.8158,5.9364,6.0736,6.2197,6.247,6.3196,6.4701,6.42,6.4127,6.4774,6.4958,6.5141,6.5288,6.5288,6.5778,6.6733,6.6586,6.688,6.77,6.77,6.77,6.77,6.77,6.77,6.77,6.77,6.77,6.77,6.77,6.77,6.77,6.77,6.6916,6.5668,6.4861,6.436,6.3992,6.3319,6.2939,6.2793,6.2793,6.3282,6.3723,6.3013,6.2793,6.2793,6.2793,6.2316,6.1998,6.2646,6.2793,6.2793,6.2793,6.2793,6.2793,6.2793,6.2793,6.2793,6.2793,6.2793,6.2793,6.2793,6.2793,6.2352,6.1068,6.086,6.086,6.086,6.075,6.0639,6.0639,5.9783,5.9159,5.8976,5.7765,5.6675,5.5879,5.5842,5.5768,5.5622,5.4997,5.495,5.5585,5.5133,5.49,5.5039,5.5196,5.4975,5.4392,5.4826,5.489,2.6841,2.747,2.906,3.1526,3.2342,3.3678,0.0,0.0,4.0856,4.2312,4.443,4.6326,4.7155,4.8634,5.0489,5.2739,5.4965,5.6469,5.6646,5.7973,5.8964,5.9048,5.9199,5.9677,6.0588,6.1303,6.2108,6.3013,6.3013,6.2976,6.3086,6.3796,6.4567,6.5288,6.5288,6.6035,6.7554,6.6843,6.688,6.77,6.77,6.77,6.77,6.77,6.77,6.77,6.77,6.77,6.77,6.77,6.77,6.77,6.77,6.759,6.7333,6.6512,6.5338,6.4103,6.3992,6.3466,6.2793,6.2793,6.2866,6.2939,6.2829,6.2793,6.2793,6.2793,6.2756,6.2683,6.2793,6.2793,6.2793,6.2793,6.2793,6.2793,6.2793,6.2793,6.2793,6.2793,6.2793,6.2793,6.2793,6.2793,6.2756,6.2572,6.2536,6.2536,6.2536,6.1924,6.1484,6.1484,6.0114,5.8902,5.8217,5.796,5.7519,5.6712,5.6675,5.6345,5.5622,5.5511,5.5511,5.5585,5.6198,5.6531,5.6573,5.7281,5.7576,5.7469,5.691,5.5906,3.0073,3.1105,0.0,0.0,3.6184,3.8518,4.1488,4.3086,4.4474,4.6292,4.8109,4.9593,5.0322,5.1352,5.2536,0.0,5.5289,5.6358,5.6741,5.7791,5.8311,5.7854,5.8208,5.9187,6.0949,6.0994,6.1447,6.2683,6.2365,6.2328,6.2756,6.316,6.3503,6.382,6.4347,6.5154,6.6292,6.6439,6.688,6.77,6.77,6.77,6.77,6.77,6.77,6.77,6.77,6.77,6.77,6.77,6.7407,6.699,6.699,6.6733,6.6256,6.5925,6.5375,6.4677,6.3686,6.3086,6.2793,6.2793,6.3123,6.3466,6.2939,6.316,6.3466,6.2939,6.2793,6.2793,6.2793,6.2793,6.2793,6.2793,6.2793,6.2793,6.2793,6.2793,6.2793,6.2793,6.2793,6.2793,6.2793,6.2793,6.2793,6.2793,6.2793,6.2793,6.2793,6.2499,6.2108,6.163,6.1006,6.0089,5.8792,5.8682,5.8352,5.7556,5.7483,5.7336,5.7017,5.6528,5.6528,5.698,5.6859,5.7031,5.7483,5.785,5.7997,5.7997,5.7691,5.7182,3.2173,0.0,0.0,3.7127,4.0025,4.2988,4.4767,4.627,4.78,4.9533,5.093,5.1979,5.2536,5.3112,5.3805,5.4754,5.5527,5.6295,5.704,5.7622,5.7721,5.6899,5.7107,5.818,6.0394,6.0272,6.0737,6.2352,6.1924,6.1961,6.2756,6.2793,6.2903,6.316,6.3759,6.4604,6.5618,6.6219,6.688,6.77,6.77,6.759,6.737,6.737,6.748,6.77,6.748,6.748,6.7664,6.7223,6.6843,6.6476,6.6256,6.5815,6.5251,6.5031,6.4971,6.4787,6.3576,6.3013,6.2793,6.2793,6.3246,6.3613,6.2976,6.3233,6.3613,6.2976,6.2793,6.2793,6.2793,6.2793,6.2793,6.2793,6.2793,6.2793,6.2793,6.2793,6.2793,6.2793,6.2793,6.2793,6.2793,6.2793,6.2793,6.2793,6.2793,6.2793,6.2793,6.2793,6.2499,6.1704,6.1606,6.1043,5.9636,5.9526,5.9196,5.84,5.8327,5.8217,5.7997,5.7446,5.7409,5.7997,5.7446,5.7409,5.7997,5.7997,5.7997,5.7997,5.7997,5.7997,3.1765,0.0,3.7636,4.0522,4.3477,4.62,4.8342,5.0002,5.1252,5.2063,5.2875,5.345,5.345,5.3484,5.3972,5.5439,5.6345,5.7135,5.7855,5.7996,5.7717,5.6898,5.6113,5.6319,0.0,5.8792,5.9893,6.1533,6.1594,6.1961,6.2756,6.2793,6.3196,6.4029,6.4103,6.4861,6.6439,6.6476,6.688,6.77,6.77,6.7297,6.6549,6.6549,6.6966,6.7664,6.688,6.699,6.759,6.6035,6.5815,6.6402,6.5632,6.5325,6.5215,6.442,6.4139,6.4139,6.4066,6.3503,6.2793,6.2793,6.2829,6.2829,6.2793,6.2829,6.2829,6.2793,6.2793,6.2793,6.2793,6.2793,6.2793,6.2793,6.2793,6.2793,6.2793,6.2793,6.2793,6.2793,6.2793,6.2793,6.2793,6.2793,6.2793,6.2793,6.2793,6.2793,6.2793,6.2793,6.2499,6.1704,6.1606,6.1263,6.0419,6.037,6.0003,5.9196,5.9159,5.8792,5.8033,5.796,5.796,5.7997,5.796,5.796,5.7997,5.7997,5.7997,5.7997,5.7997,5.7997,3.6045,0.0,4.2644,4.5139,4.7619,4.9846,5.1574,5.2367,5.2672,5.2367,5.1725,5.1082,5.0608,5.0507,5.1165,5.3184,5.4574,5.5982,5.7742,5.8008,5.7483,5.6161,5.6235,0.0,0.0,0.0,0.0,6.0639,6.0786,6.1153,6.1961,6.2499,6.2939,6.3246,6.3796,6.436,6.491,6.5448,6.6109,6.688,6.688,6.6476,6.5705,6.5705,6.5852,6.6109,6.5815,6.5852,6.6072,6.5508,6.5154,6.4874,6.4604,6.4163,6.36,6.3343,6.3246,6.3246,6.3246,6.305,6.2793,6.2793,6.2793,6.2793,6.2793,6.2793,6.2793,6.2793,6.2793,6.2793,6.2793,6.2793,6.2793,6.2793,6.2793,6.2793,6.2793,6.2793,6.2793,6.2793,6.2793,6.2793,6.2793,6.3282,6.3649,6.3649,6.3172,6.2793,6.2793,6.2793,6.2683,6.2438,6.2401,6.2071,6.1263,6.119,6.0639,5.9269,5.9196,5.8829,5.8033,5.7997,5.7997,5.7997,5.7997,5.7997,5.7997,5.7997,5.7997,5.7997,5.7997,5.7997,3.9527,4.3166,4.6736,4.899,5.1193,5.2993,5.3721,5.3687,5.3112,5.1792,5.0541,4.939,4.8409,4.8369,4.8998,5.0553,5.192,5.3667,5.6044,5.6331,5.6235,5.6051,5.6235,5.6088,0.0,0.0,0.0,5.9391,6.0089,6.075,6.1557,6.2352,6.2793,6.2793,6.3649,6.4103,6.4103,6.4897,6.5545,6.6072,6.5778,6.5521,6.5288,6.4995,6.5031,6.5288,6.5007,6.5031,6.5251,6.4664,6.431,6.4066,6.3759,6.3282,6.2793,6.2793,6.2793,6.2793,6.2793,6.2793,6.2793,6.2793,6.2793,6.2793,6.2793,6.2793,6.2793,6.2793,6.2793,6.2793,6.2793,6.2793,6.2793,6.2793,6.2793,6.2793,6.2793,6.2793,6.2793,6.2793,6.305,6.3282,6.3282,6.3723,6.3992,6.3686,6.316,6.2793,6.2793,6.2793,6.2793,6.2793,6.2793,6.2572,6.2071,6.2034,6.1447,6.015,6.004,5.9575,5.8462,5.8437,5.829,5.7997,5.7997,5.7997,5.7997,5.7997,5.7997,5.7997,5.7997,5.7997,4.2216,4.6021,4.9809,5.1948,5.4076,5.5428,5.4702,5.3923,5.2706,5.0439,4.9323,4.8274,0.0,0.0,4.7609,4.7948,4.9039,5.0743,5.3361,5.3565,5.4278,0.0,0.0,0.0,0.0,0.0,0.0,5.7923,0.0,6.075,6.1484,6.2352,6.2793,6.2793,6.3613,6.4029,6.4029,6.4824,6.5215,6.5141,6.442,6.4494,6.5141,6.4383,6.4457,6.5141,6.4347,6.4457,6.5031,6.3453,6.3282,6.3956,6.3123,6.2793,6.2793,6.2793,6.2793,6.2793,6.2793,6.2793,6.2793,6.2793,6.2793,6.2793,6.2793,6.2793,6.2793,6.2793,6.2793,6.2793,6.2793,6.2793,6.2793,6.2793,6.2793,6.2793,6.2793,6.2793,6.2793,6.2793,6.3503,6.4139,6.4213,6.4176,6.387,6.3123,6.2939,6.2903,6.2793,6.2793,6.2793,6.2793,6.2793,6.2793,6.2793,6.2793,6.2462,6.163,6.1606,6.0896,5.9343,5.9269,5.8866,5.807,5.807,5.8033,5.7997,5.7997,5.7997,5.7997,5.7997,5.7997,4.724,5.0231,5.2775,5.4413,5.4871,5.4702,5.3957,5.2334,5.0473,4.88,4.6534,4.4692,0.0,0.0,0.0,4.9019,5.1598,0.0,5.6508,5.6827,0.0,5.6811,0.0,5.6345,5.5952,5.6455,0.0,0.0,5.9501,6.0493,6.0676,6.2022,6.2793,6.2793,6.3013,6.3123,6.3123,6.398,6.409,6.3453,6.3906,6.387,6.3417,6.3233,6.3233,6.3417,6.3233,6.3233,6.3417,6.2976,6.2939,6.3123,6.2903,6.2793,6.2793,6.2793,6.2793,6.2793,6.2793,6.2793,6.2793,6.2793,6.2793,6.2793,6.2793,6.2793,6.2793,6.2793,6.2793,6.2793,6.2793,6.2793,6.2793,6.2793,6.2793,6.2793,6.2793,6.2793,6.2793,6.2793,6.3503,6.447,6.5668,6.5375,6.5118,6.5521,6.5031,6.4224,6.2976,6.2793,6.2793,6.2793,6.2793,6.2793,6.2793,6.2793,6.2462,6.163,6.1606,6.1153,6.015,6.0077,5.971,5.8902,5.8902,5.8609,5.7997,5.7997,5.7997,5.7997,5.7997,5.7997,5.0338,5.2976,5.5074,5.5564,5.5395,5.4634,5.2892,5.1014,4.8917,4.6433,4.4538,0.0,4.2313,4.3652,0.0,0.0,0.0,0.0,5.5623,5.6257,5.6638,0.0,5.7336,0.0,5.6686,5.7042,5.7519,0.0,5.9501,6.0566,6.0896,6.2132,6.2793,6.2793,6.2793,6.2793,6.2793,6.3282,6.3282,6.2793,6.3319,6.327,6.2793,6.2793,6.2793,6.2793,0.0,6.2793,6.2793,6.2793,6.2793,6.2793,6.2793,6.2793,6.2793,6.2793,6.2793,6.2793,6.2793,6.2793,6.2793,6.2793,6.2793,6.2793,6.2793,6.2793,6.2793,6.2793,6.2793,6.2793,6.2793,6.2793,6.2793,6.2793,6.3086,6.3392,6.3392,6.3637,6.3894,6.3894,6.4567,6.5338,6.5888,6.5582,6.5435,6.5925,6.5301,6.442,6.3503,6.3392,6.3392,6.3392,6.3392,6.3392,6.3392,6.3392,6.3025,6.2181,6.2144,6.1777,6.097,6.0933,6.0566,5.9747,5.938,5.8976,5.8547,5.818,5.7997,5.7997,5.7997,5.7997,5.2198,5.46,5.6494,5.5868,5.5395,5.438,5.1539,4.9458,4.7124,4.366,0.0,4.2267,4.1082,4.2555,4.4371,4.5732,0.0,5.0,5.344,5.4402,5.5537,5.774,5.7997,5.7997,5.7997,5.7997,5.8033,5.8143,5.9538,6.0713,6.141,6.2279,6.2793,6.2793,6.2793,6.2793,6.2793,6.2793,6.2793,6.2793,6.2793,6.2793,6.2793,6.2793,6.2793,6.2793,6.2793,6.2793,6.2793,6.2793,6.2793,6.2793,6.2793,6.2793,6.2793,6.2793,6.2793,6.2793,6.2793,6.2793,6.2793,6.2793,6.2793,6.2793,6.2793,6.2793,6.2793,6.2793,6.2793,6.2793,6.2793,6.2793,6.2793,6.2793,6.3466,6.4103,6.4103,6.4714,6.5325,6.5435,6.6035,6.6329,6.5742,6.5508,6.5508,6.5582,6.4934,6.4433,6.4433,6.4323,6.4213,6.4103,6.4213,6.4237,6.4237,6.4176,6.3833,6.316,6.2903,6.2536,6.1973,6.1814,6.1374,6.0566,5.9857,5.949,5.938,5.8535,5.8143,5.8143,5.8033,5.7997,5.3788,5.504,5.5868,5.5733,5.3839,5.1505,4.9781,4.6312,0.0,0.0,4.0154,3.9922,4.0615,4.2605,4.5162,4.8279,0.0,0.0,0.0,0.0,5.6785,0.0,0.0,0.0,0.0,0.0,0.0,0.0,5.9857,6.0456,6.0603,6.1985,6.2793,6.2793,6.2793,6.2793,6.2793,6.2793,6.2793,6.2793,6.2793,6.2793,6.2793,6.2793,6.2793,6.2793,6.2793,0.0,6.2793,6.2793,6.2793,6.2793,6.2793,6.2793,6.2793,6.2793,6.2793,6.2793,6.2793,6.2793,6.2793,6.2793,6.2793,6.2793,6.2793,6.2793,6.2793,6.2793,6.2793,6.2793,6.2793,6.2793,6.2793,6.2793,6.3466,6.4103,6.4103,6.4714,6.5508,6.6145,6.6402,6.6659,6.7187,6.6733,6.6512,6.7187,6.6586,6.6072,6.6072,6.5521,6.4861,6.4176,6.4714,6.5081,6.5081,6.4494,6.431,6.4811,6.3563,6.3062,6.3662,6.2989,6.2218,6.141,6.1263,6.086,6.0187,5.938,5.8976,5.8976,5.8327,5.7997,5.4296,5.5141,5.553,5.4752,5.257,4.9932,4.7293,0.0,0.0,0.0,3.9928,4.0261,4.1528,0.0,0.0,4.7826,0.0,0.0,0.0,0.0,0.0,0.0,0.0,0.0,0.0,0.0,5.8143,5.8535,5.9306,6.015,6.097,6.2132,6.2793,6.2793,6.2793,6.2793,6.2793,6.2793,6.2793,6.2793,6.2793,6.2793,6.2793,6.2793,6.2793,6.2793,6.2793,6.2793,6.2793,6.2793,6.2793,6.2793,6.2793,6.2793,6.2793,6.2793,6.2793,6.2793,6.2793,6.2793,6.2793,6.2793,6.2793,6.2793,6.2793,6.2793,6.2793,6.2793,6.3123,6.3392,6.2903,6.3135,6.3356,6.2903,6.3783,6.4824,6.5264,6.5962,6.6549,6.6512,6.6843,6.7113,6.7076,6.6769,6.6769,6.759,6.704,6.6512,6.6512,6.6512,6.6219,6.5411,6.5705,6.5925,6.5925,6.5558,6.5338,6.5288,6.4163,6.3649,6.4066,6.3282,6.2609,6.2218,6.1814,6.141,6.1006,6.0224,5.982,5.982,5.9428,5.9245,5.416,5.4905,5.509,5.3619,5.1285,4.8526,4.5108,4.2354,0.0,0.0,3.9419,4.0312,4.1757,0.0,4.4483,0.0,4.7379,4.9224,0.0,0.0,0.0,0.0,0.0,0.0,0.0,0.0,0.0,5.7997,5.8756,5.9893,6.152,6.2218,6.2609,6.2793,6.2793,6.2793,6.2793,6.2793,6.2793,6.2793,6.2793,6.2793,6.2793,6.2793,6.2793,6.2793,6.2793,6.2793,6.2793,6.2793,6.2793,6.2793,6.2793,6.2793,6.2793,6.2793,6.2793,6.2793,6.2793,6.2793,6.2793,6.2793,6.2793,6.2793,6.2793,6.2793,6.2793,6.2793,6.3429,6.3956,6.3282,6.3576,6.3992,6.3453,6.4481,6.5778,6.6586,6.71,6.7297,6.6843,6.715,6.7297,6.6843,6.6769,6.6953,6.759,6.715,6.6769,6.6769,6.7297,6.748,6.6806,6.6769,6.6769,6.6769,6.6586,6.6292,6.5852,6.4751,6.4249,6.4617,6.3649,6.3086,6.3086,6.2475,6.2047,6.1851,6.1043,6.0676,6.0639,6.0493,6.0419,5.3382,5.4126,5.4329,5.2807,4.9729,4.6481,4.4065,0.0,0.0,3.6288,3.6605,3.7726,3.956,4.0516,4.2151,0.0,4.6067,4.7535,0.0,0.0,0.0,0.0,0.0,0.0,0.0,5.7997,0.0,5.7997,5.8756,5.9893,6.152,6.1667,6.2034,6.2793,6.2793,6.2793,6.2793,6.2793,6.2793,6.2793,6.2793,6.2793,6.2793,6.2793,6.2793,6.2793,6.2793,6.2793,0.0,6.2793,6.2793,6.2793,6.2793,6.2793,6.2793,6.2793,6.2793,6.2793,6.2793,6.2793,6.2793,6.2793,6.2793,6.2793,6.2793,6.2793,6.2793,6.2793,6.3429,6.4066,6.3992,6.4029,6.4237,6.4921,6.5742,6.6623,6.7407,6.7076,6.6806,6.748,6.7063,6.6806,6.748,6.759,6.7627,6.77,6.7627,6.759,6.759,6.7664,6.7664,6.759,6.759,6.759,6.759,6.6916,6.6769,6.7444,6.5351,6.4763,6.6219,6.4787,6.3992,6.3992,6.3919,6.3466,6.2683,6.1887,6.1496,6.1484,6.075,6.0419,5.1555,5.301,5.3585,5.2013,4.8883,4.5534,4.3267,0.0,3.717,3.6871,3.705,3.7873,3.9873,4.0772,4.1785,4.3675,4.4236,4.5516,4.8636,0.0,0.0,0.0,0.0,0.0,0.0,0.0,5.7997,5.7997,5.829,5.9171,6.0786,6.1337,6.1741,6.2071,6.2536,6.2572,6.2071,6.2572,6.2793,6.2793,6.2793,6.2793,6.2793,6.2793,6.2793,6.2793,6.2793,6.2793,0.0,6.2793,6.2793,6.2793,6.2793,6.2793,6.2793,6.2793,6.3123,6.3503,6.2976,6.3123,6.3503,6.2976,6.2793,6.2793,6.2793,6.3172,6.3576,6.3576,6.453,6.5411,6.4934,6.4824,6.4897,6.5215,6.5925,6.6586,6.6916,6.7113,6.7333,6.7627,6.7444,6.7333,6.7627,6.77,6.77,6.77,6.77,6.77,6.77,6.77,6.77,6.77,6.77,6.77,6.77,6.7407,6.737,6.7664,6.6342,6.5595,6.5765,6.5154,6.4347,6.3356,6.3833,6.3686,6.2793,6.2462,6.2328,6.2316,6.1985,6.1838,4.9138,5.1183,5.2198,5.0863,4.7936,4.479,0.0,0.0,3.6854,3.6992,3.701,3.7653,3.9736,4.057,4.1317,4.2494,4.316,4.4277,4.6425,4.7636,0.0,0.0,0.0,5.5511,0.0,5.7703,5.7997,5.7997,5.7997,5.8694,6.0297,6.0713,6.1117,6.1569,6.1924,6.1802,6.1263,6.2034,6.2426,6.2426,6.2683,6.2793,6.2793,6.2793,6.2793,6.2793,6.2793,6.2793,0.0,6.2793,6.2793,6.2793,6.2793,6.2793,6.2793,6.2793,6.3356,6.4029,6.3392,6.3759,6.4347,6.3747,6.338,6.316,6.316,6.3613,6.4103,6.4103,6.5277,6.6366,6.5802,6.5852,6.5962,6.5692,6.6256,6.6843,6.6843,6.7113,6.7407,6.7664,6.7517,6.7407,6.7664,6.77,6.77,6.77,6.77,6.77,6.77,6.77,6.77,6.77,6.77,6.77,6.77,6.77,6.77,6.77,6.6953,6.6366,6.6035,6.5778,6.5105,6.393,6.4494,6.4273,6.316,6.316,6.305,6.2793,6.2793,6.2793,4.621,4.8458,4.9981,4.9221,4.68,4.3992,0.0,0.0,3.6581,3.5791,3.5611,3.6264,3.8347,3.9199,4.0311,4.2364,4.316,4.4057,4.5663,4.7278,0.0,0.0,0.0,5.3849,5.5475,5.709,5.7997,5.7997,5.7997,0.0,6.0297,5.9636,5.993,6.1569,6.086,6.0407,6.0419,6.119,6.1594,6.163,6.2426,6.2793,6.2793,6.2793,6.2793,6.2793,6.2793,6.2793,0.0,6.2793,6.2793,6.2793,6.2793,6.2793,6.2793,6.2793,6.3356,6.4103,6.4103,6.4604,6.5288,6.5288,6.4751,6.4103,6.4103,6.4103,6.4103,6.4103,6.5277,6.6512,6.6476,6.7076,6.748,6.6659,6.7113,6.77,6.77,6.7076,6.6733,6.7554,6.7063,6.6769,6.7554,6.77,6.77,6.77,6.77,6.77,6.77,6.77,6.77,6.77,6.77,6.77,6.77,6.77,6.77,6.77,6.6953,6.6843,6.7627,6.6916,6.6476,6.6476,6.6476,6.5705,6.4103,6.4103,6.3649,6.2793,6.2793,6.2793,4.1597,4.347,4.4587,4.3842,4.2219,4.046,3.9229,3.7415,3.5915,3.5633,3.56,3.6107,3.7853,3.8939,4.0146,4.1802,4.2866,4.3873,0.0,0.0,0.0,0.0,5.4509,5.6675,0.0,0.0,5.7997,5.7997,5.7997,5.8474,5.9526,5.8829,5.9134,6.075,6.0529,6.015,5.96,6.0933,6.13,6.0786,6.2132,6.2499,6.1998,6.2536,6.2793,6.2793,6.2793,6.2793,6.2793,6.2793,6.2793,6.2793,6.2793,6.2793,6.2793,6.2793,6.371,6.4861,6.4273,6.4971,6.6035,6.5472,6.4751,6.4103,6.4103,6.4494,6.5154,6.6269,6.693,6.7333,6.7333,6.7517,6.7627,6.737,6.7517,6.77,6.77,6.7517,6.7407,6.7664,6.748,6.7407,6.7664,6.77,6.77,6.77,6.77,6.77,6.77,6.77,6.77,6.77,6.77,6.77,6.77,6.77,6.77,6.77,6.748,6.7187,6.688,6.715,6.6806,6.5705,6.6219,6.5999,6.4934,6.4347,6.3943,6.3686,6.3086,6.3123,0.0,3.9703,4.0946,4.0493,3.9478,0.0,0.0,3.6524,3.56,3.56,3.56,3.6073,3.7606,3.8845,4.0086,4.1573,4.2762,4.38,0.0,0.0,0.0,0.0,0.0,0.0,0.0,5.7629,5.7997,5.7997,5.7997,5.8364,5.9159,5.8437,5.8584,5.9893,5.9636,5.9245,5.8756,6.0346,6.075,5.9967,6.1875,6.2401,6.1643,6.2426,6.2793,6.2793,6.2793,6.2793,0.0,6.2793,6.2793,6.2793,6.2793,6.2793,6.2793,6.2793,6.3857,6.5215,6.4714,6.5595,6.6806,6.5999,6.5228,6.453,6.453,6.4897,6.5632,6.726,6.77,6.77,6.77,6.77,6.77,6.77,6.77,6.77,6.77,6.77,6.77,6.77,6.77,6.77,6.77,6.77,6.77,6.77,6.77,6.77,6.77,6.77,6.77,6.77,6.77,6.77,6.77,6.77,6.77,6.77,6.77,6.748,6.6953,6.7444,6.7223,6.6219,6.6696,6.6549,6.5742,6.4934,6.453,6.453,6.4004,6.387,0.0,3.6794,3.8442,0.0,0.0,0.0,0.0,0.0,0.0,3.56,3.56,3.6073,3.7606,3.8812,4.0025,4.151,4.2705,0.0,0.0,4.6993,0.0,0.0,5.4803,0.0,5.5622,5.7053,5.7997,5.7997,5.7997,5.8327,5.9086,5.84,5.8327,5.9086,5.84,5.7997,5.7997,5.9538,5.9893,5.9159,6.1545,6.2291,6.152,6.2389,6.2793,0.0,6.2793,6.2793,6.2793,6.2793,6.2793,6.2793,6.2793,6.2793,6.2793,6.2793,6.3857,6.5288,6.5288,6.6366,6.7554,6.6696,6.5888,6.5215,6.5288,6.5325,6.5692,6.726,6.77,6.77,6.77,6.77,6.77,6.77,6.77,6.77,6.77,6.77,6.77,6.77,6.77,6.77,6.77,6.77,6.77,6.77,6.77,6.77,6.77,6.77,6.77,6.77,6.77,6.77,6.77,6.77,6.77,6.77,6.77,6.77,6.77,6.77,6.77,6.77,6.77,6.7297,6.6512,6.5742,6.5398,6.5362,6.5325,6.4934,3.1011,0.0,3.3017,3.3017,3.3332,3.3704,0.0,0.0,0.0,0.0,0.0,3.6073,3.7606,3.8447,3.9382,4.086,0.0,0.0,0.0,0.0,0.0,5.4803,5.6466,5.6943,5.5732,5.7053,5.7997,5.7997,5.7997,5.807,5.8253,5.8107,5.8107,5.829,5.8107,5.7997,5.7997,5.8976,5.9086,5.8327,6.0713,6.1447,6.075,6.2132,6.2793,6.2793,6.2793,6.2793,6.2793,6.2793,6.2793,6.2793,6.2793,6.2793,6.2793,6.2793,6.3857,6.5288,6.5288,6.6366,6.748,6.6035,6.5044,6.4494,6.5105,6.5742,6.6439,6.7407,6.77,6.77,6.77,6.77,6.77,6.77,6.77,6.77,6.77,6.77,6.77,6.77,6.77,6.77,6.77,6.77,6.77,6.77,6.77,6.77,6.77,6.77,6.77,6.77,6.77,6.77,6.77,6.77,6.77,6.77,6.77,6.77,6.77,6.77,6.77,6.77,6.77,6.7297,6.6512,6.6329,6.6219,6.6219,6.5582,6.5521,2.9905,3.0886,3.1708,3.1708,3.2249,3.2994,3.3728,0.0,0.0,0.0,0.0,3.6073,3.7606,3.8559,0.0,0.0,4.2134,0.0,0.0,0.0,0.0,5.5328,5.6356,5.687,0.0,5.7483,5.7997,5.7997,5.7997,5.7997,5.7997,5.7997,5.7997,5.7997,5.7997,5.7997,5.7997,5.8792,5.8976,5.8572,6.0236,6.1006,6.097,6.1851,6.2426,6.2793,6.2793,6.2793,6.2793,6.2793,6.2793,6.2793,6.2793,6.2793,6.2793,6.2793,6.3637,6.4787,6.5178,6.5888,6.6402,6.5154,6.4714,6.4714,6.5191,6.6109,6.715,6.759,6.77,6.77,6.77,6.77,6.77,6.77,6.77,6.77,6.77,6.77,6.77,6.77,6.77,6.77,6.77,6.77,6.77,6.77,6.77,6.7847,6.8201,6.7921,6.7847,6.8201,6.7921,6.77,6.77,6.77,6.77,6.77,6.77,6.77,6.77,6.77,6.77,6.77,6.77,6.748,6.704,6.704,6.704,6.7026,6.6586,6.6439,2.9736,3.1099,3.2293,3.2293,3.2858,3.3582,3.4336,0.0,0.0,0.0,0.0,0.0,0.0,3.8851,0.0,0.0,0.0,0.0,0.0,5.0398,5.2417,5.5254,5.5805,0.0,5.7531,5.785,5.7997,5.7997,5.7997,5.7997,5.7997,5.7997,5.7997,5.7997,5.7997,5.7997,5.7997,5.8682,5.9013,5.9049,5.982,6.0639,6.141,6.152,6.2034,6.2793,6.2793,0.0,6.2793,6.2793,6.2793,6.2793,6.2793,6.2793,6.2793,6.2793,6.3356,6.4213,6.5007,6.5215,6.4995,6.4323,6.4457,6.4958,6.5215,6.6256,6.737,6.7627,6.77,6.77,6.77,6.77,6.77,6.77,6.77,6.77,6.77,6.77,6.77,6.77,6.77,6.77,6.77,6.77,6.77,6.77,6.7811,6.8128,6.8825,6.8421,6.8311,6.9009,6.8348,6.7921,6.8068,6.7958,6.7884,6.7884,6.7774,6.77,6.77,6.77,6.77,6.77,6.77,6.77,6.77,6.77,6.77,6.77,6.77,6.7333,2.8967,3.0702,3.2293,3.2293,3.2858,3.3582,3.4336,0.0,0.0,0.0,0.0,0.0,0.0,3.8849,3.9497,0.0,0.0,4.6838,0.0,0.0,5.4289,5.5475,0.0,5.7189,5.6099,5.72,5.7997,5.7997,5.7997,5.7997,5.7997,5.7997,5.7997,5.7997,5.7997,5.7997,5.7997,5.8107,5.818,5.818,5.9013,5.982,6.0603,6.13,6.2034,6.2793,0.0,6.2793,6.2793,6.2793,6.2793,6.2793,6.2793,6.2793,6.2793,6.2793,6.3356,6.4213,6.5007,6.4861,6.4237,6.4139,6.3686,6.3453,6.4884,6.5472,6.5962,6.7333,6.77,6.77,6.77,6.77,6.77,6.77,6.77,6.77,6.77,6.77,6.77,6.77,6.77,6.77,6.77,6.77,6.77,6.77,6.8274,6.8752,6.8898,6.9376,6.9779,6.9889,6.9192,6.9009,6.9669,6.9119,6.8715,6.8715,6.8091,6.77,6.77,6.77,6.77,6.77,6.77,6.77,6.77,6.77,6.77,6.77,6.77,6.7627,2.8908,3.0635,3.2395,3.2791,3.3467,3.4066,0.0,0.0,0.0,0.0,0.0,0.0,0.0,0.0,4.2016,4.451,0.0,4.8778,5.1506,5.2957,5.4216,0.0,0.0,5.676,5.687,5.7556,5.7997,5.7997,5.7997,5.7997,5.7997,5.7997,5.7997,5.7997,5.7997,5.7997,5.7997,5.7997,5.8217,5.8646,5.8572,5.9428,6.1043,6.097,6.163,6.2793,0.0,6.2793,6.2793,6.2793,6.2793,6.2793,6.2793,6.2793,6.2793,6.2793,6.3356,6.4103,6.3967,6.4016,6.4029,6.3539,6.3747,6.4297,6.5068,6.5925,6.6733,6.748,6.77,6.77,6.77,6.77,6.77,6.77,6.77,6.77,6.77,6.77,6.77,6.77,6.8054,6.8201,6.7774,6.8068,6.8348,6.8348,6.8678,6.9215,7.0059,7.0146,7.011,7.011,6.9376,6.9045,6.9412,6.9119,6.8885,6.8885,6.8128,6.77,6.77,6.77,6.77,6.77,6.77,6.77,6.77,6.77,6.77,6.77,6.77,6.77,2.8942,3.0499,3.2215,3.2949,0.0,0.0,0.0,0.0,0.0,0.0,0.0,0.0,0.0,4.1451,0.0,4.7668,4.9302,5.0657,5.2014,5.3251,5.4572,5.5989,5.6172,5.665,5.7886,5.7997,5.7997,5.7997,5.7997,5.7997,5.7997,5.7997,5.7997,5.7997,5.7997,5.7997,5.7997,5.7997,5.8327,5.8902,5.829,5.9061,6.1006,6.0419,6.0884,6.2242,6.2426,6.2426,6.2279,6.2646,6.2683,6.2536,6.2719,6.2793,6.2793,6.2793,6.3196,6.3686,6.3013,6.3246,6.3723,6.3282,6.3967,6.5081,6.5472,6.6439,6.748,6.7664,6.77,6.77,6.77,6.77,6.77,6.77,6.77,6.77,6.77,6.77,6.77,6.77,6.8348,6.8715,6.8104,6.8641,6.9192,6.9192,6.9325,6.9912,7.1123,7.0917,7.066,7.066,6.9926,6.9472,6.9472,6.9472,6.9362,6.9192,6.8421,6.7921,6.77,6.7884,6.7884,6.77,6.77,6.77,6.77,6.77,6.77,6.77,6.77,6.77,2.8798,3.0117,3.1471,3.2182,3.3434,0.0,3.6321,3.7156,0.0,3.7809,0.0,0.0,0.0,4.212,4.4931,4.7428,4.9608,5.2277,5.5874,0.0,5.6859,5.7703,5.7813,5.785,5.7997,5.7997,5.7997,5.7997,5.7997,5.7997,5.7997,5.7997,5.7997,5.7997,5.7997,5.7997,5.7997,5.7997,5.8033,5.8107,5.8033,5.8474,5.938,5.9306,5.9747,6.0591,6.1374,6.1263,6.0701,6.2169,6.2352,6.1741,6.2499,6.2793,6.2793,6.2793,6.2829,6.2866,6.2829,6.2829,6.3013,6.3759,6.4103,6.447,6.5962,6.6476,6.6733,6.748,6.77,6.77,6.77,6.77,6.77,6.77,6.77,6.77,6.77,6.77,6.77,6.77,6.8348,6.8898,6.8811,6.9486,7.0,7.0,7.0646,7.116,7.1307,7.1894,7.2349,7.2349,7.16,7.1123,7.1123,7.1123,7.0793,7.0073,6.9265,6.8495,6.7737,6.8421,6.8458,6.77,6.77,6.77,6.77,6.77,6.77,6.77,6.77,6.77,2.9465,3.076,3.2046,3.2791,3.3738,0.0,0.0,3.7731,3.87,3.9162,4.0447,0.0,0.0,0.0,4.6443,4.8737,5.1807,5.4396,5.5845,5.6932,5.7666,5.796,5.7997,5.7997,5.7997,5.7997,5.7997,5.7997,5.7997,5.7997,5.7997,5.7997,5.7997,5.7997,5.7997,5.7997,5.7997,5.7997,5.7997,5.7997,5.7997,5.8437,5.9196,5.9196,5.9636,6.0407,6.0713,6.0676,6.0493,6.1594,6.1851,6.1679,6.2499,6.2793,6.2793,6.2793,6.2793,6.2793,6.2793,6.2793,6.2866,6.316,6.4016,6.4971,6.5558,6.6439,6.7297,6.7627,6.77,6.77,6.77,6.77,6.77,6.77,6.77,6.77,6.77,6.8104,6.8311,6.7811,6.9155,7.0059,6.9082,6.9986,7.083,7.083,7.1123,7.149,7.1967,7.2312,7.2129,7.1101,7.0734,7.077,7.127,7.1307,7.094,7.0146,6.9816,6.9302,6.8495,6.8752,6.8752,6.8458,6.7958,6.7958,6.8458,6.7958,6.7958,6.8421,6.7921,6.77,2.9905,3.12,3.2496,3.322,0.0,0.0,3.7371,3.8814,3.9918,4.065,4.161,4.2675,4.3928,0.0,0.0,0.0,5.2775,5.5401,5.5915,5.6932,5.7703,5.796,5.7997,5.7997,5.7997,5.7997,5.7997,5.7997,5.7997,5.7997,5.7997,5.7997,5.7997,5.7997,5.7997,5.7997,5.7997,5.7997,5.7997,5.7997,5.7997,5.829,5.8829,5.8829,5.9123,5.9648,5.9893,5.9869,5.9722,6.0786,6.1227,6.13,6.2108,6.2426,6.2426,6.2719,6.2793,6.2793,6.2793,6.2793,6.2866,6.3123,6.415,6.5362,6.5582,6.6623,6.77,6.77,6.77,6.77,6.77,6.77,6.77,6.77,6.77,6.77,6.77,6.8128,6.8421,6.8128,6.9633,7.0646,6.9802,7.0793,7.1674,7.1674,7.1674,7.1857,7.2422,7.2496,7.2092,7.0991,7.0844,7.1101,7.1637,7.1674,7.1344,7.055,7.0734,7.0257,6.8958,6.9398,6.9398,6.8898,6.8348,6.8348,6.8885,6.8104,6.8091,6.8898,6.8054,6.77,2.9895,3.12,3.2496,0.0,0.0,0.0,3.9423,4.0675,4.1407,4.2164,4.2333,4.2536,4.3288,4.5177,0.0,4.8745,5.2055,5.495,5.6554,5.6774,5.7079,5.7886,5.7997,5.7997,5.7997,5.7997,5.7997,5.796,5.796,5.7997,5.7997,5.7997,5.7997,5.7997,5.7997,5.7997,5.7997,5.7997,5.7997,5.7997,5.7997,5.7997,5.7997,5.7997,5.7997,5.8033,5.8829,5.8756,5.8107,5.9722,6.0419,6.0493,6.13,6.1606,6.1704,6.2499,6.2793,6.2793,6.2793,6.2793,6.2939,6.3796,6.464,6.5435,6.6256,6.7026,6.77,6.77,6.77,6.77,6.77,6.77,6.77,6.77,6.77,6.77,6.77,6.77,6.7958,6.8752,6.9559,7.0367,7.116,7.1967,7.2496,7.2496,7.2496,7.2496,7.2496,7.2496,7.2496,7.2496,7.2496,7.2496,7.2496,7.2496,7.2151,7.1344,7.2041,7.1431,6.9009,7.0463,7.0536,6.8921,6.8885,6.8885,6.8898,6.8104,6.8141,6.8885,6.8091,6.77,3.0683,3.1572,0.0,3.3874,0.0,0.0,0.0,4.0269,0.0,0.0,4.4304,4.4709,4.4956,4.7161,0.0,4.8935,5.2032,5.4583,5.506,5.5611,5.6235,5.7079,5.7152,5.7152,5.7152,5.7152,5.6932,5.6356,5.6859,5.7152,5.7152,5.7703,5.7997,5.7997,5.7997,5.7997,5.7997,5.7997,5.7997,5.7997,5.7997,5.7997,5.7997,5.7997,5.7997,5.7997,5.8253,5.8217,5.807,5.9123,6.0224,6.1263,6.152,6.1961,6.2462,6.2719,6.2793,6.2793,6.2793,6.2793,6.2829,6.3086,6.3759,6.4494,6.4763,6.5778,6.6843,6.6843,6.726,6.77,6.77,6.77,6.77,6.77,6.77,6.77,6.77,6.8128,6.8605,6.8862,7.0022,7.1013,7.127,7.1967,7.2496,7.2496,7.2496,7.2496,7.2496,7.2004,7.1857,7.2459,7.1967,7.1894,7.2459,7.2496,7.2151,7.1344,7.2041,7.1945,7.0646,7.105,7.0793,6.9743,6.9192,6.9192,6.9743,6.8361,6.8398,6.9706,6.8325,6.77,3.0929,3.1945,0.0,3.4212,3.5723,3.7584,3.9999,0.0,0.0,0.0,4.6203,4.6275,4.6848,4.8365,0.0,4.9698,5.2084,5.4032,5.4363,5.4803,5.5427,5.6235,5.6308,5.6308,5.6308,5.6308,5.6124,5.5658,5.6345,5.6675,5.6345,5.7373,5.785,5.7519,5.7813,5.7997,5.7997,5.7997,5.7997,5.7997,5.7997,5.7997,5.7997,5.7997,5.7997,5.7997,5.7997,5.7997,5.8033,5.8499,5.9281,6.0236,6.086,6.141,6.1912,6.2572,6.2793,6.2793,6.2793,6.2793,6.2793,6.2793,6.3392,6.4103,6.4103,6.5228,6.6512,6.6512,6.7076,6.77,6.77,6.77,6.77,6.77,6.77,6.77,6.77,6.8091,6.8605,6.9265,7.0146,7.1013,7.1674,7.2202,7.2496,7.2496,7.2496,7.2496,7.2496,7.2078,7.1967,7.2459,7.2078,7.1967,7.2459,7.2496,7.2312,7.1821,7.2239,7.2275,7.1784,7.1784,7.138,7.0587,6.9779,6.9779,7.0587,6.8972,6.8825,7.0073,6.8788,6.8031,3.0828,0.0,0.0,3.4404,3.6987,0.0,4.1068,4.3626,4.623,4.8206,0.0,4.7461,4.8743,4.9112,4.9603,5.091,5.2295,5.3471,5.4179,5.4289,5.4583,5.5401,5.5475,5.5475,5.5475,5.5475,5.5475,5.5401,5.6124,5.6271,5.5548,5.7005,5.7556,5.6811,5.7519,5.7923,5.7997,5.785,5.785,5.7997,5.7923,5.7923,5.7997,5.7997,5.7997,5.7997,5.7997,5.7997,5.7997,5.7997,5.8033,5.8253,5.9722,6.0382,6.0676,6.2132,6.2756,6.2793,6.2793,6.2793,6.2793,6.2793,6.3356,6.3992,6.3992,6.5118,6.6402,6.6402,6.704,6.77,6.77,6.77,6.77,6.77,6.77,6.77,6.77,6.77,6.8141,6.9669,7.0036,7.0587,7.2129,7.2459,7.2496,7.2496,7.2496,7.2496,7.2496,7.2496,7.2496,7.2496,7.2496,7.2496,7.2496,7.2496,7.2496,7.2496,7.2496,7.2496,7.2496,7.2496,7.2129,7.1307,7.0513,7.0513,7.1307,6.9692,6.9302,7.0073,6.9265,6.8458,3.1099,3.2273,0.0,0.0,3.8497,4.1813,4.2713,4.437,4.5669,4.5582,4.7552,4.9404,4.9713,5.0684,5.1502,5.1812,5.2627,5.3251,5.3434,5.3471,5.3765,5.4546,5.4656,5.4656,5.4656,5.4656,5.4399,5.3765,5.4473,5.484,5.4656,5.6198,5.6957,5.6811,5.6957,5.7373,5.7997,5.676,5.676,5.7997,5.7373,5.7409,5.7997,5.7997,5.7997,5.7997,5.7997,5.7997,5.7997,5.7997,5.8364,5.8976,5.9306,6.0236,6.1374,6.1741,6.2254,6.2793,6.2793,6.2793,6.2793,6.2793,6.2939,6.3086,6.3086,6.4224,6.5545,6.5545,6.6586,6.77,6.77,6.77,6.77,6.77,6.77,6.77,6.77,6.77,6.7994,6.8972,6.9669,7.0403,7.138,7.2078,7.2496,7.2496,7.2496,7.2496,7.2496,7.2496,7.2496,7.2496,7.2496,7.2496,7.2496,7.2496,7.2496,7.2496,7.2496,7.2496,7.2496,7.2496,7.2129,7.1307,7.0513,7.0513,7.1307,6.9692,6.9302,7.0073,6.9265,6.8458,3.1089,0.0,0.0,3.6591,0.0,4.1982,4.2726,4.4079,4.506,4.4668,4.695,4.9206,4.988,5.0603,5.1431,5.2475,5.2644,5.2791,5.3135,5.3214,5.3361,5.3775,5.3838,5.3838,5.3838,5.3838,5.3654,5.3214,5.3959,5.4216,5.3838,5.5354,5.6051,5.5647,5.6014,5.6418,5.687,5.6381,5.6381,5.687,5.7226,5.7593,5.7997,5.7997,5.7997,5.7997,5.7997,5.7997,5.7997,5.7997,5.8253,5.8646,5.9049,5.971,6.0529,6.13,6.1851,6.2291,6.2683,6.2793,6.2793,6.2793,6.2793,6.2793,6.2793,6.371,6.4824,6.5178,6.6182,6.7223,6.759,6.77,6.77,6.77,6.77,6.77,6.77,6.77,6.7958,6.8752,6.9559,7.0367,7.116,7.1967,7.2496,7.2496,7.2496,7.2496,7.2496,7.2496,7.2496,7.2496,7.2496,7.2496,7.2496,7.2496,7.2496,7.2496,7.2496,7.2496,7.2496,7.2496,7.2312,7.1857,7.0697,7.0513,7.1307,7.0073,6.9706,7.011,7.0073,6.9633,3.1002,0.0,3.4472,3.8091,4.002,0.0,4.1948,4.3281,4.4398,4.4398,4.6143,4.8153,4.9559,4.9695,5.0365,5.2642,5.237,5.2225,5.3092,5.3214,5.3214,5.3214,5.3214,5.3214,5.3214,5.3214,5.3214,5.3214,5.3801,5.3922,5.3251,5.4583,5.5108,5.4436,5.506,5.5475,5.5585,5.5978,5.5978,5.5622,5.709,5.7776,5.7813,5.7923,5.7997,5.7997,5.7997,5.7997,5.7997,5.7997,5.7997,5.807,5.8719,5.9086,5.938,6.086,6.1484,6.1704,6.2499,6.2793,6.2793,6.2793,6.2793,6.2793,6.2793,6.3429,6.4249,6.4897,6.5778,6.6659,6.7333,6.759,6.77,6.77,6.77,6.77,6.77,6.77,6.7921,6.8568,6.9449,7.0367,7.116,7.1967,7.2496,7.2496,7.2496,7.2496,7.2496,7.2496,7.2496,7.2496,7.2496,7.2496,7.2496,7.2496,7.2496,7.2496,7.2496,7.2496,7.2496,7.2496,7.2496,7.2496,7.1064,7.0697,7.1527,7.0697,7.0293,7.033,7.0977,7.0866,0.0,0.0,3.5092,0.0,3.9648,4.0447,0.0,0.0,4.3558,0.0,4.5365,4.7367,4.87,4.8496,4.8998,5.1714,5.1577,5.1617,5.2993,5.3214,5.3214,5.3214,5.3214,5.3214,5.3214,5.3214,5.3214,5.3214,5.3287,5.3324,5.3214,5.4069,5.4509,5.4399,5.4509,5.4887,5.5585,5.4326,5.4326,5.5622,5.6528,5.6957,5.6957,5.7666,5.7997,5.7997,5.7997,5.7997,5.7997,5.7997,5.7997,5.7997,5.8107,5.8584,5.9306,6.0224,6.1006,6.1704,6.2499,6.2793,6.2793,6.2793,6.2793,6.2793,6.2793,6.3429,6.4139,6.4249,6.5338,6.6512,6.6623,6.7187,6.77,6.77,6.77,6.77,6.77,6.77,6.7737,6.7847,6.9082,7.0367,7.116,7.1967,7.2496,7.2496,7.2496,7.2496,7.2496,7.2496,7.2496,7.2496,7.2496,7.2496,7.2496,7.2496,7.2496,7.2496,7.2496,7.2496,7.2496,7.2496,7.2496,7.2496,7.16,7.1527,7.2349,7.1527,7.1123,7.1123,7.1233,7.0866,3.2144,3.3423,3.5024,0.0,3.8633,3.958,3.9884,0.0,4.2273,4.2692,4.4218,4.602,4.7835,4.7945,4.8537,5.0936,5.0454,5.0422,5.2265,5.216,5.2186,5.3104,5.2821,5.2711,5.3177,5.3214,5.3214,5.3214,5.3214,5.3214,5.3214,5.3544,5.3728,5.3728,5.3728,5.3922,5.4252,5.3995,5.4436,5.5585,5.5952,5.6345,5.6811,5.7629,5.7997,5.7997,5.7997,5.7997,5.7997,5.7997,5.7997,5.7997,5.7997,5.8217,5.8609,5.9416,5.993,6.0382,6.1178,6.1741,6.2144,6.2144,6.2426,6.2793,6.2793,6.305,6.3466,6.3943,6.4934,6.5925,6.6366,6.7113,6.77,6.77,6.77,6.77,6.77,6.77,6.7958,6.8875,6.9265,6.9963,7.1688,7.1894,7.1967,7.2422,7.2496,7.2496,7.2496,7.2496,7.2496,7.2496,7.2496,7.2496,7.2496,7.2496,7.2496,7.2496,7.2496,7.2496,7.2496,7.2496,7.2496,7.2496,7.1711,7.1233,7.1138,7.0807,7.0624,7.066,7.1087,7.1344,0.0,0.0,3.4652,3.6378,3.763,3.8543,0.0,0.0,4.1136,0.0,4.324,4.49,4.6731,4.714,4.7828,4.9907,4.9286,4.9222,5.1175,5.1234,5.1463,5.248,5.2417,5.2454,5.2847,5.3067,5.3214,5.3214,5.3214,5.3214,5.3214,5.3214,5.3214,5.3214,5.3214,5.3214,5.3214,5.3801,5.4399,5.4987,5.5218,5.5732,5.6528,5.7336,5.7813,5.7997,5.7997,5.7997,5.7997,5.7997,5.7997,5.7997,5.7997,5.7997,5.8107,5.8902,5.9196,5.9306,6.0114,6.0786,6.1337,6.152,6.1998,6.2536,6.2756,6.2793,6.2939,6.3576,6.4347,6.5191,6.5999,6.6769,6.7444,6.7664,6.77,6.77,6.77,6.77,6.8104,6.9522,6.9486,6.9853,7.1872,7.1857,7.1821,7.2422,7.2496,7.2496,7.2496,7.2496,7.2496,7.2496,7.2496,7.2496,7.2496,7.2496,7.2496,7.2496,7.2496,7.2496,7.2496,7.2496,7.2496,7.2496,7.1894,7.1197,7.0403,7.0403,7.0403,7.0403,7.1233,7.1931,0.0,3.3413,0.0,3.6242,3.6863,0.0,0.0,0.0,4.0379,4.1089,4.2758,4.4396,4.5279,4.5542,4.63,4.836,4.8197,4.8259,4.9694,5.1076,5.1683,5.1022,5.2223,5.2847,5.2123,5.2747,5.3214,5.3214,5.3214,5.3214,5.3214,5.3214,5.3214,5.3214,5.3214,5.3214,5.3214,5.3251,5.3287,5.3324,5.4106,5.4876,5.5695,5.6492,5.7299,5.7997,5.7997,5.7997,5.7997,5.7997,5.7997,5.7997,5.7997,5.7997,5.8107,5.8902,5.9196,5.9306,6.0114,6.0419,6.0603,6.1337,6.1643,6.1814,6.2572,6.2793,6.2793,6.2866,6.3503,6.436,6.5154,6.5962,6.6733,6.7517,6.77,6.77,6.77,6.77,6.7958,6.8788,6.9522,7.033,7.1197,7.1967,7.2459,7.2496,7.2496,7.2496,7.2496,7.2496,7.2496,7.2496,7.2496,7.2496,7.2496,7.2496,7.2496,7.2496,7.2496,7.2496,7.2496,7.2496,7.2496,7.2496,7.2459,7.2041,7.1233,7.1233,7.1233,7.127,7.2041,7.2459,0.0,0.0,0.0,3.5723,3.6411,3.7054,3.8058,3.887,3.9749,4.0967,4.2098,4.3104,4.3896,4.4715,4.587,4.7554,4.7293,4.7358,4.8845,4.9367,4.9921,5.0729,5.0839,5.0986,5.1206,5.1977,5.2417,5.2417,5.292,5.2957,5.2454,5.292,5.2957,5.2454,5.292,5.3214,5.3214,5.3214,5.3214,5.3214,5.4032,5.4546,5.4876,5.6198,5.6675,5.6503,5.7556,5.7997,5.7997,5.7997,5.7997,5.7997,5.7997,5.7997,5.8033,5.8327,5.8437,5.8474,5.8767,5.9208,5.9747,6.0566,6.119,6.1741,6.2572,6.2793,6.2793,6.2793,6.3783,6.4934,6.5215,6.6292,6.7333,6.7627,6.77,6.77,6.77,6.8091,6.8715,6.9522,6.9889,7.0513,7.1821,7.1857,7.1894,7.2422,7.2496,7.2496,7.2496,7.2496,7.2496,7.2496,7.2496,7.2496,7.2496,7.2496,7.2496,7.2496,7.2496,7.2496,7.2496,7.2496,7.2496,7.2496,7.1505,7.1064,7.1307,7.077,7.0807,7.1307,7.1064,7.1505,3.4178,0.0,0.0,0.0,0.0,3.6931,3.7427,0.0,3.9288,4.0257,4.1158,4.2007,4.2782,4.3604,4.4671,4.6146,4.621,4.6458,4.7691,4.8369,4.904,4.9848,4.9994,5.0115,5.0362,5.1132,5.161,5.161,5.2087,5.216,5.161,5.2344,5.2564,5.2024,5.2527,5.2821,5.2821,5.3067,5.3214,5.3214,5.3728,5.4142,5.4436,5.55,5.5868,5.5658,5.7005,5.7593,5.7629,5.7886,5.7997,5.7997,5.7997,5.7997,5.7997,5.7997,5.7997,5.7997,5.7997,5.8364,5.8939,5.9747,6.0529,6.1337,6.2132,6.2572,6.2793,6.2793,6.36,6.4517,6.4824,6.6072,6.737,6.7627,6.77,6.77,6.77,6.8141,6.8752,6.9522,6.9706,7.022,7.1835,7.1637,7.1564,7.2386,7.2496,7.2496,7.2496,7.2496,7.2496,7.2496,7.2496,7.2496,7.2496,7.2496,7.2496,7.2496,7.2496,7.2496,7.2496,7.2496,7.2496,7.2496,7.1468,7.1174,7.1711,7.0624,7.0513,7.1307,7.1027,7.1468,0.0,0.0,0.0,0.0,0.0,0.0,3.6829,0.0,3.8983,3.9017,4.0024,4.1151,4.1995,4.2086,4.2535,4.4051,4.4869,4.5527,4.6259,4.8164,4.9214,4.8416,4.9718,5.0388,4.9647,5.0288,5.0765,5.0765,5.0802,5.0802,5.0765,5.1499,5.195,5.195,5.1987,5.1987,5.1987,5.2821,5.3214,5.3214,5.3214,5.3618,5.4363,5.4399,5.4803,5.5585,5.6418,5.6774,5.6811,5.7666,5.7997,5.7997,5.7997,5.7997,5.7997,5.7997,5.7997,5.7997,5.7997,5.7997,5.8143,5.8939,5.9747,6.0566,6.1374,6.2144,6.2793,6.2793,6.2829,6.305,6.3956,6.5338,6.6696,6.7517,6.77,6.77,6.77,6.77,6.7958,6.8752,6.8921,6.9435,7.1013,7.1307,7.1564,7.2386,7.2496,7.2496,7.2496,7.2496,7.2496,7.2496,7.2496,7.2496,7.2496,7.2496,7.2496,7.2496,7.2496,7.2496,7.2496,7.2496,7.2496,7.2496,7.2496,7.2496,7.2496,7.0917,7.055,7.1344,7.2151,7.2496,3.4947,0.0,0.0,0.0,0.0,0.0,0.0,0.0,3.8497,3.9559,4.0081,4.0387,4.0638,4.066,4.0954,4.1921,4.3427,4.4725,4.548,4.6485,4.7434,4.8221,4.83,4.84,4.8634,4.9417,4.9931,0.0,5.0472,5.0545,4.9968,5.0151,5.0518,5.1096,5.1693,5.1987,5.1987,5.2821,5.3214,5.3214,5.3214,5.3324,5.3544,5.4142,5.4216,5.3959,5.593,5.6455,5.6051,5.7409,5.7997,5.7997,5.7997,5.7997,5.7997,5.7997,5.7997,5.7997,5.7997,5.7997,5.8143,5.8939,5.9747,6.0566,6.1374,6.2144,6.2793,6.2793,6.3246,6.4053,6.5485,6.6182,6.6696,6.7517,6.77,6.77,6.77,6.77,6.7958,6.8752,6.9376,7.011,7.1123,7.1307,7.1564,7.2386,7.2496,7.2496,7.2496,7.2496,7.2496,7.2496,7.2496,7.2496,7.2496,7.2496,7.2496,7.2496,7.2496,7.2496,7.2496,7.2496,7.2496,7.2496,7.1931,7.1931,7.2496,7.1454,7.138,7.2165,7.2422,7.2496,0.0,0.0,0.0,0.0,0.0,0.0,3.7606,3.8159,3.8599,0.0,3.991,4.0113,4.0113,4.0113,4.0235,4.0675,4.1899,4.3149,4.4308,4.5,4.5778,4.6897,4.6675,4.682,4.7842,4.8327,4.8719,4.9013,4.9481,4.9701,4.961,4.927,4.9454,5.0261,5.0739,5.0996,5.0996,5.2123,5.2711,5.2711,5.3031,5.3214,5.3214,5.3691,5.3654,5.3287,5.5049,5.5537,5.5218,5.6822,5.7703,5.7997,5.7997,5.7997,5.7997,5.7997,5.7997,5.7997,5.7997,5.7997,5.807,5.8535,5.9453,6.0493,6.097,6.1912,6.2793,6.2793,6.3172,6.387,6.5154,6.5742,6.6219,6.699,6.748,6.77,6.77,6.77,6.7847,6.8311,6.8788,6.9339,7.0169,7.0573,7.105,7.1857,7.2312,7.2496,7.2496,7.2496,7.2496,7.2496,7.2496,7.2496,7.2496,7.2496,7.2496,7.2496,7.2496,7.2496,7.2496,7.2496,7.2496,7.2496,7.2041,7.2041,7.2496,7.1674,7.1527,7.1967,7.1651,7.1688,0.0,0.0,0.0,0.0,0.0,0.0,3.7855,3.8531,3.9017,0.0,3.9626,4.0113,4.0113,4.0113,4.0113,4.0113,4.0492,4.1369,4.2944,4.3629,4.4277,4.5078,4.5,4.5477,4.6913,4.6977,4.7199,4.7889,4.8084,4.8526,4.9417,4.871,4.8673,4.9417,4.9537,4.961,4.961,5.1216,5.1987,5.2024,5.2821,5.3214,5.3214,5.3214,5.3214,5.3251,5.4069,5.4399,5.4509,5.6161,5.7226,5.7886,5.796,5.7997,5.7997,5.7997,5.7997,5.7997,5.7997,5.7997,5.7997,5.8107,5.9098,6.0297,6.0493,6.1508,6.2683,6.2756,6.2793,6.3013,6.387,6.464,6.5375,6.6182,6.6916,6.748,6.7554,6.759,6.759,6.7664,6.77,6.7958,6.8752,6.9486,7.0257,7.116,7.1894,7.2422,7.2496,7.2496,7.2496,7.2496,7.2496,7.2496,7.2496,7.2496,7.2496,7.2496,7.2496,7.2496,7.2496,7.2496,7.2496,7.2496,7.2496,7.2496,7.2496,7.1674,7.1307,7.127,7.0392,7.0429,0.0,0.0,0.0,0.0,0.0,0.0,3.8633,3.8916,3.9186,0.0,4.0011,4.0113,4.0113,4.0113,4.0113,4.0113,4.0179,4.0749,4.2225,4.2472,4.2975,4.4264,4.3956,4.3956,4.4738,4.5334,4.5656,4.5727,4.673,4.7709,4.8526,4.837,4.8379,4.8563,4.9233,4.961,4.961,5.1216,5.1987,5.2024,5.2821,5.3214,5.3214,5.3214,5.3214,5.3251,5.4069,5.4399,5.4509,5.6161,5.6884,5.7116,5.774,5.7997,5.7997,5.7997,5.7997,5.7997,5.7997,5.7997,5.8107,5.8756,5.9196,5.9673,6.097,6.1594,6.1961,6.2609,6.2793,6.3013,6.387,6.4213,6.453,6.5338,6.5655,6.5962,6.6586,6.6733,6.6916,6.759,6.77,6.7958,6.8752,6.9045,6.9619,7.1087,7.1417,7.1784,7.2422,7.2496,7.2496,7.2496,7.2496,7.2496,7.2496,7.2496,7.2496,7.2496,7.2496,7.2496,7.2496,7.2496,7.2496,7.2496,7.2496,7.2496,7.2496,7.1674,7.1307,7.1256,6.9747,6.9864,0.0,0.0,0.0,3.7578,0.0,0.0,0.0,3.9254,3.922,3.9943,4.0113,4.0113,4.0113,4.0113,4.0113,4.0113,4.0113,4.034,4.1062,4.1121,4.1506,4.2561,4.2342,4.2543,4.3652,4.3999,4.441,4.5059,4.6091,4.6983,4.7653,4.8076,4.8296,4.8296,4.871,4.894,4.894,5.0188,5.0996,5.1389,5.2234,5.281,5.3214,5.3214,5.3214,5.3214,5.3618,5.3801,5.3922,5.5537,5.6198,5.6308,5.7519,5.7997,5.7997,5.7997,5.7997,5.7997,5.7997,5.7997,5.807,5.8462,5.8866,5.9416,6.0639,6.1557,6.2291,6.2683,6.2793,6.2903,6.3356,6.3759,6.4213,6.4604,6.5007,6.5508,6.6329,6.6512,6.6733,6.7554,6.77,6.7847,6.8238,6.8641,6.9288,7.0513,7.105,7.16,7.2422,7.2496,7.2496,7.2496,7.2496,7.2496,7.2496,7.2496,7.2496,7.2496,7.2496,7.2496,7.2496,7.2496,7.2496,7.2496,7.2496,7.2312,7.1894,7.0654,7.0061,7.001,6.8262,6.7924,0.0,0.0,0.0,0.0,0.0,3.7439,0.0,0.0,0.0,3.994,4.0113,4.0113,4.0113,4.0113,4.0113,4.0113,0.0,0.0,0.0,4.0113,0.0,4.0933,4.0832,4.1274,4.2553,4.2917,4.3516,4.4677,4.5594,4.6272,4.6705,4.7465,4.7953,4.8076,4.8223,4.8296,4.8296,4.916,5.0004,5.0802,5.162,5.2417,5.3214,5.3214,5.3214,5.3214,5.3214,5.3214,5.3324,5.495,5.5585,5.5768,5.7384,5.7997,5.7997,5.7997,5.7997,5.7997,5.7997,5.7997,5.8033,5.818,5.8767,5.9526,6.0003,6.1288,6.2572,6.2572,6.2683,6.2793,6.2793,6.3319,6.3833,6.3833,6.4347,6.5068,6.6072,6.6256,6.6549,6.7517,6.77,6.77,6.77,6.8238,6.8935,6.9743,7.044,7.1123,7.1945,7.2165,7.2275,7.2275,7.2422,7.2496,7.2496,7.2496,7.2496,7.2496,7.2496,7.2496,7.2496,7.2496,7.2496,7.2496,7.2314,7.1897,7.1275,6.9394,6.8503,6.8512,6.6562,6.591,0.0,0.0,0.0,0.0,3.773,0.0,0.0,0.0,3.9136,3.9952,0.0,4.0113,4.0113,0.0,0.0,0.0,0.0,0.0,4.0113,4.0113,4.0146,4.0214,4.0209,4.0259,4.0442,4.2108,4.3272,4.3474,4.4659,4.532,4.5331,4.6095,4.6759,4.7213,4.7929,4.8296,4.8296,4.916,5.0004,5.0802,5.162,5.2417,5.3214,5.3214,5.3214,5.3214,5.3214,5.3214,5.3324,5.495,5.5585,5.5768,5.7384,5.7997,5.7997,5.7997,5.7997,5.7997,5.7997,5.7997,5.8107,5.8829,5.96,6.015,5.9526,6.0444,6.1741,6.1741,6.2254,6.2793,6.2793,6.2866,6.2939,6.2939,6.3013,6.3527,6.5105,6.5435,6.5888,6.7407,6.77,6.77,6.77,6.7774,6.8091,6.8935,6.9105,6.9449,7.0257,7.0991,7.1454,7.1454,7.2078,7.2496,7.2496,7.2496,7.2496,7.2496,7.2496,7.2496,7.2496,7.2496,7.2496,7.2496,7.1665,7.1219,7.111,6.8558,6.7429,6.7667,6.5142,6.5128,0.0,0.0,0.0,0.0,0.0,0.0,3.8175,0.0,3.8344,0.0,0.0,0.0,0.0,0.0,0.0,0.0,3.9812,0.0,0.0,0.0,4.0113,4.0113,0.0,0.0,4.0113,4.1269,4.1993,4.1913,4.3277,4.4198,4.4389,4.5606,4.6553,4.7094,4.7893,4.8296,4.8296,4.916,5.0004,5.0802,5.162,5.2417,5.3214,5.3214,5.3214,5.3214,5.3214,5.3471,5.3995,5.5144,5.5879,5.6418,5.7556,5.7997,5.7997,5.7997,5.7997,5.7997,5.7997,5.7997,5.807,5.84,5.9049,5.9636,5.9306,6.0309,6.1606,6.1606,6.2181,6.2793,6.2793,6.2793,6.2793,6.2793,6.2793,6.3119,6.423,6.4925,6.5647,6.6733,6.7327,6.77,6.77,6.77,6.7958,6.8788,6.8885,6.9192,7.0,7.0807,7.1307,7.1307,7.2004,7.227,7.1748,7.2197,7.227,7.1732,7.2211,7.2255,7.1717,7.1702,7.1433,7.0901,7.0484,6.9834,6.887,6.7247,6.6066,6.5312,6.4122,6.4138,3.5926,0.0,0.0,0.0,0.0,0.0,0.0,0.0,0.0,0.0,0.0,0.0,0.0,0.0,3.8594,0.0,0.0,3.9752,0.0,3.9952,0.0,0.0,0.0,0.0,0.0,4.1745,4.2043,4.1061,4.2649,4.3485,4.3093,4.4755,4.5988,4.6547,4.7679,4.8296,4.8296,4.894,4.9774,5.0802,5.1389,5.2197,5.3214,5.3214,5.3214,5.3214,5.3214,5.3654,5.4473,5.5254,5.6051,5.6884,5.7703,5.7997,5.7997,5.7997,5.7997,5.7997,5.7997,5.7997,5.7997,5.7997,5.84,5.8866,5.8866,5.9979,6.1263,6.1263,6.1998,6.2793,6.2793,6.2793,6.2743,6.2528,6.2477,6.2735,6.3725,6.4447,6.5318,6.6511,6.7258,6.77,6.77,6.77,6.7921,6.8495,6.8568,6.872,6.9037,6.9776,7.0274,7.0198,7.1179,7.1508,7.0783,7.1809,7.2028,7.085,7.1639,7.1608,7.0443,7.061,7.04,6.9725,6.9422,6.8609,6.7236,6.6153,6.4919,6.3658,6.3324,6.3308,0.0,0.0,0.0,3.5702,0.0,0.0,0.0,0.0,3.6858,0.0,0.0,0.0,0.0,3.7822,0.0,0.0,0.0,0.0,0.0,0.0,0.0,0.0,0.0,0.0,0.0,4.4248,4.435,0.0,4.3274,4.3515,4.1117,4.3075,4.4557,4.5146,4.7185,4.8296,4.8296,4.8333,4.9187,5.0802,5.0839,5.1683,5.3214,5.3214,5.3214,5.3214,5.3214,5.3654,5.4473,5.5254,5.6051,5.6884,5.7703,5.7997,5.7997,5.7997,5.7997,5.7997,5.7997,5.7997,5.7997,5.7997,5.8033,5.8033,5.8033,5.9171,6.0456,6.0456,6.1582,6.2793,6.2793,6.2793,6.2592,6.1811,6.1646,6.2079,6.3668,6.4007,6.4742,6.7172,6.7687,6.77,6.77,6.77,6.77,6.7737,6.7737,6.7442,6.6625,6.7222,6.7635,6.7452,6.9037,7.0009,6.976,7.1433,7.1772,7.0123,7.0726,7.0391,6.8766,6.9353,6.9743,6.9708,6.8742,6.7865,6.7102,6.5434,6.4248,6.3503,6.2773,6.2821,0.0,0.0,3.7815,3.6554,0.0,0.0,0.0,0.0,0.0,0.0,0.0,0.0,0.0,0.0,0.0,0.0,0.0,0.0,0.0,0.0,0.0,0.0,0.0,0.0,0.0,0.0,0.0,4.1305,4.1914,4.1942,4.0955,4.2149,4.356,4.5033,4.6321,4.7398,4.8296,4.9397,5.0251,5.0802,5.1893,5.2664,5.3214,5.3214,5.3214,5.3214,5.3765,5.4436,5.5254,5.6051,5.6859,5.7629,5.7886,5.7997,5.7997,5.7997,5.7997,5.7997,5.7997,5.7997,5.7927,5.7425,5.7582,5.7927,5.7413,5.8726,6.0419,6.0419,6.1545,6.2692,6.2129,6.2009,6.1783,6.0997,6.0805,6.1233,6.2781,6.3576,6.4571,6.6468,6.6838,6.6838,6.6838,6.6301,6.6135,6.6765,6.6838,6.6523,6.5586,6.6167,6.664,6.6572,6.8049,6.8802,6.8047,6.8557,6.9218,6.9909,6.9134,6.8633,6.8521,6.8199,6.7914,6.7782,6.7454,6.6896,6.6165,6.5576,6.4952,6.4241,6.3971,6.4005,3.826,3.8539,0.0,3.7352,3.7411,0.0,3.6196,0.0,0.0,0.0,0.0,0.0,0.0,0.0,0.0,0.0,0.0,0.0,0.0,3.8203,0.0,0.0,0.0,0.0,0.0,0.0,4.2591,4.1305,4.1441,4.1329,4.0635,4.1611,4.2997,4.4719,4.5766,4.7082,4.8746,4.9811,5.0655,5.1242,5.227,5.292,5.3214,5.3214,5.3214,5.3251,5.4069,5.4851,5.5658,5.6455,5.7262,5.7997,5.7997,5.7997,5.7997,5.7997,5.7997,5.7962,5.7703,5.7619,5.7486,5.6721,5.6812,5.7092,5.6629,5.7942,5.9693,6.0211,6.1131,6.1942,6.194,6.1587,6.0967,6.0149,5.9944,6.0295,6.1609,6.2553,6.3576,6.5177,6.5725,6.5904,6.5904,6.541,6.5196,6.5811,6.5904,6.5554,6.4666,6.4986,6.5286,6.523,6.6688,6.7779,6.801,6.7724,6.7922,6.885,6.8117,6.7636,6.7513,6.72,6.7331,6.7996,6.7197,6.6846,6.6914,6.6123,6.5324,6.4613,6.4613,6.4749]}]]